GFSSW_250_spd_000.txt.gz
Wind_Speed
38 37 39 38 37 38 40 37 35 34 35 36 37 37 38 38 41 39 37 34 33 34 38 42 48 59 65 68 69 75 80 90 81 81 82 85 86 83 83 84 86 92 85 83 82
33 34 35 34 36 38 37 33 33 31 32 34 33 33 34 38 40 39 38 35 34 34 38 40 46 53 59 60 68 72 70 77 80 90 88 85 87 86 84 84 87 90 86 85 86
32 32 31 34 34 34 31 30 30 28 29 29 29 30 33 35 40 45 42 37 33 34 38 42 46 47 51 58 62 66 76 74 78 79 82 79 79 80 81 81 81 79 82 84 81
32 31 31 31 30 28 28 28 25 25 25 24 24 25 29 33 37 38 36 35 35 35 41 45 46 46 45 49 56 63 68 72 79 75 84 85 83 87 83 87 83 83 78 79 83
30 32 29 29 27 25 23 20 18 18 21 21 20 23 28 29 30 29 29 34 35 35 38 40 43 43 40 42 47 55 62 65 69 72 78 79 79 83 83 86 89 87 82 81 74
30 31 29 25 22 20 15 15 16 18 18 20 22 22 22 22 23 26 26 30 31 32 32 36 39 42 42 39 44 56 55 58 61 69 71 71 73 77 81 75 73 73 76 79 81
28 30 24 20 18 15 14 15 14 16 19 20 20 21 23 24 27 29 30 31 32 35 35 36 37 37 42 43 46 49 49 53 61 63 64 69 75 74 76 72 71 70 71 73 74
26 23 18 16 16 15 16 16 16 16 18 18 18 19 19 22 23 25 25 25 27 29 31 34 37 40 40 42 43 42 45 47 49 55 59 65 67 67 67 68 74 78 80 77 73
22 18 15 16 16 17 17 17 17 17 17 18 18 20 21 20 20 21 22 23 25 27 28 29 31 34 35 35 38 42 43 44 46 49 53 57 64 69 69 68 65 64 66 66 67
19 16 17 17 16 18 18 19 19 19 20 19 18 19 20 21 19 19 20 21 23 24 25 25 26 30 33 35 37 39 41 46 46 45 46 49 52 52 52 54 55 54 53 48 45
14 18 18 17 20 20 20 20 20 21 23 23 19 18 18 19 18 18 18 19 19 22 23 24 26 28 28 28 31 32 38 41 42 44 42 41 45 42 42 42 40 39 41 41 40
15 20 21 23 23 23 22 20 19 19 21 22 21 22 21 19 16 16 17 17 18 17 18 18 18 21 23 23 25 27 31 33 30 33 31 30 35 33 32 34 35 35 38 40 41
18 23 27 27 25 24 25 25 23 23 22 24 20 19 18 15 15 13 12 13 15 13 12 14 14 15 15 19 20 18 24 29 27 31 28 30 33 34 33 30 32 36 40 42 41
24 26 26 27 28 29 28 25 23 21 18 19 18 18 16 17 17 15 13 12 11 13 14 14 15 15 17 20 20 22 26 26 27 26 24 24 21 23 22 26 31 33 36 36 38
27 28 29 30 29 29 29 27 24 22 17 19 18 21 20 19 18 19 16 16 14 14 13 12 13 13 18 20 16 16 17 18 20 22 25 22 19 20 25 28 29 32 37 40 40
30 30 30 29 29 29 28 27 24 22 21 23 24 23 21 20 20 19 16 15 14 14 13 11 11 11 13 14 14 16 18 20 22 24 23 20 18 19 27 29 31 36 37 37 39
31 30 30 30 31 31 29 28 27 23 24 24 23 23 20 19 17 16 13 11 9 7 6 7 6 6 7 8 10 13 15 16 18 20 15 15 13 15 17 22 24 26 26 28 30
33 31 30 31 31 30 30 28 27 25 25 25 22 20 18 16 14 11 10 9 8 7 8 9 9 7 5 4 2 2 3 4 5 6 7 11 14 16 17 18 16 21 26 31 34
34 33 33 33 32 29 27 27 25 26 26 23 20 16 15 12 9 9 9 10 10 13 16 16 13 10 8 5 3 3 5 8 10 11 12 14 17 18 21 23 25 29 33 35 37
36 37 36 33 31 28 28 27 27 25 21 19 17 15 13 9 10 13 13 13 16 17 14 10 7 5 4 3 4 6 8 10 12 13 14 15 18 20 23 26 28 31 35 38 39
39 38 36 32 31 29 26 25 24 22 20 18 16 13 10 11 14 13 14 15 14 11 9 7 4 2 2 5 8 9 11 14 18 22 24 23 24 25 27 30 34 36 39 43 42
40 38 36 34 32 29 27 25 23 21 20 18 15 13 13 12 13 14 14 13 11 10 9 8 7 6 7 9 12 15 17 19 21 25 29 29 30 34 36 38 41 44 44 45 46
42 39 36 34 33 31 28 25 22 20 20 18 15 15 14 14 15 14 13 11 10 11 11 10 10 10 11 12 13 16 20 24 26 27 30 34 34 38 40 42 46 48 49 50 51
40 38 34 32 32 30 31 26 22 21 20 18 15 15 15 14 13 12 12 12 12 11 11 13 13 13 14 16 17 21 24 27 30 34 36 38 45 44 45 47 48 52 54 57 59
42 38 37 35 31 32 31 28 24 21 20 17 16 15 16 17 15 14 14 14 14 13 14 15 16 16 18 20 22 26 30 30 33 36 40 44 47 49 51 53 54 55 55 56 58
42 39 38 34 28 28 29 28 26 22 17 16 17 20 20 21 19 18 16 15 15 15 17 18 18 20 22 23 27 31 34 35 38 43 47 50 56 55 55 55 57 58 59 59 59
46 42 39 33 31 27 28 29 29 25 21 20 22 20 19 19 18 19 20 20 20 20 21 22 24 25 26 29 33 35 36 39 43 50 53 57 60 58 55 57 60 60 60 59 58

GFSSW_250_spd_003.txt.gz
Wind_Speed
62 46 41 41 41 40 35 34 36 35 34 35 36 34 33 35 37 42 42 41 41 40 38 40 44 51 50 51 52 55 57 64 65 71 72 73 76 74 77 80 82 81 78 80 85
56 46 39 37 37 35 34 34 36 36 34 31 31 32 34 35 37 40 40 38 37 35 34 39 43 45 46 46 50 52 53 58 63 66 68 74 79 72 78 77 77 82 79 77 77
52 41 34 37 36 33 30 33 31 29 28 28 31 33 33 35 37 39 39 38 35 32 32 37 36 38 39 41 47 52 56 56 57 67 73 75 74 72 73 78 76 77 83 83 85
45 36 34 34 34 32 30 30 29 28 26 30 31 31 31 32 35 35 37 37 36 33 34 33 34 35 37 37 40 48 52 63 64 66 72 77 83 77 74 78 78 74 73 79 77
41 34 34 34 34 31 29 27 25 22 22 25 28 30 31 29 30 32 34 34 35 33 33 31 30 33 34 31 32 38 49 56 63 67 69 69 73 80 82 79 78 81 82 77 74
34 32 33 35 34 27 25 22 17 17 20 21 26 27 26 26 27 28 28 29 30 29 28 26 27 30 34 34 37 38 40 46 56 61 67 70 71 69 72 74 70 73 72 72 78
31 31 33 35 29 23 21 16 16 18 20 25 24 23 22 23 25 27 29 27 27 29 31 30 28 31 32 35 39 35 33 39 45 49 53 59 65 70 70 72 72 62 63 63 68
27 29 35 30 24 21 17 15 15 16 20 23 23 22 21 25 27 29 28 29 29 30 31 29 28 28 29 33 34 34 35 34 37 41 45 47 49 57 60 67 68 70 72 73 76
26 30 30 24 20 16 16 16 17 18 21 21 21 21 22 23 23 23 24 25 23 23 23 24 25 26 27 30 35 36 35 36 37 39 41 44 44 48 54 58 61 62 63 65 68
29 26 23 19 16 16 16 19 20 20 21 20 21 20 21 22 22 23 24 26 27 27 27 29 29 30 32 33 33 33 36 38 40 38 37 39 40 41 42 44 46 50 52 54 54
27 19 18 16 14 17 21 23 23 23 22 22 21 20 20 21 22 23 22 21 21 22 22 24 25 26 25 27 32 35 36 36 35 33 37 38 39 38 41 42 41 42 42 42 40
19 15 15 16 20 23 23 24 23 24 23 23 22 22 21 20 21 22 23 23 22 23 23 23 24 25 25 26 29 31 30 28 25 27 30 34 33 31 32 33 34 36 37 40 41
16 14 19 21 22 22 21 22 22 22 22 21 20 20 21 21 19 19 19 19 19 19 19 24 23 22 20 20 21 23 23 21 20 22 25 24 26 26 29 32 36 36 37 38 40
15 17 24 23 24 26 26 24 22 20 20 20 18 17 18 19 18 16 15 14 15 18 19 18 17 16 16 17 19 20 21 18 18 19 20 22 23 24 28 31 32 32 31 31 33
16 20 23 26 28 27 28 26 25 23 20 19 16 21 19 18 18 18 18 19 16 16 17 16 17 14 16 17 17 19 20 20 17 17 15 15 16 20 23 26 28 32 35 36 38
20 25 28 29 29 29 29 27 26 24 21 19 17 20 19 18 18 18 16 15 15 15 14 15 15 13 13 12 14 16 16 17 17 15 11 12 12 17 21 25 30 33 36 37 36
28 29 30 29 30 28 28 28 26 23 19 20 20 19 18 18 18 17 17 17 16 15 14 14 12 13 13 14 14 12 10 9 6 3 6 9 11 12 14 17 20 23 26 28 31
32 32 31 29 28 27 28 27 26 24 24 23 22 22 23 21 19 18 19 18 16 13 13 13 13 11 9 6 4 2 3 3 3 1 2 4 8 11 13 16 18 21 24 27 31
36 34 31 30 30 29 28 25 26 25 25 27 26 24 20 17 16 14 14 14 12 12 13 12 12 11 10 9 6 5 2 2 3 4 7 10 13 15 17 21 24 27 28 30 34
37 34 32 33 32 31 29 25 23 24 28 27 22 18 17 15 12 13 13 13 14 17 18 16 13 10 7 4 3 2 4 5 8 11 14 16 17 20 23 25 27 30 34 36 39
37 34 35 35 34 32 28 26 25 29 27 22 19 18 16 11 11 13 13 16 19 17 14 11 9 7 3 1 3 5 8 10 12 14 17 19 21 22 24 29 33 36 39 41 44
38 36 37 37 34 31 29 28 30 28 23 21 18 16 11 11 13 15 15 17 16 14 13 9 6 4 4 5 7 8 11 14 16 17 20 22 25 27 29 33 38 41 45 47 49
39 39 39 36 33 32 31 31 29 25 23 21 18 13 12 14 16 16 17 16 15 14 11 9 8 8 9 10 11 11 14 17 20 23 24 26 31 35 39 43 47 51 53 54 55
42 40 39 35 33 32 30 28 25 24 23 21 17 15 14 13 14 17 17 16 15 12 11 11 13 13 13 13 14 16 18 23 26 28 28 32 37 42 46 50 54 57 57 56 56
40 40 40 33 33 33 30 28 25 24 23 21 18 17 17 15 16 17 18 18 16 14 15 16 16 16 17 18 18 20 23 27 28 28 32 37 44 48 52 54 57 58 58 57 56
42 43 41 40 38 34 32 29 26 24 23 22 19 20 19 17 16 16 16 14 14 15 17 19 19 20 22 23 24 26 28 31 29 32 38 44 47 51 56 57 60 60 58 57 56
43 43 42 37 35 33 34 32 29 25 25 25 22 21 19 17 17 17 16 18 21 21 21 23 24 24 27 26 26 32 35 32 34 40 44 49 51 57 58 57 60 62 62 60 60

GFSSW_250_spd_006.txt.gz
Wind_Speed
78 79 78 72 62 52 43 41 37 35 36 35 35 36 38 38 39 40 38 42 44 40 43 44 45 46 44 45 44 46 48 50 52 57 57 64 69 72 74 76 79 70 74 70 72
78 76 75 69 56 42 40 36 33 35 36 35 38 38 38 39 39 37 38 38 41 42 43 41 41 39 38 37 40 42 45 47 48 50 55 59 67 69 59 70 71 76 74 75 75
75 74 70 58 49 38 36 35 33 34 34 32 34 34 36 37 37 35 34 35 39 41 40 38 34 31 32 35 38 40 42 43 45 49 52 55 64 64 68 61 67 68 67 76 77
72 68 61 53 45 36 35 36 35 32 32 32 30 30 32 33 34 34 33 32 35 35 34 31 29 30 35 34 35 36 39 40 47 47 46 52 57 60 65 64 61 69 67 64 55
67 61 61 48 39 35 35 34 32 27 28 27 29 31 31 30 31 32 30 30 32 32 29 25 24 24 28 32 32 32 36 41 42 47 50 49 52 58 62 60 65 64 64 69 68
64 62 54 42 34 35 36 31 26 25 25 26 26 26 26 26 29 29 28 30 31 30 28 24 20 20 21 29 31 29 29 32 39 46 46 51 52 50 61 69 67 71 73 70 72
64 58 43 34 32 35 35 28 23 22 21 21 20 20 21 25 25 25 26 26 27 28 27 27 27 26 26 28 28 29 27 27 30 35 41 47 48 55 52 56 65 71 74 75 79
59 48 33 30 36 36 30 23 20 19 16 16 16 19 22 24 26 26 27 28 28 27 29 28 29 26 26 28 29 29 26 28 27 27 29 35 39 47 53 54 53 60 65 67 60
55 41 28 32 38 32 24 18 16 13 12 15 18 22 21 23 25 27 28 29 30 28 25 28 26 26 27 27 21 20 24 26 28 30 30 30 33 36 39 44 46 47 49 54 59
50 35 29 33 34 24 17 14 13 12 13 17 21 20 18 17 18 21 22 24 24 23 23 23 23 23 23 23 23 22 24 28 30 33 34 34 35 35 35 37 39 43 44 46 48
45 30 32 33 25 17 14 14 15 17 17 18 20 20 20 21 20 20 19 19 21 23 24 23 23 24 24 26 25 26 26 28 31 31 33 35 36 38 39 40 41 44 43 43 42
37 28 33 26 16 14 14 17 20 20 20 20 20 20 20 20 21 20 21 20 22 24 23 23 25 26 27 26 25 22 21 25 30 32 32 33 36 35 34 33 34 35 35 34 34
31 28 31 20 15 14 16 20 20 19 20 20 19 19 19 19 20 20 21 21 22 22 22 21 21 21 22 22 19 19 22 26 26 25 23 23 24 25 27 28 29 28 30 32 33
26 28 24 17 13 16 20 20 19 19 19 17 17 17 18 19 18 16 17 18 19 20 19 17 20 22 22 21 18 15 17 17 19 17 18 18 19 23 25 28 27 26 27 26 30
24 26 19 16 16 20 20 20 20 19 19 19 17 18 19 19 20 19 18 17 15 13 15 17 19 20 19 15 16 17 14 11 10 11 13 14 16 19 23 25 23 25 27 28 29
22 21 15 19 20 21 24 25 23 22 21 18 15 18 18 16 17 17 16 16 17 13 12 15 17 14 13 11 9 9 8 8 7 8 12 16 17 23 22 23 24 24 22 21 22
24 19 19 22 24 25 26 26 24 23 21 18 19 20 20 19 16 14 13 14 13 13 14 14 12 14 14 10 8 7 8 9 10 13 18 21 23 22 19 17 18 21 23 24 25
26 24 26 27 27 27 28 26 25 23 22 19 19 17 15 14 14 13 14 15 15 14 11 11 12 13 9 7 7 7 7 8 8 7 6 6 8 12 16 19 22 24 26 28 31
27 29 29 29 28 28 28 29 26 23 22 19 18 18 17 16 16 16 15 14 13 13 14 15 12 10 10 11 12 10 8 6 6 7 7 7 10 13 17 21 24 27 30 33 37
34 34 32 30 29 29 28 27 25 21 20 21 21 19 17 17 16 15 15 16 16 15 14 13 14 16 14 11 9 5 3 2 3 6 8 11 14 17 21 23 26 29 33 37 40
40 36 34 32 32 31 28 24 24 22 24 24 21 18 18 15 12 13 14 14 13 14 15 16 14 13 11 6 3 2 3 4 7 9 12 14 14 16 20 23 28 33 39 43 47
41 38 35 34 33 33 30 27 26 26 26 24 21 19 16 12 10 13 13 13 15 17 17 15 12 9 6 2 3 6 6 8 10 12 15 17 18 22 25 30 35 40 43 47 49
42 40 37 37 37 34 32 31 29 29 28 25 22 19 17 14 13 14 15 17 18 17 15 14 11 7 5 6 9 10 11 12 15 18 20 20 23 27 30 37 41 46 50 51 51
45 41 37 40 39 37 35 32 32 31 27 25 22 19 15 13 15 16 18 17 18 16 14 12 9 8 8 11 13 15 15 17 19 22 26 25 28 30 37 42 45 50 49 52 55
42 40 39 40 38 36 34 34 33 30 27 26 23 20 16 14 15 17 19 19 17 15 14 13 12 12 14 16 17 20 22 24 27 29 31 32 34 36 42 45 51 55 55 55 55
42 42 42 45 42 38 35 34 32 28 26 26 23 20 18 17 16 14 14 15 15 15 15 16 17 18 17 18 20 24 28 29 31 34 36 35 39 43 47 49 53 59 60 60 60
46 46 46 45 39 36 36 36 31 29 28 27 24 21 19 18 17 16 15 15 17 19 20 21 20 20 23 24 24 30 31 32 35 39 38 38 44 49 51 55 60 65 65 67 69

GFSSW_250_spd_012.txt.gz
Wind_Speed
71 71 69 73 76 81 86 78 71 71 67 55 37 32 31 31 29 34 36 40 43 44 44 44 45 45 42 39 39 39 35 36 38 40 42 46 48 50 52 54 56 59 62 68 63
72 74 70 74 76 82 88 77 75 70 68 47 33 32 32 32 32 32 37 37 39 42 41 41 41 41 35 36 36 33 34 37 40 41 43 43 46 49 48 50 51 57 59 56 60
79 79 70 76 80 86 89 79 75 70 63 40 32 34 31 28 27 29 30 35 38 37 37 39 38 36 34 33 31 30 33 34 35 33 37 39 41 41 41 43 49 51 49 54 48
79 79 69 74 80 84 89 82 76 73 56 39 35 34 27 22 24 23 25 32 31 34 35 36 36 33 30 31 29 29 31 29 30 29 33 32 35 37 38 39 39 43 45 47 44
81 80 71 75 82 89 88 83 77 73 54 41 35 30 24 20 18 20 24 27 31 32 33 32 31 31 27 26 27 28 27 26 28 31 30 28 27 28 35 36 36 33 38 42 49
84 79 75 77 83 86 88 82 74 65 53 42 33 25 21 19 17 18 22 26 29 29 28 27 25 26 24 27 27 27 26 25 24 26 27 26 25 25 29 32 32 31 33 38 43
83 77 74 81 80 88 85 78 70 57 52 38 30 24 18 16 16 18 19 22 26 26 23 22 24 26 31 29 28 27 26 28 28 24 26 27 28 30 28 28 32 36 33 31 33
80 73 73 81 81 89 82 75 67 53 44 33 25 18 13 12 14 19 21 23 23 22 23 28 31 32 29 27 26 27 29 31 31 27 21 19 21 25 26 28 31 32 31 32 34
73 73 72 80 84 88 80 72 61 51 36 26 21 14 9 11 13 17 20 22 22 22 24 30 34 33 30 28 28 29 30 30 29 27 26 23 22 25 24 24 25 26 28 30 32
72 73 75 80 84 87 77 67 56 47 29 22 17 11 8 9 13 16 18 20 23 25 31 35 34 31 29 28 27 27 22 25 28 29 29 25 25 24 24 25 27 26 26 29 31
68 74 75 81 87 89 77 63 54 38 22 18 13 12 10 11 13 15 17 20 22 27 33 35 35 32 29 28 26 24 25 26 27 26 25 27 28 28 27 28 29 30 30 31 33
74 71 78 83 89 85 72 58 49 28 18 16 15 14 13 13 15 17 17 18 21 25 31 33 32 28 26 27 28 27 25 24 24 24 24 25 27 27 28 29 29 30 31 32 34
81 75 80 82 87 84 65 51 36 22 18 14 14 14 15 15 17 20 23 24 21 24 24 27 26 24 26 26 26 24 23 23 23 25 26 27 27 26 25 24 25 28 29 29 29
83 79 81 84 82 78 59 46 29 20 17 15 15 14 15 16 17 19 24 26 24 24 26 25 24 26 26 26 25 25 23 23 23 22 22 22 23 23 23 21 22 21 19 21 20
84 82 83 83 80 73 53 37 24 19 18 17 15 14 15 17 19 21 21 23 24 24 24 23 24 24 24 24 24 23 22 21 19 18 22 23 21 21 18 15 13 13 16 17 16
86 85 82 82 81 63 45 31 22 22 20 18 17 16 16 17 19 21 24 24 23 21 20 20 21 22 23 21 21 22 21 20 21 21 22 20 19 17 11 12 12 13 11 9 10
89 87 82 82 79 50 40 24 20 22 20 19 17 16 15 16 18 21 22 22 21 21 21 21 20 20 20 21 19 18 19 19 18 17 16 14 14 11 10 8 4 6 8 12 16
90 87 84 80 69 45 35 21 22 20 19 19 18 18 18 18 18 17 19 20 20 21 22 21 20 17 14 15 18 20 18 16 15 15 10 7 6 3 1 3 7 10 13 16 17
91 91 86 72 55 40 28 20 21 21 21 20 19 20 20 21 20 20 21 20 19 19 18 18 17 16 19 21 20 19 16 15 14 12 8 5 3 3 6 8 11 13 14 16 19
91 88 75 58 42 37 24 21 24 24 23 21 20 20 18 18 17 17 17 16 15 14 15 17 19 20 20 19 16 13 13 12 9 7 5 5 5 7 10 12 14 15 17 21 25
80 74 59 47 39 33 25 28 29 27 23 21 21 21 20 19 18 17 16 15 15 14 14 16 17 17 18 17 17 16 13 10 9 8 7 7 9 11 14 17 18 21 24 27 30
68 60 47 40 37 32 29 30 30 27 25 25 25 21 20 19 18 16 14 14 14 15 16 18 19 22 22 21 19 15 12 10 9 9 10 12 12 13 16 20 24 28 30 32 34
60 49 46 40 37 32 33 33 30 29 30 28 24 21 20 18 16 15 15 14 14 16 20 23 25 24 21 19 15 13 13 13 13 13 16 18 20 20 24 26 28 32 35 38 40
60 50 46 40 41 36 37 35 32 32 31 29 24 23 23 22 18 17 16 15 15 20 24 24 23 22 19 17 16 14 14 14 14 16 20 22 24 26 30 33 35 36 37 40 43
55 46 44 42 41 39 39 38 35 32 30 29 26 26 25 22 19 17 15 16 21 25 23 23 23 21 19 16 15 15 14 17 19 21 25 27 31 28 31 36 39 41 41 43 47
53 51 44 48 46 43 41 39 35 35 32 29 29 28 25 23 19 19 19 19 24 24 21 22 23 22 21 20 17 17 20 22 23 26 30 31 37 35 37 40 43 44 44 46 52
55 51 50 52 48 46 43 40 38 37 34 31 31 29 26 24 22 23 22 23 25 24 25 25 26 26 26 22 20 23 26 26 29 32 33 35 37 39 42 44 45 46 47 52 59

GFSSW_250_spd_015.txt.gz
Wind_Speed
60 65 72 74 76 81 86 80 74 72 75 76 72 63 45 35 34 34 32 34 34 36 42 45 46 42 41 40 37 39 38 40 41 34 38 48 45 46 50 50 46 42 46 54 55
62 66 72 75 74 80 85 80 75 74 76 77 78 63 44 41 39 37 34 36 31 33 40 41 42 41 39 37 37 35 34 33 28 15 38 42 43 38 44 44 47 61 54 49 50
60 68 71 76 76 82 82 76 74 72 79 79 77 60 47 45 38 34 31 32 33 33 39 42 41 40 39 35 33 32 34 29 31 38 43 39 37 34 33 21 41 44 47 52 54
63 66 70 73 76 82 80 75 76 76 84 80 79 60 50 43 33 28 25 25 28 28 35 39 39 39 38 35 31 29 26 30 28 29 31 27 26 28 25 22 26 32 40 42 48
63 69 68 76 78 81 80 75 77 75 82 82 77 58 47 36 29 24 21 20 23 23 30 33 35 37 34 30 31 26 28 24 30 32 31 25 20 29 31 46 48 31 45 43 43
66 70 69 78 80 81 80 76 78 80 85 80 74 58 43 33 27 20 19 17 18 22 23 28 29 29 28 27 26 26 28 28 29 32 30 27 28 27 28 35 48 47 39 36 32
65 69 72 78 80 82 78 78 79 81 86 82 69 55 39 27 22 17 17 17 19 23 25 26 24 21 24 29 28 28 27 29 26 27 22 24 25 23 23 27 28 30 33 30 30
67 71 73 80 80 81 75 79 79 78 86 80 64 49 31 25 20 14 15 16 19 25 25 26 27 28 33 33 31 32 31 28 29 27 22 21 27 30 32 32 31 30 30 29 34
68 73 76 78 77 82 77 78 80 79 82 76 60 41 28 23 17 13 15 17 20 24 25 25 27 33 34 32 31 32 32 31 30 28 28 25 24 25 28 28 30 30 31 33 33
72 76 78 78 80 80 79 79 79 79 77 74 53 34 24 18 12 12 18 20 21 24 24 25 30 34 34 33 33 32 30 27 29 31 33 31 29 27 27 26 28 29 28 29 35
75 76 78 79 83 75 76 79 78 78 75 69 48 30 22 14 10 9 18 22 23 24 23 26 34 38 38 37 31 29 29 30 27 27 28 32 32 31 28 28 28 27 29 30 33
77 75 79 80 81 79 79 76 78 74 74 62 43 28 20 14 10 11 15 20 24 25 25 30 33 36 33 31 29 27 27 26 26 27 28 31 32 31 30 29 29 29 32 33 34
79 78 78 78 78 78 80 77 73 74 71 53 38 23 19 15 12 14 14 17 21 25 31 33 35 34 33 31 28 27 27 26 25 25 26 28 27 26 29 30 31 32 32 33 33
80 79 78 79 76 78 78 78 72 73 66 48 32 22 20 16 15 17 18 20 20 23 29 35 34 33 32 28 27 28 27 27 27 26 25 26 27 29 30 28 28 28 29 29 30
81 80 81 79 80 78 79 79 71 71 59 43 28 22 21 18 16 17 20 23 26 25 24 25 30 31 30 29 27 28 26 26 26 23 28 23 23 25 25 22 24 26 27 27 24
81 81 79 78 82 79 78 79 71 71 66 43 28 25 22 18 19 18 18 23 25 26 28 31 27 25 25 25 26 26 27 28 27 24 23 23 22 22 18 17 23 22 20 18 15
81 76 78 78 81 78 78 78 76 65 59 39 27 26 23 20 19 21 23 22 26 26 25 24 25 25 26 27 28 29 27 23 24 23 19 18 19 17 15 20 21 18 15 15 15
81 81 78 81 81 78 75 77 73 69 58 34 25 26 24 21 20 21 22 25 25 26 26 24 25 26 26 25 25 23 21 22 20 19 17 16 19 14 19 20 17 16 14 13 14
86 85 81 81 81 76 72 75 74 69 50 30 26 27 26 22 20 20 21 23 24 25 27 27 26 24 23 21 20 19 18 19 19 16 14 13 11 11 12 13 12 12 13 14 16
89 88 85 83 80 74 73 75 72 64 40 28 27 26 23 21 19 19 19 19 19 20 21 22 21 21 21 21 20 19 17 16 16 14 14 14 14 12 11 11 12 15 17 19 22
89 85 83 83 77 74 72 75 70 52 36 28 26 23 21 18 18 18 17 18 18 18 20 22 22 21 21 20 19 19 19 18 17 17 17 15 12 10 11 14 17 20 23 26 29
89 86 81 82 77 75 73 77 65 43 31 28 27 24 22 22 23 22 21 20 21 21 21 21 22 23 22 21 21 20 18 17 16 15 13 12 12 14 16 18 19 22 27 31 34
90 90 84 82 76 75 80 74 50 42 32 32 28 26 25 25 25 23 21 21 21 20 20 21 22 22 23 24 23 20 20 19 18 17 16 18 18 21 22 25 27 30 34 36 40
96 88 85 79 79 77 68 55 45 40 34 33 30 29 28 27 25 23 22 21 19 19 20 23 24 25 25 22 23 22 21 21 19 19 20 22 23 25 27 30 31 35 37 40 45
89 83 79 77 65 61 57 47 45 39 37 34 33 32 30 29 26 24 23 21 21 21 23 25 27 27 25 25 22 21 22 23 23 23 24 27 28 28 30 34 37 39 42 46 48
83 78 74 66 61 56 50 48 45 43 40 37 37 34 31 30 27 24 22 20 21 22 26 27 28 27 27 26 24 24 26 25 26 26 28 29 32 33 37 38 40 40 44 46 48
74 68 62 53 58 55 48 46 46 43 40 38 36 33 34 32 29 26 23 21 23 26 28 28 28 29 30 28 27 28 29 27 29 32 32 33 37 39 43 43 42 45 46 48 51

GFSSW_250_spd_018.txt.gz
Wind_Speed
52 52 52 59 64 65 65 69 74 79 82 76 77 80 72 72 57 45 40 39 39 37 36 31 33 38 42 46 47 45 38 35 38 28 29 25 31 45 33 33 32 20 20 26 41
50 51 54 59 64 65 67 70 74 80 83 77 79 81 77 67 50 42 37 33 32 33 34 31 34 38 42 41 40 37 33 34 25 23 22 10 30 45 39 31 32 28 25 50 38
50 50 55 59 63 63 66 70 76 80 79 81 80 79 81 66 46 38 33 27 24 24 29 26 32 37 38 37 35 30 31 26 24 37 33 35 42 43 41 26 34 27 40 53 39
51 52 56 61 62 65 66 72 78 81 79 80 78 82 80 64 47 37 29 24 20 17 22 23 29 34 34 35 34 31 29 32 33 34 43 38 42 45 42 30 29 40 31 43 58
52 56 60 63 65 66 67 71 74 81 80 78 78 81 79 62 46 34 24 20 15 17 17 22 34 37 35 36 33 29 32 31 40 33 39 40 40 42 35 28 22 31 33 31 34
59 57 62 65 65 64 67 70 75 80 79 76 78 79 78 60 44 34 24 17 14 15 17 22 27 35 32 30 28 28 25 28 28 33 36 33 34 30 24 33 32 29 33 31 30
63 63 65 67 63 63 68 73 76 79 79 78 77 78 72 55 44 33 24 15 14 13 15 21 25 27 31 30 24 32 33 32 34 38 30 35 34 27 24 31 33 40 42 42 43
64 65 68 66 61 63 67 72 76 77 77 73 75 75 67 49 41 32 21 14 13 13 14 19 24 25 28 27 33 33 34 34 36 32 39 38 35 29 25 22 27 40 53 56 54
65 67 66 62 63 65 69 73 75 76 73 72 76 72 63 45 37 31 20 13 11 12 17 21 24 26 27 33 35 33 35 36 33 33 33 30 22 20 22 23 32 30 34 36 37
67 68 66 63 63 65 70 72 72 74 73 73 74 68 58 42 32 28 18 11 9 11 17 20 24 27 29 35 35 38 40 37 34 29 27 25 26 22 19 23 42 33 35 37 34
65 62 64 67 67 69 72 72 73 71 73 76 73 68 54 38 28 25 17 13 8 13 18 21 25 28 33 36 39 40 37 36 29 28 26 29 32 30 28 27 30 31 35 33 33
62 65 63 65 68 69 73 73 74 69 73 76 73 67 49 34 25 22 18 12 13 15 19 24 25 27 34 36 33 32 28 25 24 24 29 27 25 27 32 34 35 32 32 33 32
64 66 67 66 68 73 74 71 71 69 71 76 72 65 46 29 24 21 19 14 16 20 22 23 26 27 31 31 28 28 28 25 26 23 23 26 27 30 33 33 34 36 34 34 34
67 65 68 71 70 71 69 69 67 66 71 74 69 63 42 28 23 22 20 16 14 18 20 23 26 30 30 28 29 27 24 22 20 23 24 24 27 28 26 29 31 33 36 37 36
69 70 71 71 74 69 68 68 64 65 70 70 68 56 38 27 23 24 18 19 16 16 17 21 24 29 33 27 28 27 23 23 20 23 25 28 24 26 28 30 20 29 29 32 34
74 73 72 74 70 67 68 66 64 66 70 65 68 57 41 27 22 23 20 17 20 16 17 17 26 26 28 27 24 24 23 23 23 24 27 30 25 27 25 18 15 27 32 32 32
76 72 74 75 70 73 69 66 62 63 68 68 68 61 39 29 23 23 21 18 20 21 21 18 21 25 26 27 28 25 24 26 27 27 29 28 22 27 17 11 13 38 51 31 27
80 75 77 77 71 73 68 65 61 67 67 68 66 59 42 30 24 22 21 19 22 21 26 23 26 26 27 27 29 26 29 27 26 24 24 21 25 24 19 27 34 46 35 29 26
85 78 79 80 75 71 66 62 66 67 67 68 66 55 38 32 26 24 22 23 25 29 25 26 27 30 30 30 29 28 29 26 25 25 21 22 23 23 24 25 27 32 26 27 27
84 83 85 80 74 68 65 61 68 68 66 65 62 53 35 34 26 24 22 23 25 27 31 34 33 31 28 29 28 26 24 23 23 23 22 21 26 21 20 20 21 22 24 24 23
85 84 83 78 70 66 57 66 69 65 64 62 58 50 37 32 23 22 21 20 22 25 27 27 23 25 26 26 24 22 24 23 21 21 20 22 21 19 21 21 22 23 23 23 24
80 77 83 80 70 64 60 70 71 67 64 61 56 48 33 28 22 22 20 19 21 22 23 23 23 26 25 27 26 25 24 22 21 20 22 20 21 22 23 23 22 23 24 27 31
85 88 84 80 77 68 70 74 68 67 64 61 55 38 34 29 25 25 22 24 24 26 26 28 28 27 28 29 25 22 21 22 24 24 22 22 21 22 21 22 25 28 31 34 36
93 94 91 85 79 74 75 71 69 66 64 61 58 40 37 29 27 26 27 25 26 27 27 26 27 28 27 25 22 23 24 25 24 23 21 23 21 23 25 27 30 34 36 36 40
101 95 91 84 77 75 76 74 70 66 66 61 52 38 40 32 29 30 31 30 28 28 27 27 29 28 28 25 26 25 25 23 24 23 23 23 25 29 29 30 34 37 38 46 45
99 94 87 86 79 77 77 70 72 71 68 61 42 42 42 34 34 33 31 29 26 25 24 25 26 26 28 26 27 25 26 27 26 24 25 29 30 33 33 37 39 43 41 45 48
92 89 88 86 83 79 70 72 71 69 66 50 43 45 45 34 36 35 33 29 26 25 26 27 27 26 28 29 27 28 30 27 26 27 29 31 35 39 39 39 46 47 47 48 53

GFSSW_250_spd_024.txt.gz
Wind_Speed
54 59 52 51 50 49 49 51 53 58 59 64 62 63 69 74 76 76 77 65 55 47 33 27 23 26 24 17 22 30 35 39 37 28 29 33 37 44 42 41 43 35 33 25 28
52 56 55 53 49 50 51 50 52 58 59 64 65 66 70 73 78 77 76 63 52 43 30 21 20 22 20 17 31 34 35 32 17 19 23 26 31 35 37 31 20 23 31 26 25
56 56 60 55 53 51 51 52 56 58 60 66 64 63 68 73 75 74 75 60 51 39 27 20 19 19 20 21 34 41 35 20 16 21 24 33 36 37 29 30 27 32 31 29 32
55 59 63 59 57 55 54 54 56 57 62 63 64 61 67 72 73 75 72 55 46 34 24 19 16 16 19 28 36 36 27 22 22 31 34 38 40 33 25 35 42 37 30 26 22
57 56 62 63 58 60 54 53 54 58 60 62 62 59 66 71 68 73 67 51 44 30 21 18 10 11 15 26 28 26 21 24 33 37 36 40 42 35 33 47 39 40 36 32 23
60 58 59 68 61 55 54 56 55 57 58 60 61 58 65 71 66 70 62 49 41 27 20 16 8 10 19 32 28 20 21 26 37 37 33 41 42 40 41 42 47 38 46 46 43
64 59 56 60 55 55 58 54 54 56 59 60 59 59 63 68 65 66 59 45 37 27 20 16 10 13 24 33 23 19 22 28 34 37 32 41 41 37 42 45 48 45 48 52 45
64 61 59 56 58 60 57 51 54 60 58 57 57 57 62 65 64 65 59 43 35 27 20 15 10 13 24 31 35 30 30 36 38 35 29 38 31 35 35 36 37 47 42 49 49
64 62 62 59 57 59 59 54 53 59 56 55 56 56 61 62 61 62 57 36 30 26 22 13 9 17 17 22 27 33 39 41 34 38 36 33 29 26 27 30 32 31 34 47 53
63 63 58 54 59 60 55 55 55 58 56 54 53 51 57 61 58 61 54 37 32 24 21 11 7 20 23 22 28 33 35 45 36 35 35 28 25 25 23 27 28 31 39 49 50
62 63 64 62 60 58 56 55 57 58 55 52 53 54 56 60 57 59 51 34 29 23 19 12 6 17 25 26 30 36 34 41 39 38 33 28 29 25 23 27 30 30 38 52 57
63 58 60 64 64 60 55 55 55 58 56 52 53 52 56 58 56 55 51 36 24 22 17 13 11 14 21 26 29 31 34 37 37 35 33 31 26 27 28 30 33 31 40 49 45
63 63 61 62 59 62 62 58 60 58 54 50 52 53 54 56 53 50 53 35 21 18 16 13 11 11 18 20 23 24 27 38 31 32 32 28 30 29 33 34 29 27 30 28 31
67 67 67 60 60 60 61 57 58 57 52 51 53 52 51 54 50 48 49 37 20 17 13 12 16 17 13 18 24 24 25 34 30 27 30 30 28 30 29 31 34 33 36 40 41
70 69 71 68 66 64 62 59 57 57 47 52 53 49 49 50 50 45 48 43 26 16 14 9 10 13 16 21 23 27 30 31 30 27 30 28 29 28 27 31 33 34 35 39 41
78 75 69 67 71 66 65 64 60 55 51 52 50 48 46 50 49 43 47 46 30 19 16 13 11 11 14 17 20 26 34 31 30 28 25 27 28 27 30 30 32 34 37 37 40
84 79 74 70 71 63 64 63 56 45 54 52 50 49 47 49 48 43 43 44 29 21 19 14 10 11 12 12 16 18 24 26 26 27 28 29 27 28 31 31 32 32 30 35 33
90 84 77 73 72 68 67 63 45 49 56 53 48 48 49 48 47 41 42 43 28 21 23 16 12 14 15 16 17 26 23 27 29 29 27 28 28 28 28 31 33 33 27 28 30
93 89 83 81 76 73 72 61 47 54 61 56 49 48 52 47 46 38 40 40 31 21 23 19 25 16 18 18 23 24 26 29 28 30 29 28 26 27 29 31 29 28 25 26 25
96 93 87 89 83 80 72 53 52 60 64 56 52 51 51 45 42 36 37 41 33 23 24 20 26 26 21 21 22 25 28 28 29 32 32 29 29 29 30 26 23 29 26 24 25
100 97 89 94 87 83 70 53 55 62 65 59 52 51 52 45 43 37 36 38 35 25 23 23 22 25 26 21 25 25 30 27 29 33 33 30 28 28 27 26 22 24 23 22 22
103 98 96 98 89 79 67 58 59 69 64 59 56 53 51 49 48 38 36 38 36 27 23 23 21 22 22 20 23 26 26 30 29 30 34 30 27 27 26 22 22 22 25 25 24
106 104 102 105 92 77 69 62 63 72 63 61 54 54 54 51 51 43 36 39 36 31 25 24 22 22 20 20 22 23 21 21 26 28 30 29 28 23 24 20 20 24 24 25 27
115 110 103 107 88 83 76 67 68 74 66 59 53 53 48 46 45 41 39 39 31 25 27 24 25 20 21 20 20 21 22 24 27 29 29 31 29 24 22 19 21 24 26 28 30
120 110 100 98 92 82 77 67 67 73 64 61 53 48 46 44 46 41 39 40 32 25 24 23 27 23 23 22 22 24 27 28 29 30 32 29 31 23 21 22 23 27 30 31 33
117 108 100 91 89 88 83 72 75 74 65 59 51 49 47 47 43 41 40 40 35 29 23 24 25 24 25 25 23 26 28 30 30 30 32 31 27 21 19 24 30 33 32 35 38
111 109 96 93 91 88 81 68 72 76 67 60 50 50 47 50 46 42 43 41 37 33 25 27 27 25 26 26 26 27 34 30 31 31 27 26 25 27 29 30 32 35 38 42 44

GFSSW_250_spd_027.txt.gz
Wind_Speed
59 58 59 58 55 54 53 55 54 50 51 56 61 61 67 69 73 78 84 86 84 76 63 52 39 31 27 25 24 25 27 24 21 19 23 27 31 37 45 46 47 49 45 37 36
62 59 60 59 56 53 54 53 55 53 53 55 60 61 64 66 72 76 84 85 81 74 58 47 35 28 26 25 22 23 19 20 20 20 24 28 33 37 40 42 39 39 35 29 32
58 61 57 57 56 53 47 51 57 56 56 55 61 61 61 66 72 76 80 85 85 71 56 44 36 27 23 21 20 22 20 20 19 20 18 23 31 34 38 35 31 30 27 32 35
55 57 58 58 59 56 50 48 53 54 56 58 59 58 57 63 70 71 80 82 79 67 54 44 35 22 8 12 14 18 20 15 17 20 19 17 26 33 26 26 27 30 28 30 31
61 61 59 58 56 55 57 50 49 56 58 57 53 55 56 62 67 70 77 79 75 61 51 43 35 21 9 12 13 23 22 18 16 13 18 21 24 27 28 34 32 37 39 29 23
57 59 59 58 58 56 55 53 48 51 57 52 51 55 56 59 64 71 75 78 76 58 49 41 31 21 12 10 17 22 19 20 23 20 25 29 31 31 36 38 38 37 33 27 23
61 62 60 60 57 56 59 56 49 47 54 50 51 52 54 59 62 68 71 76 74 57 45 38 29 21 7 13 16 13 18 18 17 25 32 33 33 33 40 38 43 43 46 39 35
61 61 62 60 58 57 56 54 50 51 51 51 50 54 53 56 62 63 68 73 72 55 41 33 26 19 6 18 15 20 23 18 22 28 36 33 40 37 42 41 46 49 52 47 41
59 61 64 62 63 60 60 57 51 47 51 52 54 50 51 56 60 61 66 71 69 55 38 31 24 15 7 15 19 20 25 23 25 28 39 36 42 41 42 42 43 45 50 50 46
61 58 62 65 61 65 63 59 56 56 55 56 52 52 52 54 57 60 62 68 66 53 36 28 21 15 5 18 21 25 24 25 30 33 35 39 36 45 43 43 38 39 47 49 53
63 59 59 65 61 57 58 54 53 53 54 52 50 53 53 53 56 57 59 62 61 51 32 26 19 15 8 12 15 20 20 25 29 29 35 42 35 30 38 43 39 36 33 40 50
74 64 60 61 62 56 54 47 50 52 52 50 50 53 50 50 52 52 56 58 56 45 31 28 16 12 10 14 15 22 24 27 33 29 24 31 37 29 35 31 30 34 32 36 41
82 75 72 64 63 61 54 49 53 44 47 48 48 48 46 47 49 47 51 56 55 44 28 26 17 12 11 11 17 22 26 30 30 34 29 28 28 31 32 32 33 33 36 38 38
86 87 80 69 62 62 55 54 53 50 46 46 46 46 45 48 44 44 48 56 52 43 27 21 19 12 10 10 14 18 25 31 31 36 27 28 33 31 29 29 29 33 34 34 32
91 88 84 70 63 60 62 59 58 57 48 47 43 47 46 46 42 43 47 53 49 44 28 19 17 10 9 12 12 18 19 24 27 36 35 33 34 29 29 29 31 32 34 38 33
100 96 92 75 69 63 64 66 60 56 51 44 47 49 44 43 40 42 45 51 49 44 32 20 17 12 9 10 15 17 21 22 25 31 30 28 28 30 30 31 32 33 37 37 37
108 106 90 82 75 67 68 66 62 54 52 51 50 48 40 41 39 41 44 45 47 44 35 21 17 14 13 10 13 16 18 25 27 32 30 34 33 33 34 33 34 34 35 35 36
97 100 87 85 82 75 73 71 61 55 51 49 50 45 38 43 39 42 43 43 42 39 37 25 18 15 17 15 13 15 19 25 29 31 29 28 28 26 29 30 31 34 36 37 39
95 91 88 89 87 84 79 72 63 55 54 52 50 40 42 44 41 43 46 41 43 43 41 29 22 19 20 17 15 17 19 21 27 29 29 29 29 27 29 33 33 31 34 38 40
98 97 88 92 89 88 84 75 65 61 58 54 49 45 46 46 42 43 46 44 44 44 44 35 25 21 20 24 21 15 18 22 26 26 28 29 31 31 30 31 31 28 32 29 28
101 100 90 95 98 94 79 75 68 68 66 57 49 42 44 45 44 45 47 48 44 43 43 38 26 22 22 24 21 21 20 21 22 26 26 27 31 34 32 31 35 32 30 26 28
104 100 94 97 100 88 80 74 74 73 72 61 53 48 45 48 45 45 48 49 47 42 42 38 26 23 24 20 22 24 25 23 25 30 31 31 34 34 31 31 30 25 26 25 26
106 103 105 104 98 81 80 79 77 76 71 62 55 51 49 48 47 47 51 46 42 40 39 36 29 23 22 23 22 26 25 27 25 25 27 27 30 22 26 27 24 25 28 27 25
106 112 109 110 88 84 82 82 78 77 73 64 55 49 49 48 47 47 49 45 40 41 38 33 31 27 23 20 19 25 25 22 23 23 24 24 22 22 24 26 25 27 26 27 28
105 107 105 102 89 85 82 81 78 80 73 64 57 48 48 50 51 48 47 45 41 42 37 34 29 30 26 20 20 22 23 24 23 24 23 25 23 24 20 27 28 28 29 31 28
101 101 102 96 92 89 83 75 71 76 73 64 59 51 54 52 51 49 47 46 45 42 39 35 31 28 27 26 23 22 25 26 22 22 22 24 25 24 25 30 30 33 30 29 30
90 99 100 100 97 94 82 78 74 76 73 67 61 54 57 50 52 47 47 47 47 44 39 36 33 28 28 27 25 23 29 22 21 22 25 28 32 29 29 29 30 29 29 32 35

GFSSW_250_spd_030.txt.gz
Wind_Speed
62 61 62 63 59 60 59 58 57 56 56 56 50 55 61 65 67 69 69 76 84 83 84 85 71 60 52 42 31 24 18 18 18 19 20 25 29 33 35 41 46 48 51 48 45
60 60 52 53 57 53 52 52 53 54 56 54 49 51 60 61 65 66 71 77 81 83 82 85 70 60 52 37 23 15 14 17 16 15 17 23 27 30 33 38 41 43 46 45 38
59 59 57 59 58 52 47 48 53 53 53 53 52 50 56 60 61 64 70 75 75 83 81 85 70 60 49 30 9 5 12 14 13 12 18 19 24 26 28 32 34 32 30 31 31
65 65 65 63 63 60 60 56 53 54 56 52 51 50 56 55 59 61 67 72 77 84 81 82 70 58 44 23 10 5 9 10 14 10 15 13 14 20 22 27 31 30 28 27 29
70 69 67 63 65 62 51 50 54 58 55 52 48 47 53 56 56 61 66 72 76 79 81 81 66 56 42 21 7 6 9 9 14 16 15 17 21 20 23 28 31 27 27 23 20
59 61 56 56 59 60 59 58 58 55 54 50 52 50 54 56 55 60 65 68 73 75 79 77 61 51 36 17 9 9 10 8 11 13 20 16 16 21 27 31 28 26 26 28 26
48 49 48 49 49 50 54 53 55 53 57 53 52 48 52 54 57 61 63 67 69 72 75 75 56 48 33 12 3 12 15 15 9 11 16 17 23 26 29 29 28 36 31 32 21
54 53 53 48 51 51 53 53 58 59 60 58 53 55 53 57 59 59 60 64 65 67 73 71 51 43 27 6 2 5 14 14 15 18 20 20 26 24 28 26 40 37 37 37 29
60 56 48 45 45 48 48 51 54 57 59 61 55 55 56 53 53 55 57 60 63 63 70 66 47 38 22 4 5 5 13 11 11 11 19 23 26 24 25 32 36 37 41 43 37
64 65 59 53 52 50 49 52 48 51 52 53 54 49 48 49 50 53 53 55 59 59 66 63 43 34 18 8 10 10 7 8 11 7 16 22 27 22 25 31 33 39 41 41 40
65 67 65 60 56 55 50 53 47 49 52 45 45 43 45 45 46 50 50 50 56 53 61 61 39 29 18 8 13 9 12 12 15 14 21 26 32 32 29 30 28 36 43 44 44
68 71 69 67 64 64 63 53 51 50 49 48 41 43 39 41 45 44 47 48 52 51 58 54 37 25 21 12 10 13 14 16 16 19 14 29 32 37 31 27 32 26 35 44 46
76 72 75 71 73 70 65 61 64 56 49 51 44 47 42 44 42 42 45 47 49 49 58 50 41 25 23 12 13 15 16 15 16 20 17 23 31 33 33 35 28 32 35 40 34
83 81 80 77 82 79 68 67 67 64 55 50 47 46 42 44 40 40 47 45 43 45 53 49 49 26 23 15 10 11 14 18 20 21 25 21 19 31 34 29 33 31 31 33 37
98 100 101 96 99 98 83 76 72 70 53 54 48 44 46 44 39 42 45 43 40 42 50 50 50 26 21 19 11 11 11 17 20 23 26 29 26 25 25 31 34 32 33 34 36
120 116 110 106 109 101 91 82 76 75 63 54 49 49 48 47 42 43 40 38 38 40 46 50 45 35 23 21 15 14 14 16 21 24 26 25 34 31 27 29 30 31 31 33 36
105 102 100 107 112 106 102 96 84 73 66 54 52 51 50 46 43 44 39 40 37 39 45 49 48 44 25 23 19 16 17 20 21 23 25 28 29 30 25 25 28 32 34 36 38
99 98 94 95 103 95 103 97 91 76 73 62 59 54 50 45 42 41 39 37 37 40 42 48 47 44 33 25 23 17 16 20 23 24 25 27 28 27 27 28 32 33 32 30 33
95 92 85 91 96 95 94 93 83 70 67 61 57 57 54 48 44 42 41 38 40 40 43 44 44 48 41 25 24 21 14 15 18 21 24 25 28 26 26 28 30 30 30 33 35
93 88 83 87 95 96 92 80 75 71 70 66 59 58 51 45 43 43 45 42 40 39 42 45 46 50 43 28 24 20 19 16 19 22 22 25 28 29 26 29 31 33 36 37 37
96 89 81 86 97 98 83 75 73 72 71 71 64 60 54 47 47 43 40 39 39 43 43 45 45 45 42 29 21 18 23 22 17 22 26 26 30 32 32 32 33 36 38 38 38
95 85 86 93 97 89 79 77 76 75 75 76 66 60 51 49 47 45 38 40 40 43 42 43 47 44 42 30 23 20 23 25 26 28 28 30 37 35 36 35 36 38 39 39 37
90 83 93 98 94 85 75 77 76 78 75 73 67 61 55 53 52 47 46 42 43 43 44 43 45 43 40 31 25 20 19 22 31 32 30 30 35 32 38 38 39 38 36 32 32
90 93 101 95 81 83 79 75 75 76 74 69 65 61 56 54 56 50 45 45 46 43 43 42 43 42 40 33 21 21 22 23 22 26 27 29 27 23 26 28 29 30 31 30 31
89 89 89 79 78 80 79 75 76 77 73 66 63 60 58 55 53 51 47 47 45 44 42 43 45 44 39 34 24 19 23 23 22 24 24 25 27 26 25 24 30 33 33 33 33
86 81 81 78 83 87 82 71 70 77 70 60 59 58 59 53 53 51 49 47 45 43 44 45 42 44 42 38 34 20 21 25 28 26 25 27 29 29 26 24 27 31 35 38 38
77 76 78 77 82 87 78 75 72 73 67 59 60 63 57 56 59 56 52 46 46 45 45 42 46 51 47 38 33 23 30 23 25 23 24 27 30 29 27 27 30 34 38 37 37

GFSSW_250_spd_033.txt.gz
Wind_Speed
60 58 62 52 55 50 44 47 49 49 51 48 48 51 52 54 56 60 60 64 69 73 76 80 81 83 80 63 58 35 22 14 15 15 13 14 17 17 22 32 41 42 42 44 44
63 64 63 61 57 56 51 53 53 54 54 57 54 53 54 54 56 57 57 64 68 71 74 76 84 83 79 64 57 31 21 9 11 9 11 15 18 20 23 29 37 33 43 45 46
58 60 62 58 61 60 53 54 52 55 55 54 47 53 51 56 55 55 60 64 67 72 73 78 78 82 75 63 56 30 18 9 4 4 11 16 17 21 18 28 32 32 33 36 38
53 55 56 56 59 57 60 60 60 57 57 57 55 52 51 52 51 57 61 66 66 68 71 75 78 79 73 62 50 25 16 5 6 5 10 13 13 22 22 22 29 29 27 29 31
50 50 53 54 55 57 61 58 56 59 54 53 55 54 52 54 59 60 62 63 64 66 67 69 72 76 69 59 41 21 6 5 8 6 11 9 10 15 16 18 21 23 27 25 28
45 46 43 44 48 48 51 48 45 46 48 52 50 52 51 54 57 57 60 60 58 61 64 65 67 71 63 55 34 14 5 9 10 12 12 12 14 16 19 22 23 25 23 21 17
33 40 41 36 37 37 40 41 42 43 45 48 51 52 50 53 53 57 57 55 57 56 58 60 65 67 58 50 31 11 2 9 15 13 16 17 14 12 15 20 21 18 17 18 19
44 39 38 36 41 40 42 36 36 39 41 43 44 44 45 46 48 50 53 49 51 53 53 58 60 62 54 46 28 13 5 4 5 7 10 10 5 11 15 18 20 25 26 27 20
50 48 43 43 48 46 49 36 37 40 40 42 47 49 45 45 44 46 46 45 47 48 53 55 59 59 54 43 28 9 8 8 6 2 7 7 9 14 14 18 25 32 25 33 27
58 53 54 47 47 50 49 50 43 42 43 33 38 37 42 41 41 43 44 43 45 43 49 52 55 57 55 39 29 13 8 6 6 2 5 11 13 14 18 21 19 31 22 32 29
70 63 61 60 50 53 52 55 56 46 48 46 39 40 43 43 38 43 39 42 39 40 46 48 51 55 54 36 31 17 10 9 8 6 7 11 19 19 16 21 16 19 30 33 31
80 74 70 66 60 58 56 56 57 53 51 50 47 45 40 41 46 47 41 37 37 39 42 43 48 52 50 38 32 16 13 13 13 10 9 12 16 20 20 21 18 17 19 34 37
78 76 73 73 70 64 63 60 59 54 51 49 50 47 47 53 49 43 43 41 35 40 41 41 46 50 46 46 30 24 8 12 12 13 12 10 21 22 24 25 29 22 21 26 38
84 87 86 80 76 74 74 68 65 56 52 50 50 53 53 55 48 43 41 41 40 40 39 42 46 48 46 46 34 27 15 10 15 14 14 13 16 26 27 31 30 27 28 20 33
96 95 94 88 82 74 79 73 68 57 57 66 74 72 71 62 59 47 43 43 43 40 40 40 41 44 46 42 38 26 22 11 13 17 18 20 21 19 25 33 32 32 32 32 28
109 107 101 96 87 89 80 74 71 69 66 73 76 75 73 67 62 53 44 44 41 42 40 40 44 45 41 42 42 28 23 18 15 17 19 22 29 28 23 20 23 30 31 30 30
120 116 113 103 100 105 94 88 82 72 73 79 80 80 77 71 63 56 43 44 42 39 42 41 41 43 46 40 37 31 23 23 20 19 20 22 28 28 27 29 26 25 25 27 29
123 128 118 112 114 111 105 100 94 86 92 87 87 85 81 78 70 64 55 44 44 41 43 41 40 40 44 40 36 34 25 21 19 20 20 23 28 19 22 26 27 24 24 25 30
121 121 128 126 122 130 122 112 100 99 96 93 92 77 66 67 72 65 54 45 45 45 41 41 38 42 46 44 35 37 23 22 18 18 22 24 28 26 24 26 27 29 29 30 28
111 111 113 113 114 118 117 102 83 90 94 89 81 66 63 63 63 62 52 48 44 43 42 39 34 40 48 40 34 36 23 21 23 21 21 24 27 29 28 30 32 31 31 31 29
106 104 99 105 114 119 106 91 82 81 88 83 79 68 63 54 57 51 50 47 44 42 41 37 35 36 44 39 34 36 25 24 23 23 22 23 29 31 31 33 32 35 35 34 34
100 97 94 102 110 99 90 81 75 72 81 76 73 68 61 57 54 54 50 47 43 41 40 38 36 37 40 41 35 34 28 22 19 26 27 28 35 28 32 34 35 38 40 40 38
91 90 95 107 107 87 77 77 75 71 71 71 72 71 66 61 51 58 50 46 43 43 42 40 37 37 39 40 32 31 33 26 21 24 33 36 40 30 32 36 38 38 41 43 42
84 88 96 102 82 76 78 74 70 66 69 67 71 73 69 65 61 59 58 49 47 44 46 42 39 40 41 41 34 37 34 29 25 20 24 32 39 35 32 34 38 39 42 43 42
78 81 88 77 71 71 69 70 72 67 69 70 67 72 72 66 62 63 61 53 50 47 46 45 41 39 43 43 37 37 30 29 29 27 23 28 28 32 27 26 28 31 34 37 36
70 72 73 71 69 75 72 72 70 70 72 68 60 64 74 65 62 65 58 55 51 47 41 40 39 39 42 44 40 37 33 33 33 32 28 26 28 33 28 29 30 33 35 37 38
59 66 66 66 68 75 69 75 73 74 68 65 62 61 64 63 66 62 57 54 49 45 42 42 41 40 42 46 39 41 37 31 28 29 27 23 29 32 30 29 31 31 32 35 38

GFSSW_250_spd_036.txt.gz
Wind_Speed
52 52 52 54 49 52 58 53 51 45 51 51 52 48 47 49 45 55 56 58 59 60 64 68 69 74 72 74 72 59 49 33 27 21 15 13 14 16 16 21 30 33 42 50 56
48 46 46 49 52 50 57 58 53 54 55 46 47 46 50 45 55 57 55 58 58 60 60 65 71 70 70 69 67 58 50 32 23 17 9 9 12 13 19 18 22 29 36 44 47
48 48 47 47 50 50 51 52 56 51 48 53 51 51 56 55 55 53 52 53 55 58 60 63 67 62 67 63 60 54 44 27 19 9 7 9 13 16 17 20 20 24 31 40 39
44 46 49 46 47 46 46 46 48 49 47 49 52 52 55 53 45 47 47 51 54 54 56 61 57 60 58 65 56 54 41 20 6 3 3 9 11 16 17 16 17 20 25 32 34
43 39 42 43 44 46 45 46 45 45 47 47 47 46 45 42 41 45 47 50 51 51 54 52 53 58 57 65 54 49 32 14 3 2 4 3 4 14 10 12 16 17 17 20 22
41 35 34 39 42 43 44 39 43 44 45 46 42 36 40 39 39 41 47 49 49 48 50 47 50 53 55 64 50 46 28 12 4 3 4 6 9 12 13 15 17 20 16 18 18
48 44 39 30 35 41 39 36 34 29 29 35 37 32 36 36 37 42 46 42 41 43 45 45 45 48 54 59 46 42 29 7 2 4 6 10 13 13 16 19 19 22 17 13 17
57 52 48 44 39 34 37 28 29 28 35 28 26 31 35 37 41 38 37 38 39 41 41 40 42 45 53 57 46 40 27 13 9 10 6 8 7 10 16 14 18 18 18 21 9
62 60 55 49 43 40 39 35 35 34 32 33 35 33 29 29 28 27 31 35 35 38 36 37 40 44 50 56 47 38 29 19 13 8 2 6 3 6 9 18 20 16 22 25 12
67 68 64 59 54 50 44 42 40 39 36 36 42 37 33 33 32 33 28 32 36 35 35 37 38 41 45 53 49 37 32 17 9 8 7 5 5 8 16 20 23 22 29 30 30
75 72 70 67 61 57 53 49 45 42 42 41 41 42 44 39 34 34 36 38 38 39 36 39 38 43 43 50 47 38 31 22 9 8 8 5 9 14 19 23 28 15 25 29 22
79 75 73 75 73 68 61 59 53 47 47 46 42 45 45 45 35 33 37 44 46 40 39 40 40 41 42 48 46 40 30 31 15 10 8 8 9 11 19 24 21 17 23 23 20
78 77 76 77 77 74 70 64 62 54 52 51 43 46 47 44 34 36 47 50 49 47 43 40 41 42 43 44 47 38 29 28 29 11 11 8 9 13 19 19 21 16 27 24 32
79 76 79 80 78 78 78 76 72 66 57 57 52 43 47 40 38 45 55 57 58 52 46 41 40 40 44 44 43 35 29 23 29 18 13 10 10 15 18 18 23 20 22 21 24
93 87 83 84 77 77 77 76 74 73 68 60 57 48 53 47 49 53 56 62 60 53 50 39 41 39 44 45 42 45 33 21 24 23 18 15 16 13 16 21 21 23 26 24 20
92 93 91 89 85 87 83 81 75 76 66 60 62 56 55 54 53 57 61 59 62 60 57 46 47 40 45 45 41 45 32 24 21 23 22 21 20 18 16 16 21 26 27 29 28
105 101 101 95 95 95 92 89 87 70 63 65 65 63 63 58 59 63 62 62 66 65 63 59 49 44 46 45 40 42 32 27 20 21 24 23 24 22 23 25 22 25 26 26 29
117 113 112 109 106 103 101 96 91 73 74 67 67 67 69 66 61 69 66 67 64 62 59 59 63 52 42 44 38 41 33 30 20 20 21 23 28 24 25 26 25 25 25 24 27
124 123 119 115 119 116 111 111 89 84 82 81 78 78 74 71 71 73 69 66 70 65 55 55 67 55 38 40 37 38 37 32 23 21 22 23 28 25 21 23 22 24 25 25 27
110 116 121 126 131 132 131 124 106 100 97 92 89 83 82 82 82 81 75 69 61 52 51 54 61 49 36 37 35 38 38 30 27 23 24 26 28 28 20 25 26 25 24 28 30
105 106 103 117 132 141 132 115 109 112 106 98 98 92 90 86 84 84 75 60 57 60 48 50 54 49 36 35 36 35 33 30 31 24 24 27 30 30 22 25 26 28 30 30 32
99 96 102 111 117 119 110 101 104 107 116 109 107 99 97 92 87 83 70 63 61 58 56 47 44 52 36 35 34 35 38 36 30 29 27 29 36 33 29 28 31 30 31 31 33
88 94 99 108 113 101 96 93 94 98 104 105 108 109 101 92 92 80 72 62 54 59 54 46 39 43 36 35 33 37 40 37 30 28 24 28 36 36 36 35 36 35 34 36 38
82 87 93 97 95 94 90 89 89 91 93 96 97 102 100 92 82 80 71 60 58 61 48 45 41 41 39 36 36 39 38 37 28 26 29 28 32 33 31 36 41 41 39 39 40
74 78 79 79 81 85 82 85 84 81 84 91 89 86 87 81 76 70 61 59 60 61 54 50 41 43 41 37 35 36 40 39 35 30 26 30 28 34 28 28 34 39 39 37 36
67 67 70 72 70 73 75 74 79 80 80 82 82 83 79 73 68 66 67 62 60 58 61 54 49 45 42 39 34 34 41 36 35 31 28 30 29 33 28 28 31 33 33 36 36
60 61 63 63 64 64 65 73 75 78 77 78 83 82 75 68 68 68 73 72 68 60 59 53 49 47 44 37 33 38 41 38 38 33 28 28 32 33 33 32 32 32 33 35 37

GFSSW_250_spd_039.txt.gz
Wind_Speed
48 49 49 48 51 48 48 50 51 48 47 50 52 52 46 50 46 46 50 51 55 51 49 50 55 57 59 59 58 61 56 52 41 31 25 21 14 16 19 19 22 30 43 50 63
48 49 46 44 43 44 42 44 46 48 46 48 50 50 51 45 45 47 50 49 44 44 49 50 54 56 54 56 57 59 52 49 34 27 25 13 10 11 14 17 19 25 39 48 61
48 47 46 42 43 42 42 42 42 45 51 49 43 40 39 44 44 42 39 38 39 45 49 52 52 49 48 50 54 56 52 47 34 22 14 7 6 10 15 15 20 22 33 41 48
48 44 49 45 42 42 44 41 44 43 42 41 40 37 39 38 42 39 35 37 38 44 47 48 43 44 43 48 55 54 51 45 33 16 17 7 7 8 9 11 9 12 24 33 37
51 46 46 44 41 39 40 42 43 42 44 41 39 38 38 38 36 34 32 36 40 45 47 43 41 39 39 47 55 54 47 42 31 19 13 9 6 3 2 9 13 12 13 19 30
55 52 46 48 43 38 38 39 42 40 41 40 38 39 33 30 30 28 33 37 41 42 37 36 37 36 37 45 52 52 43 39 28 22 16 10 8 3 2 5 7 17 15 12 15
60 53 49 47 48 42 39 36 39 38 40 36 26 23 25 25 22 31 34 31 28 27 29 31 33 37 38 45 50 51 41 36 22 17 20 19 15 4 7 9 10 9 14 16 2
66 59 56 51 55 51 43 39 35 38 37 29 22 24 20 19 29 33 27 22 27 26 27 37 36 36 39 44 47 52 46 34 24 12 13 18 12 14 8 7 17 10 14 11 21
69 67 62 57 57 61 52 44 41 38 35 30 27 21 24 29 35 32 24 28 24 23 33 37 40 39 39 41 44 50 44 33 23 10 5 10 5 14 13 17 14 21 18 14 16
73 69 69 67 65 58 61 54 49 44 40 34 35 28 33 36 31 35 38 35 34 30 37 37 43 41 43 38 41 46 46 34 28 15 10 6 9 8 11 23 17 21 20 10 12
76 77 73 73 70 66 65 64 57 50 46 44 41 34 37 36 32 30 35 34 36 33 38 43 43 41 43 40 39 42 48 40 26 20 11 8 5 11 15 23 26 23 25 23 20
80 75 72 73 72 72 66 71 64 59 53 52 46 46 41 40 37 33 36 41 33 34 40 44 46 49 42 46 40 41 44 45 29 19 19 7 8 13 19 25 28 21 30 28 29
82 80 79 77 78 78 71 67 71 71 61 59 55 50 48 44 42 36 35 39 35 37 40 46 48 46 47 46 45 46 44 48 32 20 18 13 10 10 21 26 28 22 27 33 36
88 87 83 80 83 82 79 78 74 75 71 64 60 56 49 48 44 44 40 38 35 40 42 47 47 47 50 55 54 55 46 46 36 24 16 17 13 11 15 26 27 25 20 32 33
95 94 93 88 83 88 84 85 83 78 76 72 67 63 58 52 53 47 44 41 42 43 46 46 49 48 51 52 52 57 56 44 39 28 20 15 17 14 14 19 22 30 26 23 29
102 97 90 85 79 75 76 85 85 81 71 72 70 69 66 63 59 58 50 44 46 46 48 51 51 51 54 53 51 54 55 41 45 36 21 18 17 16 16 16 23 27 31 29 30
101 97 91 84 80 80 76 82 89 78 72 68 66 64 62 61 60 60 58 48 49 48 51 51 56 56 55 54 50 52 53 41 44 36 27 18 18 18 22 23 23 24 27 32 33
116 113 105 100 97 94 90 91 88 66 69 73 69 67 57 61 63 63 61 51 49 54 54 56 60 45 50 53 51 50 49 37 41 38 31 23 21 17 24 25 28 29 30 31 33
112 113 113 111 109 106 104 106 71 77 76 80 78 73 70 61 63 61 58 52 54 56 58 61 58 57 50 40 46 43 48 40 34 40 40 30 25 21 19 24 27 31 34 33 35
105 105 106 111 119 126 122 112 88 82 89 87 84 83 81 74 61 65 62 58 59 62 63 62 50 56 43 41 42 43 47 46 36 37 42 36 28 26 22 20 24 28 31 34 33
97 95 100 104 114 125 122 107 93 97 93 97 95 90 86 84 77 71 69 68 66 68 67 61 57 46 46 43 52 39 37 39 37 35 40 39 31 26 23 23 25 27 31 32 33
91 89 94 104 109 110 112 99 97 99 102 102 103 101 94 93 87 84 80 81 77 75 71 65 55 50 54 53 46 40 37 37 37 36 38 37 33 26 26 23 31 29 30 34 36
82 88 92 102 97 96 101 98 101 108 115 108 107 108 101 96 94 88 88 86 84 82 76 72 65 53 54 49 45 42 38 38 39 34 36 35 38 29 27 24 25 30 33 34 34
80 80 84 88 87 90 93 96 93 100 112 117 112 115 111 104 99 94 95 94 92 91 82 78 69 54 46 51 50 42 42 41 38 36 35 35 40 33 28 25 24 26 31 34 38
76 71 73 73 75 78 87 91 89 94 98 115 125 121 115 109 108 104 101 102 100 94 86 82 67 55 49 56 42 42 44 44 39 35 34 37 37 37 30 26 26 23 27 30 32
72 63 67 69 77 79 80 86 89 88 93 92 103 116 119 116 113 110 110 109 108 96 89 85 70 50 52 55 49 43 48 45 39 35 34 38 40 39 31 23 24 27 27 31 32
58 65 69 66 67 70 70 75 80 84 85 88 93 104 115 118 120 120 120 109 105 95 89 87 67 55 53 59 56 46 56 45 39 37 33 39 40 35 30 26 23 27 28 31 33

GFSSW_250_spd_042.txt.gz
Wind_Speed
61 57 56 55 57 53 50 51 50 49 44 44 47 44 43 41 41 46 44 42 35 40 41 39 42 46 48 48 50 49 51 46 43 32 17 8 4 13 26 14 26 35 45 61 48
63 58 57 56 53 53 45 47 48 42 43 41 40 42 44 45 45 43 33 34 37 41 37 38 40 47 48 44 43 43 46 44 40 30 29 20 15 20 26 27 10 27 24 44 58
63 60 59 58 54 46 46 45 48 43 39 40 40 41 37 42 44 37 30 34 39 36 33 38 39 38 42 37 38 43 44 41 39 28 25 21 11 3 19 14 7 24 27 33 51
66 63 62 60 53 46 47 45 44 45 41 42 42 37 34 35 32 35 31 34 34 30 34 37 32 33 33 34 37 43 46 41 37 27 22 20 7 4 5 20 17 31 36 31 53
69 68 65 63 54 51 48 46 42 46 43 42 41 42 33 35 31 30 32 31 26 32 33 28 26 31 33 40 39 44 44 42 32 22 26 15 24 16 10 6 17 22 34 35 42
67 68 70 64 59 50 49 45 43 45 44 39 35 35 33 34 33 31 23 25 28 29 22 24 25 31 33 41 36 42 46 43 30 17 19 16 11 25 17 35 5 10 11 14 24
71 72 75 67 66 56 55 46 44 42 43 38 35 35 34 26 25 18 22 26 29 26 22 24 23 30 35 38 39 41 44 47 30 10 22 17 7 11 7 22 3 6 11 17 13
70 72 71 75 70 62 55 53 44 46 43 34 31 24 31 23 17 15 24 29 34 29 29 25 29 30 32 38 43 44 50 50 40 16 8 10 6 10 16 7 5 6 8 18 22
71 72 69 71 67 67 59 55 50 47 43 44 34 26 28 20 15 20 33 33 29 29 34 33 32 31 32 37 39 46 52 53 48 29 12 5 10 6 11 13 12 14 13 7 10
70 71 74 70 70 67 64 61 54 47 49 48 44 33 32 31 26 30 40 36 29 24 30 29 32 33 36 38 39 46 53 52 50 42 23 3 10 5 10 13 16 12 10 9 10
79 69 72 71 70 66 66 67 62 56 51 51 52 49 38 37 31 32 43 42 34 30 31 28 35 36 35 39 39 47 51 55 52 45 32 18 3 18 14 13 20 12 9 13 12
83 81 78 74 71 72 71 69 69 61 55 57 49 61 51 46 38 37 40 42 38 34 31 29 34 35 36 39 41 47 49 55 56 44 41 22 14 11 20 24 23 22 19 20 19
84 84 80 79 76 76 73 73 69 64 56 59 57 57 63 48 48 44 44 46 43 36 35 30 34 36 36 39 42 46 47 49 55 48 44 25 12 13 19 22 29 22 21 27 24
89 89 87 85 84 81 82 80 70 67 62 58 63 54 61 57 48 54 51 51 44 45 39 33 37 35 37 40 42 42 47 49 55 47 43 31 15 10 13 27 34 32 24 35 29
94 95 92 91 86 91 85 82 80 76 67 63 63 55 62 62 61 59 58 55 49 51 44 42 35 39 38 39 42 43 47 40 48 46 42 41 22 13 14 19 31 36 35 35 39
100 99 97 94 95 94 90 84 86 81 64 61 62 66 67 62 62 70 61 59 56 52 49 48 41 40 39 38 42 39 47 44 37 48 49 40 39 22 13 20 26 36 37 35 39
109 107 104 102 103 105 100 97 95 81 71 68 68 65 71 68 67 69 72 65 62 58 56 54 44 44 40 41 36 38 43 34 33 47 45 40 40 35 24 17 20 27 36 36 39
112 109 107 102 105 106 104 101 100 76 76 77 73 70 74 74 67 67 73 71 68 64 60 53 45 44 42 41 40 34 36 31 39 45 53 42 42 36 23 24 16 23 31 35 37
114 117 116 113 114 115 116 110 88 84 82 77 68 60 64 71 67 64 63 61 60 55 53 50 47 48 42 44 38 34 39 32 37 36 40 33 40 37 27 23 24 21 25 30 34
111 111 112 114 118 121 116 109 86 82 79 73 73 67 67 73 68 65 62 61 59 55 57 56 53 51 45 36 36 41 40 38 40 35 43 35 38 36 32 30 23 26 24 27 32
105 104 107 109 115 114 112 108 97 93 89 88 76 72 74 78 73 70 69 66 65 61 60 58 59 60 50 46 50 44 36 46 45 34 43 38 38 37 40 34 25 27 24 25 26
96 95 102 103 100 99 100 102 105 103 102 99 92 85 81 86 86 76 75 70 74 72 60 64 69 67 57 52 54 46 43 47 44 40 40 40 37 38 35 34 31 32 27 24 27
86 89 91 95 87 85 89 94 98 96 98 105 107 98 89 93 94 88 83 81 84 81 77 70 68 67 62 59 57 49 41 49 48 39 35 41 41 39 36 37 30 31 31 27 27
87 87 86 83 79 79 78 79 87 88 90 98 112 108 97 99 99 93 90 89 90 85 82 81 73 69 65 62 60 60 55 40 41 43 40 38 43 41 41 40 35 28 32 33 30
80 73 73 70 67 68 77 77 81 82 82 90 100 102 102 106 104 97 92 94 96 89 85 87 79 78 72 64 65 63 64 43 41 44 38 42 42 39 43 36 33 30 32 33 35
72 62 62 60 67 70 67 67 72 77 79 83 91 96 105 109 108 104 101 97 98 95 92 91 84 84 77 71 70 69 66 49 42 46 44 39 45 40 43 38 38 34 30 29 29
68 63 58 58 65 64 55 59 65 74 75 79 88 97 102 111 115 114 114 103 99 100 101 98 89 87 82 77 74 71 66 44 50 49 53 47 47 42 44 42 35 34 30 29 28

GFSSW_250_spd_045.txt.gz
Wind_Speed
60 61 62 60 62 63 60 58 59 56 49 50 48 46 40 40 39 41 39 40 40 37 30 31 37 37 40 35 34 37 39 43 43 38 29 11 14 21 20 11 12 26 29 27 30
59 65 64 64 62 64 62 61 58 55 50 50 39 40 40 36 36 37 40 41 40 34 30 30 32 31 37 36 32 34 38 37 41 32 18 7 12 17 19 14 15 25 34 42 39
62 58 65 63 62 65 65 60 56 56 52 48 44 39 41 39 32 34 31 32 32 29 27 30 28 32 26 28 27 32 39 40 36 30 5 6 17 11 8 5 21 34 37 42 48
65 62 60 65 64 64 66 62 60 57 49 47 45 45 42 41 35 35 28 27 25 25 28 24 30 19 26 25 25 38 46 44 36 18 6 13 20 15 10 13 22 29 27 39 44
61 62 66 64 66 65 66 63 57 56 47 42 42 41 42 41 33 31 27 24 25 22 19 23 22 20 22 26 28 35 44 51 40 12 9 25 20 13 7 12 19 21 31 33 43
63 64 63 63 68 67 68 67 62 60 53 42 38 37 40 41 30 31 26 27 20 19 25 22 20 18 28 29 28 34 41 48 44 25 21 8 22 18 9 8 18 16 19 27 32
61 64 62 58 67 66 68 68 65 60 54 49 39 37 40 41 30 32 28 19 20 25 24 21 20 26 28 26 27 32 40 43 46 38 21 8 5 4 7 15 9 4 7 6 11
66 63 64 65 63 65 66 66 64 62 58 56 43 33 39 38 22 27 21 20 18 23 26 25 23 23 23 26 27 30 38 41 45 42 28 16 6 9 6 10 8 4 11 8 9
62 63 66 66 62 67 68 66 66 61 63 61 47 35 37 30 29 23 24 23 19 31 29 24 24 22 25 27 28 32 37 43 41 43 39 23 17 17 9 9 7 7 11 8 12
63 66 66 61 63 67 67 73 67 66 58 60 44 38 35 37 32 30 25 22 20 33 37 31 28 23 23 26 29 32 36 40 44 38 39 35 17 26 19 6 13 11 13 4 6
70 68 66 62 63 62 68 71 68 61 54 58 52 43 40 40 40 40 37 33 36 36 36 34 34 22 26 30 30 33 35 36 44 41 40 39 28 16 19 10 15 14 16 13 12
76 76 71 67 66 71 69 70 69 63 62 58 50 48 52 43 42 45 47 43 40 39 34 35 31 23 26 29 30 34 34 37 39 44 46 38 37 16 20 25 16 23 25 12 15
75 79 73 71 72 76 71 70 68 66 64 58 57 50 56 46 46 47 50 50 46 39 37 38 32 31 27 27 27 32 37 37 39 41 41 45 35 24 14 18 24 30 27 22 20
78 80 82 84 79 81 82 82 74 66 62 56 63 51 55 49 44 56 49 57 50 50 46 42 40 39 38 32 29 29 36 35 36 39 38 46 34 28 20 12 26 36 31 32 30
79 79 83 83 89 85 84 89 84 77 73 66 63 54 58 55 53 57 53 53 54 56 50 49 46 48 42 41 34 26 35 35 39 34 35 41 36 33 26 17 12 26 33 23 27
90 85 83 87 89 91 91 89 87 82 68 69 62 60 59 57 57 61 58 55 55 59 54 54 54 50 47 44 38 27 33 33 37 31 29 39 46 33 31 23 15 13 41 37 28
97 96 93 90 94 92 94 92 93 85 74 72 67 59 64 63 64 63 63 59 56 57 57 58 59 55 49 50 43 36 33 32 36 32 33 36 40 33 35 32 19 19 18 29 43
106 103 102 99 101 95 98 99 94 79 76 77 72 69 63 65 66 68 62 60 60 64 63 56 58 60 58 47 47 38 35 33 35 34 33 38 41 42 33 34 29 19 18 22 26
108 109 106 108 109 106 105 102 87 85 83 87 87 82 75 70 70 73 69 65 64 63 64 60 58 63 59 57 47 38 41 41 38 36 32 39 41 38 35 33 35 26 17 18 24
109 108 112 114 115 115 115 99 87 86 90 95 94 88 88 84 78 78 77 71 69 67 66 58 56 61 54 53 43 39 46 42 34 32 33 39 38 37 39 36 30 30 27 25 18
105 111 115 116 114 114 112 109 104 99 100 106 97 94 90 83 80 78 72 72 68 61 63 61 57 55 57 51 48 47 47 47 39 32 32 40 41 31 31 38 39 32 32 29 27
92 97 107 110 111 104 105 111 112 113 113 112 106 98 93 92 91 86 77 76 69 69 68 63 61 58 56 53 53 51 49 51 46 37 37 36 40 28 32 34 47 41 33 28 29
85 90 94 98 94 93 97 103 107 106 108 106 109 111 108 106 102 86 78 77 75 76 74 70 66 61 60 56 54 53 55 56 52 44 34 28 40 34 30 35 40 42 37 30 30
83 85 85 84 85 84 86 90 90 97 95 102 105 111 110 108 103 94 81 83 81 74 78 77 73 65 61 64 64 59 56 56 57 47 36 36 41 37 30 33 37 42 40 37 31
78 72 75 74 72 80 78 82 86 87 89 86 88 99 107 113 106 95 91 87 86 85 80 88 76 69 67 70 72 67 62 56 55 51 50 34 31 38 35 36 39 40 46 41 30
74 66 68 70 72 76 74 71 75 77 79 76 78 93 99 100 100 102 104 97 93 90 87 88 79 74 76 75 79 74 68 60 55 51 51 46 43 37 40 42 43 38 44 41 38
69 62 64 63 67 70 61 59 66 77 75 73 78 80 83 83 92 102 111 109 101 98 94 90 91 89 81 81 80 79 70 65 61 59 55 53 44 40 40 39 44 40 42 40 39

GFSSW_250_spd_048.txt.gz
Wind_Speed
73 71 70 68 63 58 58 58 56 54 58 59 60 53 43 41 42 40 35 32 32 33 33 38 39 36 34 33 33 33 32 35 43 37 38 38 28 29 29 25 48 45 43 37 49
77 74 69 68 61 60 58 60 58 55 56 58 59 53 43 41 43 43 37 30 33 32 34 34 33 32 29 27 27 28 27 31 36 34 31 32 16 25 30 28 34 48 36 42 47
79 74 70 64 59 60 59 54 62 58 56 58 56 55 49 48 45 42 39 31 29 28 26 25 25 28 25 26 24 23 29 32 35 33 30 30 14 20 27 33 32 32 29 36 54
75 72 65 63 63 60 61 54 53 59 54 57 57 54 54 45 43 40 41 35 26 26 20 20 26 22 23 22 25 28 29 33 34 33 19 21 13 22 21 32 34 33 28 37 42
67 64 57 61 62 64 63 58 53 55 57 56 55 53 47 40 35 37 40 33 26 20 20 21 20 21 18 20 27 25 26 31 31 31 29 19 17 19 28 33 22 22 31 33 31
61 62 69 59 64 64 57 54 57 54 58 54 55 53 47 48 34 35 39 34 29 22 19 21 25 27 20 20 22 26 23 28 33 29 34 24 24 31 30 16 16 24 30 29 31
67 59 67 63 67 69 61 55 56 53 56 56 55 55 55 52 35 34 35 36 33 24 21 22 22 19 16 21 20 21 26 27 38 26 32 32 15 29 24 26 22 15 19 16 10
70 70 70 69 68 67 66 63 59 43 48 50 54 56 55 48 35 36 35 32 30 27 20 23 22 19 19 17 19 22 29 28 32 38 29 37 34 20 27 25 22 14 14 10 11
61 70 73 71 72 66 67 62 59 46 47 48 51 56 55 47 43 33 37 26 29 28 22 20 20 18 19 21 18 20 28 29 32 39 30 32 34 22 28 25 26 13 16 12 12
57 57 64 59 61 62 60 61 56 54 47 44 44 45 52 46 46 37 32 32 33 33 33 21 31 31 28 25 25 19 24 29 35 33 38 30 33 31 21 28 28 11 9 8 9
58 59 55 55 56 51 55 57 57 53 51 47 47 50 52 49 50 40 36 36 31 32 34 28 33 41 28 26 23 21 21 28 32 32 35 27 31 33 23 20 18 14 15 12 11
60 62 63 63 62 61 56 57 56 52 49 53 54 55 57 52 50 46 42 36 38 41 40 38 43 39 35 29 27 26 23 27 30 33 35 33 34 35 25 14 19 19 23 14 16
69 66 68 66 68 66 62 60 61 57 49 48 51 51 59 51 53 53 47 43 44 45 41 40 47 35 35 31 34 33 31 29 30 33 37 39 36 34 30 18 15 18 23 23 18
76 71 71 74 69 72 69 68 60 53 57 55 50 52 55 51 48 60 51 52 48 43 45 40 45 43 38 37 38 41 38 32 32 34 35 36 36 39 35 23 11 14 23 29 26
75 81 77 77 77 77 73 75 72 67 51 59 55 50 55 56 59 60 59 52 46 49 46 46 46 45 47 47 42 43 39 31 30 34 32 31 36 30 40 28 18 13 17 33 32
79 76 73 82 80 72 73 78 74 74 57 57 63 63 59 59 63 62 56 52 54 49 44 51 50 45 50 51 47 44 42 34 32 34 32 32 33 31 33 29 27 20 14 18 32
89 84 78 81 81 77 77 75 73 68 67 69 65 71 74 72 69 64 60 54 53 48 47 55 53 53 51 51 49 51 43 38 40 39 34 31 32 31 31 29 26 25 19 15 20
91 92 89 90 84 80 81 79 73 68 68 73 78 71 71 72 73 68 62 56 54 52 53 52 56 55 52 51 52 55 49 42 41 42 36 32 32 27 27 25 26 32 26 20 16
96 96 93 97 95 91 87 79 73 71 72 80 79 82 81 80 79 79 70 66 61 58 56 58 55 63 59 57 53 50 48 46 44 44 36 34 33 28 28 26 27 27 30 24 18
97 97 97 103 99 100 93 84 81 79 83 88 83 78 80 84 81 77 71 63 60 60 60 61 58 62 62 61 56 52 49 47 44 45 37 37 33 33 29 26 30 28 30 28 22
87 93 104 101 100 103 86 83 91 92 94 97 90 85 84 82 81 79 75 73 73 70 66 65 60 66 65 58 57 54 46 43 45 46 40 40 37 35 27 26 29 32 35 36 24
82 79 91 96 98 94 90 94 100 104 104 100 99 95 91 88 84 79 76 80 78 76 70 70 69 69 65 66 58 53 46 48 48 46 45 40 41 38 31 28 26 27 32 36 33
79 77 83 86 81 88 96 103 104 103 101 103 101 98 103 100 92 87 85 84 80 79 76 76 70 68 64 60 55 48 51 53 51 51 48 41 46 41 34 29 26 26 28 32 38
78 74 73 74 75 80 86 92 99 106 105 100 101 107 103 101 99 95 89 88 86 86 82 80 75 67 62 60 59 57 56 54 54 52 46 42 47 47 42 38 29 23 30 29 33
68 62 67 70 72 77 82 85 91 98 98 102 107 110 108 104 107 100 100 100 101 93 86 80 76 75 66 68 65 61 61 58 53 50 52 51 46 44 41 40 34 29 26 31 32
58 57 63 65 70 72 75 76 82 82 86 88 93 106 100 104 110 113 109 106 103 99 97 95 90 81 76 71 68 70 64 62 61 56 55 55 52 48 43 46 42 37 32 28 35
54 57 60 62 64 66 61 71 77 79 80 82 85 85 88 96 103 107 108 107 104 100 98 97 90 87 80 76 77 75 62 66 66 67 64 59 55 57 51 47 47 43 37 27 34

GFSSW_250_spd_051.txt.gz
Wind_Speed
95 93 92 88 86 77 75 70 69 63 64 55 53 49 50 52 52 52 42 35 38 38 38 36 31 31 32 36 37 38 32 36 41 47 48 40 28 31 21 20 24 23 32 30 31
96 93 93 88 88 86 81 71 72 67 64 58 51 50 48 52 53 51 43 34 39 40 36 34 32 28 31 32 33 29 25 37 37 43 45 39 32 24 20 22 25 24 38 29 36
102 100 97 94 99 96 86 79 72 71 63 56 50 52 46 52 53 52 46 42 38 40 38 31 30 26 24 26 26 25 26 34 33 38 37 35 32 19 20 23 25 25 33 35 45
109 99 95 93 97 98 92 85 73 66 64 57 50 46 50 48 51 53 48 40 33 38 35 26 24 22 24 23 24 25 28 29 29 33 32 27 29 16 25 23 28 33 44 38 38
110 106 95 102 96 93 91 85 77 65 61 55 53 47 44 46 54 48 50 42 36 36 34 25 24 28 27 24 26 27 23 23 29 31 37 33 27 21 23 29 25 36 44 43 46
95 91 106 96 93 86 76 68 64 63 63 57 51 44 44 51 50 46 50 42 38 30 35 24 25 25 26 28 29 23 19 25 29 31 33 34 31 24 21 26 27 25 36 50 42
91 96 87 88 72 60 59 60 57 62 58 56 53 51 45 54 47 51 50 42 41 29 35 26 27 25 29 27 19 19 20 24 23 30 33 39 33 25 20 25 33 29 29 19 47
65 61 60 60 60 61 62 60 60 57 53 55 50 50 49 48 47 53 50 46 38 33 32 28 29 27 28 22 19 14 18 24 23 29 37 39 35 29 27 19 23 24 29 26 17
51 52 55 57 61 62 62 59 56 55 51 55 50 42 48 45 49 51 53 47 37 34 30 30 31 27 27 22 17 15 24 27 25 25 34 37 36 33 30 27 17 16 25 22 16
49 48 52 60 63 66 63 56 61 56 56 52 52 51 47 42 45 48 51 46 39 35 29 30 33 28 29 24 25 22 23 22 24 24 31 40 42 39 32 31 22 12 16 18 18
46 47 48 52 65 69 71 65 63 54 53 50 47 49 50 43 42 45 49 46 41 38 34 33 40 39 26 28 34 32 28 24 25 25 35 36 40 40 37 36 27 18 12 17 15
47 46 49 59 53 62 71 73 67 58 58 60 55 52 55 48 42 41 42 42 40 41 40 31 42 39 34 37 37 40 30 27 31 31 36 38 38 40 39 42 32 19 16 20 20
52 56 56 54 52 47 54 57 58 52 47 50 53 51 55 46 47 46 46 47 44 44 45 40 41 33 36 40 43 40 31 27 33 33 32 30 37 40 40 38 35 24 16 20 24
53 58 55 57 59 55 53 57 52 51 45 48 49 52 51 50 46 56 51 50 46 50 51 41 43 41 42 39 36 37 33 27 33 30 29 33 37 40 41 37 37 28 21 15 22
57 58 61 66 63 62 57 56 58 56 52 56 52 49 49 50 51 53 53 48 47 56 47 50 51 49 42 43 35 45 38 36 37 32 29 31 34 39 38 34 31 30 26 21 13
66 65 63 71 67 66 68 64 63 61 55 60 60 52 57 55 54 51 44 47 52 49 51 55 58 50 46 46 41 45 37 43 43 37 33 32 35 33 38 33 29 31 32 26 21
74 73 71 71 73 68 73 73 66 60 59 64 64 61 56 58 58 57 46 50 56 55 57 59 55 53 50 50 49 46 41 38 37 38 38 34 36 35 34 33 34 32 30 30 25
80 79 75 81 79 76 75 75 72 65 70 69 69 68 67 64 58 58 52 51 60 60 61 57 53 54 51 49 52 46 43 42 40 39 43 35 36 38 33 28 32 32 32 34 32
79 81 85 84 83 82 75 68 68 71 71 77 78 77 74 73 68 62 60 61 62 62 64 61 57 57 52 47 47 46 42 47 43 37 37 35 35 36 33 30 30 33 31 31 33
76 75 83 90 85 85 84 74 70 69 78 73 70 69 67 69 69 70 69 66 68 71 74 70 64 60 56 51 45 46 48 47 47 44 40 40 35 37 34 30 28 30 28 31 28
76 74 77 83 85 87 79 79 82 81 80 81 82 75 71 71 72 71 73 74 74 73 70 72 67 65 60 51 47 50 50 50 51 46 42 43 39 42 36 34 30 31 31 31 25
77 72 75 79 76 77 84 85 84 89 88 86 84 82 79 77 76 73 73 77 77 77 74 74 73 69 60 58 52 50 46 48 47 48 40 42 37 44 41 37 33 33 32 25 27
70 67 75 77 67 68 77 93 95 92 90 93 89 84 82 82 79 77 77 78 79 77 77 73 69 63 63 63 58 53 54 53 53 51 46 42 41 46 46 38 38 35 35 34 30
65 61 64 66 65 72 74 81 95 99 97 98 93 88 88 92 85 84 86 88 88 83 79 76 72 67 64 67 64 58 60 58 56 52 48 44 42 51 46 42 38 34 35 33 26
55 55 60 63 66 73 75 81 81 90 103 104 97 95 93 90 90 89 88 88 90 89 88 81 77 75 70 69 67 65 64 60 54 51 47 45 45 51 48 43 40 34 32 30 29
50 52 58 64 69 70 70 73 77 83 87 96 105 103 100 100 98 95 95 96 95 93 89 88 82 78 72 73 75 71 63 62 61 55 48 55 48 46 46 43 45 43 42 35 40
50 52 55 59 65 64 64 71 74 78 85 89 95 96 107 109 106 106 103 100 97 95 94 95 90 84 81 81 75 70 64 68 66 61 54 55 56 55 54 53 48 49 45 43 43

GFSSW_250_spd_054.txt.gz
Wind_Speed
92 91 97 94 90 89 90 89 89 86 86 85 79 74 71 65 59 56 55 52 50 45 37 34 39 41 37 29 27 29 32 32 32 36 41 43 44 43 39 34 28 27 21 23 24
90 96 97 91 90 92 96 95 91 89 83 84 76 76 72 66 63 57 52 51 50 43 39 39 38 41 33 28 26 26 26 25 32 35 32 43 44 42 41 30 25 23 24 22 20
102 103 102 101 101 97 94 94 99 98 93 88 85 83 80 68 65 56 51 48 48 46 38 36 35 38 29 26 25 23 24 26 28 27 33 42 41 41 38 30 23 22 23 24 25
108 107 106 102 104 102 98 91 95 96 100 94 87 83 76 70 68 56 51 46 45 46 39 37 34 34 26 26 23 25 23 25 27 27 31 31 39 39 38 30 24 26 24 23 28
110 112 112 110 108 102 98 91 89 89 92 86 90 89 79 69 68 55 45 47 44 46 38 38 32 28 25 28 28 24 25 26 24 21 24 30 40 38 36 36 23 20 23 23 27
108 111 110 98 94 84 83 86 94 91 83 89 87 71 68 63 65 53 45 47 44 42 40 37 30 29 24 26 25 24 26 19 21 21 29 31 37 43 39 34 30 25 23 22 15
106 105 98 103 75 69 70 70 76 80 76 71 73 60 57 64 58 52 51 47 44 43 44 38 31 31 22 25 26 30 19 14 16 22 25 27 33 42 38 33 31 25 19 18 22
98 95 76 68 59 55 57 55 54 57 61 54 54 55 56 60 56 52 49 45 47 45 38 37 34 31 23 26 28 26 20 16 18 22 24 26 31 37 43 38 33 29 25 22 20
97 87 71 58 50 44 41 42 51 53 50 48 49 51 55 56 56 53 55 47 47 43 40 38 36 31 26 26 29 24 18 19 26 22 22 28 32 36 37 45 37 34 25 25 19
89 74 61 49 43 37 37 41 49 48 52 53 50 48 53 55 51 52 53 47 46 46 44 44 39 34 28 26 29 23 22 25 29 26 25 29 30 34 39 42 44 33 28 22 17
78 64 55 45 39 36 39 43 47 47 53 49 47 46 54 53 49 51 51 49 45 47 46 46 41 41 28 27 27 30 29 29 29 23 27 27 32 31 35 42 40 34 32 25 14
68 60 51 43 40 38 39 48 52 50 47 55 52 50 55 59 53 50 47 47 43 47 47 41 46 43 30 29 34 32 30 32 31 27 30 26 27 29 32 37 39 37 36 28 21
63 57 51 45 40 41 43 49 55 55 52 56 57 55 64 56 51 51 54 52 44 44 45 44 49 42 35 35 41 38 37 29 28 24 27 29 27 28 30 31 35 35 37 32 21
62 56 52 48 43 43 44 48 56 60 58 63 54 57 54 54 47 56 50 55 45 47 48 41 46 46 42 37 39 37 32 32 23 24 30 30 31 27 29 30 33 31 36 33 29
61 57 54 52 51 50 51 53 57 55 55 67 59 59 60 61 59 60 59 57 45 50 48 43 52 50 44 45 37 49 32 33 28 25 33 34 35 36 32 27 30 30 29 37 31
62 59 56 58 57 54 60 56 52 52 42 55 63 65 65 52 55 62 59 57 58 52 45 48 49 44 50 47 42 44 40 40 35 31 31 29 34 38 32 27 28 27 28 33 35
65 62 60 62 62 60 61 57 55 52 52 54 53 59 62 54 54 59 55 56 59 57 50 53 50 48 52 50 48 50 50 44 36 35 32 29 32 34 33 30 27 25 28 29 31
68 65 66 68 69 65 65 61 59 66 64 55 60 60 62 61 63 59 54 55 55 59 57 54 54 53 55 56 56 56 54 46 38 36 36 33 31 37 34 31 27 26 28 27 26
71 69 69 72 71 71 70 66 60 69 72 68 63 68 67 66 68 65 60 59 57 53 54 52 52 54 53 55 55 53 50 48 32 29 34 34 32 35 31 28 32 28 28 29 28
71 69 68 71 70 70 71 68 66 69 75 72 72 68 69 69 73 70 69 66 65 57 57 52 50 51 53 51 53 56 52 43 36 32 32 33 37 41 38 29 33 34 32 30 29
71 68 69 72 68 64 61 70 72 73 79 80 76 76 72 72 71 73 73 70 66 63 66 58 52 60 62 59 59 58 52 48 42 39 31 35 39 44 36 33 34 38 37 34 30
72 65 70 74 67 59 60 66 77 84 80 82 78 78 81 77 77 78 76 76 72 68 67 67 58 57 56 61 64 61 59 54 40 36 35 36 35 44 40 35 35 37 38 36 33
67 63 64 71 59 56 63 67 80 86 83 83 82 77 74 80 78 83 85 78 76 76 72 70 63 64 66 66 64 63 63 53 51 44 36 38 36 51 44 39 40 40 41 38 34
58 57 57 61 59 65 69 72 74 83 89 85 84 84 79 78 79 75 71 71 70 68 67 76 73 73 73 74 70 61 63 62 59 50 45 42 44 54 51 41 47 45 41 39 34
51 51 52 52 61 67 70 74 76 78 83 92 88 88 88 86 82 81 81 75 75 74 71 71 72 71 70 72 69 65 67 67 63 55 53 47 47 52 51 43 48 44 40 41 39
47 48 47 52 59 58 63 68 74 80 79 86 96 95 90 88 88 86 84 81 79 80 78 76 75 72 72 70 69 67 67 65 63 60 60 51 50 56 55 47 45 40 44 45 46
43 43 43 49 50 49 57 68 74 76 78 82 89 93 97 94 86 87 85 83 83 82 80 79 80 80 77 76 75 76 78 77 70 67 64 58 51 56 54 52 48 46 48 48 46

GFSSW_250_spd_057.txt.gz
Wind_Speed
78 79 82 84 85 88 87 87 86 89 90 83 83 81 82 86 82 74 64 66 66 62 58 49 51 37 33 36 35 38 29 25 26 25 28 30 34 40 40 36 32 30 22 19 19
84 87 87 88 90 93 92 96 93 89 91 91 86 84 75 88 82 77 75 72 67 65 60 51 51 36 35 32 34 34 25 22 22 24 25 29 33 33 37 34 34 30 21 19 19
90 88 89 89 94 100 100 99 99 97 91 88 84 83 85 85 87 85 76 74 69 68 62 52 48 38 31 31 32 30 22 22 23 21 25 19 27 32 37 37 36 31 23 22 22
92 92 97 101 101 101 104 105 98 97 90 80 84 87 84 80 82 80 82 78 79 71 56 49 46 38 32 31 30 26 19 23 25 22 23 25 29 30 34 37 39 38 27 20 19
96 98 101 103 101 99 97 93 91 87 75 73 69 79 82 83 88 80 77 75 73 69 57 48 42 37 32 32 28 22 21 25 24 24 22 23 24 29 33 37 43 38 32 20 21
98 97 104 99 98 94 86 78 83 69 66 61 63 63 63 73 79 72 67 70 65 58 49 41 37 37 33 28 27 21 19 22 26 20 18 22 22 27 33 36 40 40 33 22 22
102 107 100 95 99 91 76 79 68 53 58 53 51 56 57 63 69 66 64 60 61 58 49 38 35 38 33 27 25 21 20 25 25 21 18 23 21 27 29 37 41 40 32 25 16
96 97 98 96 94 89 80 75 58 48 48 47 51 53 55 66 64 65 56 56 56 54 49 37 37 38 36 30 25 21 23 24 22 20 20 23 22 25 26 33 40 40 36 28 21
98 100 99 98 96 84 81 65 52 45 44 44 44 47 53 59 58 56 58 57 55 50 45 41 40 41 37 29 25 22 24 22 23 23 21 24 24 25 25 29 36 40 41 34 24
99 99 100 97 92 83 76 58 44 40 37 34 38 42 54 54 50 54 56 57 52 48 45 43 40 44 41 32 28 20 22 25 26 24 23 24 27 25 23 25 30 37 41 38 29
99 100 99 96 91 80 64 50 38 30 31 31 40 46 50 51 45 53 56 54 53 51 45 44 41 48 48 30 27 26 24 29 28 24 26 24 24 25 23 24 29 31 36 43 36
103 103 104 95 85 75 54 43 33 25 33 38 47 46 48 53 46 57 57 50 50 51 50 46 41 56 46 34 34 31 29 31 30 25 29 24 27 25 27 26 28 28 30 34 44
107 103 94 88 79 67 48 40 33 30 39 41 46 48 49 48 55 56 53 50 49 45 46 48 53 52 47 36 38 37 33 27 22 24 28 29 27 28 27 28 27 27 25 30 37
105 98 89 80 74 60 44 37 36 36 47 44 45 49 48 53 50 56 53 51 49 46 44 47 50 51 50 40 43 41 31 25 23 22 27 28 31 27 30 30 29 28 21 25 29
99 91 82 77 69 53 43 37 39 40 47 51 50 47 52 55 58 55 53 53 49 51 49 49 51 53 48 49 44 44 34 31 31 27 30 27 30 28 28 32 25 27 21 22 26
97 87 78 75 63 51 45 39 44 42 49 55 53 53 55 58 59 58 55 55 54 52 56 56 49 44 48 46 38 42 39 36 32 27 32 27 24 32 28 30 26 26 18 18 22
91 81 73 66 58 50 48 43 48 51 50 52 61 59 63 58 63 56 52 55 55 55 50 53 56 45 52 46 43 44 43 41 37 32 35 28 24 36 30 30 28 28 17 17 19
79 72 64 60 57 52 50 47 48 59 60 57 60 63 66 61 61 61 59 59 59 57 56 56 57 49 49 54 52 50 48 40 40 40 33 35 32 40 35 29 29 26 20 22 20
72 67 63 62 60 54 52 47 47 59 67 66 59 63 57 65 63 64 63 60 61 55 58 61 60 59 52 55 53 49 43 45 39 36 38 39 35 38 35 31 30 28 28 27 25
69 66 65 63 61 57 52 49 51 58 67 73 69 69 65 61 66 69 67 64 59 57 56 62 63 62 59 56 54 52 50 49 46 40 39 37 34 40 37 31 33 31 30 28 31
63 61 65 66 62 55 50 52 55 60 67 79 75 76 73 67 68 64 66 68 60 63 59 56 58 62 63 61 58 56 53 51 48 44 40 38 35 41 39 32 36 32 28 29 32
61 58 64 66 59 51 49 51 56 65 64 76 80 84 80 74 74 68 70 73 66 68 66 59 57 57 59 63 62 56 52 49 42 37 42 39 38 42 41 37 36 34 34 34 33
60 61 63 64 56 56 57 54 58 66 68 71 85 87 88 82 77 78 73 79 71 69 71 71 58 60 61 58 57 57 56 48 43 47 46 48 42 47 47 41 37 36 37 34 37
57 56 56 54 55 59 59 57 62 69 71 71 82 87 90 94 86 79 83 80 80 72 71 73 70 64 60 62 59 56 55 55 54 55 52 50 49 41 52 49 42 33 38 40 39
51 50 51 52 56 57 55 56 63 69 71 72 78 88 90 93 93 88 85 83 80 78 76 70 70 69 67 67 66 62 63 58 53 52 54 52 53 53 50 54 49 42 35 40 42
45 47 51 50 51 49 47 55 65 72 71 74 76 86 91 88 91 93 86 82 81 77 76 76 72 71 72 70 65 66 67 64 60 65 64 62 58 57 54 57 54 50 46 43 41
41 46 44 44 44 42 48 57 64 67 70 75 77 80 86 86 83 89 84 81 81 80 83 82 79 77 76 77 73 71 75 75 73 69 68 67 63 62 57 57 60 55 55 50 46

GFSSW_250_spd_060.txt.gz
Wind_Speed
68 71 71 70 73 75 76 77 76 80 78 78 82 87 88 83 84 78 82 81 74 74 77 69 62 56 51 50 49 37 36 32 35 32 25 21 20 25 26 35 37 33 31 28 23
74 75 75 76 80 80 81 83 84 84 84 86 89 91 93 91 87 85 78 75 75 71 70 72 65 57 53 53 49 36 34 34 32 28 21 19 19 22 28 26 30 32 28 28 22
82 80 79 83 82 83 83 86 87 88 91 92 95 93 91 92 85 79 74 73 67 68 66 67 67 58 55 54 48 38 32 33 29 24 21 22 20 26 22 23 30 32 31 25 21
85 85 84 84 85 86 88 88 87 92 97 99 95 90 93 74 73 68 65 61 60 65 61 58 65 59 60 55 49 39 32 33 26 22 22 26 20 23 23 22 30 34 33 26 20
85 85 86 85 88 87 88 90 91 96 98 103 92 83 77 73 72 62 62 59 57 58 56 58 55 54 56 50 44 38 31 32 26 24 23 27 19 22 24 21 27 35 35 28 17
82 84 85 88 89 86 89 91 94 102 98 84 76 70 65 63 65 58 63 59 57 55 56 58 55 53 51 46 39 37 30 31 26 23 26 23 17 24 21 22 24 33 38 30 19
83 84 88 89 90 93 98 100 100 99 89 76 67 59 54 58 53 57 59 59 55 55 59 61 49 50 45 43 38 37 29 29 26 25 28 25 20 23 22 25 21 29 36 31 22
84 88 91 92 95 97 100 97 94 91 87 72 59 51 50 54 49 53 56 54 50 52 53 48 46 42 39 40 39 36 30 30 27 28 29 25 20 24 22 22 20 24 31 33 26
88 89 92 94 95 97 96 91 91 85 83 68 56 45 45 47 50 56 43 51 51 50 48 45 47 46 41 40 38 38 34 29 28 28 28 26 22 24 21 23 23 22 26 30 34
88 90 89 97 98 97 88 89 88 82 76 65 53 46 41 42 47 53 50 49 54 54 48 44 48 47 44 42 45 38 30 31 31 29 28 29 22 24 20 24 23 22 25 27 29
93 90 87 87 85 85 90 86 82 78 71 59 49 43 36 38 44 46 49 48 56 51 45 51 48 42 52 48 42 33 36 34 30 30 30 32 27 24 25 24 23 21 25 26 26
90 90 89 88 92 91 87 85 78 71 68 46 42 32 27 34 33 48 48 52 55 50 54 53 43 54 53 45 41 40 39 38 26 28 31 34 33 26 28 27 25 23 25 24 24
92 90 90 93 90 86 85 82 75 66 59 42 31 29 30 32 41 47 50 45 48 52 50 51 53 54 53 47 45 44 44 37 28 31 34 37 36 28 28 28 27 26 24 20 24
91 88 90 90 90 87 85 79 72 58 51 39 32 37 35 38 42 44 39 45 47 48 49 48 52 55 53 46 48 45 49 37 31 30 33 39 40 29 29 26 27 26 24 19 18
96 95 90 89 88 86 86 78 67 55 46 41 40 45 46 44 45 45 50 42 46 52 50 47 53 53 50 55 50 53 46 38 34 35 35 38 38 27 29 25 26 24 23 19 15
94 87 86 90 89 86 82 74 63 49 45 44 45 51 50 52 51 44 53 50 54 48 48 51 51 52 50 56 52 48 45 40 39 38 37 40 38 36 26 26 26 24 22 20 16
91 89 89 91 89 85 82 72 54 45 46 50 51 47 53 57 61 54 52 55 58 51 50 52 53 51 54 55 55 46 48 45 43 42 42 37 32 42 34 27 28 28 27 19 19
91 89 90 91 87 83 74 59 43 43 51 55 58 52 56 64 63 60 56 54 59 56 56 55 53 54 53 51 55 50 54 51 46 43 48 37 34 43 37 32 31 30 30 24 19
90 91 90 88 82 74 64 51 43 47 52 61 66 62 59 67 65 66 60 58 54 58 56 58 57 56 58 57 56 49 48 50 48 44 42 40 39 47 40 37 35 33 32 27 24
90 84 83 77 71 65 60 51 51 52 55 63 72 68 68 68 69 68 66 63 60 62 61 59 60 58 58 60 58 54 52 51 45 42 41 40 41 49 46 40 38 36 33 27 26
83 76 76 70 65 61 57 54 53 57 58 62 74 75 74 72 73 72 71 65 65 64 60 59 61 61 59 56 54 54 54 53 50 49 47 45 40 48 47 41 42 38 34 30 28
75 72 71 65 57 54 54 57 55 60 60 64 72 81 81 77 72 76 77 72 68 67 67 66 62 62 64 59 55 55 56 50 53 52 52 52 49 44 48 47 44 38 36 35 31
68 66 64 61 55 56 58 59 58 58 64 67 71 82 88 85 80 73 72 71 75 67 63 63 60 60 67 59 57 58 57 58 55 56 52 56 53 51 50 50 46 44 41 38 35
62 62 62 58 59 58 60 62 62 63 63 66 71 76 86 91 86 79 75 72 74 73 71 65 72 62 61 58 58 60 63 62 61 61 60 56 56 54 51 52 50 49 47 43 39
53 56 57 55 57 59 60 59 64 66 66 64 67 74 79 87 90 85 79 77 72 78 72 71 67 65 65 62 60 62 63 63 63 62 62 65 61 61 50 52 53 53 51 46 46
49 52 55 54 58 58 56 58 64 69 68 64 64 71 76 80 84 91 85 81 75 75 76 71 70 73 71 72 66 63 62 63 62 63 62 62 63 65 59 58 56 55 54 46 43
46 49 51 52 53 52 54 58 60 63 59 61 66 69 72 80 78 87 86 86 82 79 77 79 72 78 77 77 75 71 65 66 64 63 64 65 64 68 66 60 58 56 53 52 53

GFSSW_250_spd_063.txt.gz
Wind_Speed
72 71 68 69 70 70 70 71 74 74 71 74 74 77 78 79 82 83 86 89 92 85 83 73 67 64 61 63 61 58 57 45 48 40 37 38 35 23 19 23 32 36 37 35 33
69 72 70 71 72 77 76 78 77 79 78 79 81 83 82 85 85 88 91 94 96 94 84 70 65 60 54 56 56 55 55 49 45 38 37 36 32 21 19 25 29 33 32 32 32
67 71 71 76 79 81 80 81 80 83 85 85 79 83 82 87 93 98 99 99 104 82 75 71 60 54 53 56 50 50 50 45 46 38 35 33 29 22 21 26 29 32 31 33 32
70 69 69 73 77 79 78 81 84 82 83 86 87 88 92 98 99 99 106 105 87 74 64 58 53 53 54 52 48 43 49 45 50 39 34 32 31 24 23 24 28 26 27 35 32
63 76 78 79 79 74 74 75 80 83 89 90 93 92 91 100 104 110 102 92 73 62 55 53 54 51 52 50 42 43 42 43 45 38 33 31 31 27 22 25 26 27 25 32 34
83 78 69 76 70 79 83 81 82 83 87 88 93 94 98 105 109 102 92 81 67 60 53 53 53 50 52 46 38 44 36 41 40 37 34 33 33 25 20 21 26 27 22 29 32
85 87 80 79 79 81 82 83 81 84 88 93 101 103 101 109 107 86 77 72 63 57 53 52 53 49 46 43 43 41 39 41 41 35 35 33 33 24 24 20 24 23 24 27 31
84 84 83 85 86 86 88 88 91 87 90 96 101 106 108 99 78 68 63 52 55 52 55 53 52 47 44 42 42 42 39 41 41 35 33 32 33 28 25 21 24 25 21 25 28
83 88 88 89 91 89 88 93 93 93 93 94 101 98 80 72 66 59 48 48 47 49 49 49 50 45 43 40 46 41 44 42 40 37 31 32 31 28 26 23 23 25 22 23 25
89 86 85 88 87 87 91 88 91 91 92 99 97 85 72 64 61 49 41 40 42 48 42 45 43 43 39 43 43 49 48 40 39 35 33 33 30 29 27 26 23 23 24 24 22
78 82 84 82 78 81 87 87 87 82 91 91 86 78 61 63 55 41 38 41 48 45 47 40 45 42 48 47 53 51 50 41 42 37 34 33 29 30 30 24 22 21 27 26 20
80 82 81 83 86 81 82 83 86 83 87 85 80 65 65 55 50 37 34 40 45 42 48 45 42 47 52 55 54 52 46 45 45 38 35 31 33 31 33 24 20 24 29 25 23
90 87 90 91 89 87 86 86 87 86 85 84 76 62 57 49 45 29 33 43 43 42 36 34 41 47 55 54 56 52 50 53 47 38 35 32 36 33 35 30 21 22 26 25 22
99 95 90 90 84 84 81 82 82 86 85 80 72 59 52 43 25 34 47 51 45 44 43 49 52 51 56 53 57 54 55 51 43 38 38 33 37 37 35 33 25 24 25 22 22
95 89 88 87 89 82 82 84 84 84 85 71 68 60 51 41 32 33 40 47 43 51 57 47 50 54 56 49 59 57 58 49 43 40 39 37 37 38 31 33 32 25 26 19 19
86 81 87 85 84 82 78 79 81 81 76 72 65 59 47 43 43 41 40 47 44 37 40 48 49 52 55 54 55 62 56 49 42 43 40 43 39 36 34 36 34 28 26 23 20
82 82 84 82 80 79 78 78 79 77 74 69 64 57 47 46 52 47 41 43 45 44 42 46 45 51 59 54 56 55 53 50 44 39 44 50 42 38 37 33 33 31 27 25 23
85 85 82 82 78 79 79 79 78 75 73 68 62 52 48 48 59 58 47 52 52 56 47 48 49 54 57 53 54 53 54 53 50 46 48 51 43 45 40 37 36 35 32 29 25
89 89 86 84 84 82 79 77 75 73 72 69 58 49 50 54 66 66 57 55 51 56 53 56 47 57 54 53 53 54 54 55 55 46 46 49 49 46 46 43 41 38 35 34 27
92 89 88 85 85 83 78 76 76 74 71 63 54 49 53 62 70 73 64 62 56 52 59 56 51 54 58 54 54 54 58 52 52 52 49 52 48 53 50 47 44 44 37 35 32
87 84 85 86 85 82 75 76 75 71 67 58 52 52 57 67 67 77 72 68 66 56 57 59 61 59 58 52 54 55 56 54 51 56 49 54 50 53 53 48 48 45 39 38 36
79 78 80 81 78 75 71 72 68 66 63 57 54 57 60 67 74 71 76 75 75 67 68 59 63 62 59 59 56 54 57 58 57 53 48 53 51 50 50 49 48 47 43 37 38
72 73 74 73 69 69 68 66 64 62 62 57 56 60 64 68 75 74 74 79 80 76 71 64 64 66 64 61 61 59 56 57 58 58 52 53 52 52 53 50 49 48 45 42 39
67 65 68 66 67 67 66 63 62 62 62 58 57 62 68 71 77 79 76 79 87 80 75 71 66 66 66 66 62 61 63 58 57 56 57 55 56 60 59 58 54 53 51 46 44
56 61 64 61 63 63 62 60 59 60 63 62 59 62 70 72 75 83 82 79 84 86 79 74 73 71 72 67 64 61 59 61 62 59 58 60 60 61 65 61 62 60 57 55 50
51 56 58 58 59 61 59 59 62 64 64 64 60 61 67 72 75 81 87 88 82 81 85 79 76 78 75 70 69 66 65 64 64 64 64 62 64 62 60 64 63 63 63 57 48
50 53 53 52 54 53 57 62 60 61 61 62 62 59 62 72 72 74 83 87 84 81 79 81 82 77 75 75 67 64 65 61 63 64 63 66 68 65 62 65 66 66 64 57 51

GFSSW_250_spd_066.txt.gz
Wind_Speed
55 50 53 56 62 66 70 68 70 69 71 72 74 74 74 75 72 74 73 75 77 81 81 83 82 85 84 87 78 68 57 57 58 56 49 36 40 40 37 39 37 28 27 32 39
56 57 58 60 59 59 64 67 71 70 71 75 78 80 79 76 79 81 78 81 85 85 84 87 88 90 93 87 78 64 54 57 59 51 42 39 34 40 35 35 35 29 28 35 34
56 56 51 50 57 59 58 63 71 70 74 78 78 77 75 78 83 85 86 86 87 90 92 95 93 96 94 76 68 61 50 59 56 48 41 37 38 43 34 34 34 28 30 27 34
72 72 72 72 71 71 68 68 62 60 69 72 75 74 78 80 86 83 85 89 96 95 98 98 105 100 81 62 62 58 53 57 53 45 38 37 35 42 35 35 34 29 29 27 31
70 75 77 80 80 79 79 83 76 74 75 78 81 82 85 89 92 95 94 96 94 93 98 105 77 74 59 56 58 53 55 54 47 39 36 34 38 38 35 36 32 30 30 29 29
68 68 67 75 77 80 80 82 84 86 89 86 83 82 83 92 91 91 92 94 98 99 103 93 77 67 57 52 49 52 55 51 42 34 33 34 35 37 34 36 32 27 24 27 32
74 73 75 80 80 79 82 82 85 86 87 87 88 88 86 89 90 92 95 101 102 100 100 79 73 66 52 45 44 49 49 43 37 33 33 32 35 39 32 35 32 25 23 26 29
80 80 85 81 80 83 86 83 81 85 89 91 91 94 94 99 99 102 102 100 100 91 77 71 63 58 43 44 44 46 48 40 38 31 35 31 40 36 32 35 30 28 26 27 27
85 87 84 86 83 83 87 85 85 84 83 84 90 93 93 96 100 103 104 101 94 73 66 62 54 48 42 46 47 48 40 36 36 33 37 34 40 34 32 34 29 28 26 24 24
86 85 87 89 78 74 77 88 80 85 89 87 83 86 88 92 93 92 97 99 73 63 58 54 48 41 45 46 45 46 41 37 36 36 37 37 40 35 32 32 29 29 29 24 24
91 89 92 89 79 77 77 73 72 74 77 80 82 81 83 80 88 94 92 72 59 54 52 48 38 36 43 46 47 44 38 33 32 36 37 41 40 35 31 31 30 29 29 23 25
95 95 84 85 87 84 83 80 79 77 77 79 83 81 82 83 84 87 73 59 48 47 46 37 33 40 48 48 41 41 41 40 40 37 37 43 41 33 28 33 33 30 25 24 27
93 86 81 80 82 85 83 85 85 81 85 89 84 84 83 83 80 79 63 50 45 41 38 35 40 49 46 45 40 36 40 40 39 42 43 45 41 34 31 35 33 33 26 20 24
101 85 85 87 86 90 87 92 90 94 87 83 80 83 81 78 73 61 55 44 37 32 41 38 44 40 35 44 43 42 43 45 48 50 43 47 41 36 34 34 34 35 34 25 26
93 89 94 94 94 99 97 95 96 88 84 78 76 79 77 74 68 53 47 37 31 43 44 43 43 43 42 43 46 50 51 51 51 49 47 44 41 40 35 32 37 35 35 29 26
100 100 105 104 101 97 100 96 79 84 81 75 74 76 75 70 61 47 40 34 34 42 41 42 50 48 40 43 46 52 48 51 53 49 46 43 45 44 38 35 34 37 37 34 30
108 103 97 94 94 95 91 88 79 75 77 75 69 74 70 67 52 41 38 42 49 52 52 49 46 44 46 42 45 47 48 52 51 49 45 46 45 49 40 36 32 35 40 35 30
95 91 89 88 90 91 85 84 74 73 76 70 64 69 69 60 51 42 36 51 55 58 54 49 51 50 52 51 48 47 39 42 50 53 53 46 38 49 42 37 35 38 38 35 30
91 91 89 90 91 89 86 82 74 76 77 70 72 68 66 56 49 43 41 59 54 63 61 53 55 50 42 47 50 51 43 48 55 58 53 47 40 42 44 41 38 39 41 37 33
85 85 84 88 87 88 82 76 77 81 76 76 73 71 65 53 48 42 43 60 60 52 60 54 53 47 44 46 47 54 48 54 55 51 50 52 48 46 43 46 42 41 42 41 40
81 77 84 84 87 83 75 76 80 80 76 75 74 70 64 54 49 44 46 64 67 57 62 60 60 48 50 43 51 58 56 51 50 52 50 49 51 56 51 45 46 43 42 42 42
75 70 79 79 80 78 73 77 78 76 73 74 73 69 65 56 48 47 49 64 73 66 65 63 63 63 51 57 52 57 58 54 51 52 50 50 51 51 54 48 49 50 46 43 42
65 68 71 75 72 70 71 71 73 73 71 70 70 68 64 54 47 51 54 66 79 72 66 68 61 65 65 58 51 56 59 52 49 53 52 54 48 49 50 48 52 48 47 47 45
55 57 65 68 65 66 67 68 69 70 69 66 66 64 62 54 48 53 57 70 86 78 71 72 63 60 67 63 60 56 54 57 55 56 54 54 54 56 51 48 48 48 48 48 48
48 55 59 59 58 64 65 65 65 66 65 64 62 61 60 55 51 56 61 67 90 86 79 77 70 56 64 64 62 60 59 58 58 55 53 54 55 56 58 55 49 50 50 50 47
43 51 54 51 55 57 58 59 61 63 63 62 59 60 59 56 54 58 65 70 89 90 84 82 76 66 62 66 67 64 64 61 59 59 57 56 58 60 62 60 53 51 53 56 55
43 47 48 48 49 48 51 58 59 59 56 58 56 57 59 58 51 55 67 72 79 94 93 84 85 79 74 67 64 66 67 67 61 61 63 66 66 60 62 60 55 53 56 54 57

GFSSW_250_spd_069.txt.gz
Wind_Speed
57 67 70 63 56 54 55 52 56 61 62 64 63 64 66 68 68 63 63 70 74 74 70 71 71 74 75 79 80 81 82 76 76 84 90 70 52 49 46 34 30 35 37 34 33
61 56 63 68 64 63 57 56 60 63 61 61 58 54 56 61 67 67 64 66 69 71 73 73 78 81 80 79 83 85 85 83 92 89 80 68 49 43 44 37 30 31 38 36 33
63 61 59 57 65 66 65 62 52 58 65 65 66 70 66 64 63 65 67 71 74 74 79 79 78 78 82 84 87 89 83 90 86 75 68 56 46 45 43 38 31 32 36 33 35
71 71 70 65 58 60 63 62 63 65 67 68 72 72 71 74 75 71 72 76 80 79 81 83 86 92 91 89 90 92 92 87 63 65 59 48 47 44 40 38 31 33 36 32 36
60 68 68 72 65 71 75 78 81 82 76 77 76 79 78 78 79 77 78 76 79 81 83 88 93 93 88 91 95 98 91 61 50 56 51 45 45 41 38 35 30 33 35 34 32
67 61 62 65 66 67 67 68 71 72 75 72 75 75 79 84 82 85 86 87 93 92 95 95 92 93 95 94 97 95 62 49 44 48 46 43 40 37 36 32 29 32 33 33 26
72 75 73 72 71 72 77 77 76 77 77 80 79 76 80 79 79 84 87 91 91 92 94 97 99 101 97 95 94 72 48 40 36 40 38 41 37 34 36 26 29 31 32 32 22
87 87 87 85 82 83 79 77 77 81 84 84 84 84 82 83 78 77 79 81 84 90 92 93 97 99 98 86 72 61 46 32 34 37 39 40 33 38 29 25 31 31 32 31 24
81 85 81 79 84 84 84 85 86 80 83 82 84 90 81 87 84 85 85 85 86 87 85 91 97 92 78 64 60 51 32 37 38 41 45 40 35 35 25 27 32 32 29 29 25
88 89 87 82 81 86 86 86 87 86 90 88 85 72 67 71 76 84 89 91 90 90 91 94 94 81 69 57 52 41 37 43 47 48 50 44 36 32 27 30 32 30 28 30 25
90 93 95 92 88 85 86 87 91 87 90 92 86 76 65 67 73 75 75 79 82 89 94 84 71 62 62 54 48 35 41 46 46 49 46 41 31 31 29 31 30 29 30 28 26
85 87 92 91 84 89 92 91 92 91 86 88 85 78 79 74 75 73 78 81 85 88 82 74 54 57 57 48 41 38 49 43 49 50 45 39 31 34 29 31 30 29 31 29 26
87 92 91 90 91 96 92 96 91 87 81 85 71 75 77 78 76 79 80 81 82 83 77 61 52 54 45 37 39 47 55 52 52 51 43 36 32 35 35 34 31 28 31 31 20
86 91 94 98 97 96 94 94 88 86 78 76 77 79 83 82 83 82 82 78 76 75 63 49 49 42 29 36 43 50 53 53 49 49 37 33 33 31 34 33 27 27 29 33 26
82 88 90 95 95 99 94 96 90 95 82 82 80 86 91 90 87 86 79 69 66 59 43 40 40 28 30 42 47 47 53 49 45 39 34 27 27 31 35 34 32 29 30 36 31
90 91 94 94 99 99 98 98 101 92 94 92 89 90 94 91 85 82 68 65 60 44 39 37 32 33 40 42 47 48 50 43 41 40 34 36 34 36 36 41 36 29 30 36 33
94 97 99 99 108 103 104 105 102 98 102 100 91 81 83 83 77 70 63 60 51 36 36 33 41 39 41 41 51 49 48 50 41 39 34 37 39 38 36 40 39 33 29 38 35
89 93 97 101 105 104 108 106 97 92 91 97 78 67 71 74 70 63 61 59 44 35 36 39 45 45 49 44 50 44 45 42 41 47 38 39 36 38 38 34 38 36 35 33 31
83 86 86 94 96 97 95 88 81 83 86 85 73 71 73 73 69 63 59 51 40 37 40 49 52 49 51 49 48 47 41 45 43 48 40 36 37 42 37 33 37 40 39 34 31
76 77 81 87 87 89 84 78 81 91 94 88 79 79 79 71 62 63 56 51 40 41 46 57 53 49 47 53 49 50 50 48 48 52 40 34 40 42 40 36 37 40 39 36 35
74 73 84 78 80 78 71 71 78 87 82 81 79 78 76 73 66 66 55 45 39 44 49 61 62 58 52 55 53 53 51 48 47 49 44 37 38 44 45 47 39 30 34 40 38
69 69 73 75 74 72 68 72 72 80 77 72 72 73 72 72 65 64 60 44 41 48 57 70 69 61 62 60 57 56 53 54 53 44 40 39 40 43 43 48 48 44 37 34 41
65 63 69 72 66 67 66 65 68 73 71 67 69 72 70 66 60 57 60 40 44 50 61 69 68 69 62 62 61 52 49 54 52 48 45 45 44 46 48 48 48 47 47 38 39
58 59 66 61 60 59 60 65 65 68 67 66 65 69 68 65 60 58 58 42 47 52 65 73 72 69 68 61 59 56 51 53 60 52 46 47 49 46 46 48 51 49 47 47 44
54 55 55 55 56 52 50 60 62 65 63 63 63 63 63 61 58 55 54 42 49 54 65 75 75 66 71 69 62 52 59 54 54 59 52 51 50 49 47 49 53 48 43 39 46
49 48 46 52 49 47 46 54 56 57 61 61 61 62 61 56 53 50 46 41 50 58 67 79 79 65 77 70 73 61 56 56 54 59 59 57 55 54 51 54 58 51 47 47 46
43 39 41 45 37 41 44 51 51 54 52 55 57 58 58 57 48 47 49 49 56 63 70 87 78 76 78 74 69 65 64 64 63 62 60 62 57 57 60 60 60 50 47 46 46

GFSSW_250_spd_072.txt.gz
Wind_Speed
61 60 62 57 54 56 67 72 74 68 68 66 67 63 61 57 56 56 52 53 52 55 58 62 67 69 67 68 69 67 66 66 69 65 72 91 82 76 76 74 59 52 47 41 38
63 67 62 62 60 54 60 61 64 62 65 67 68 65 66 64 59 63 61 64 65 60 63 62 69 70 71 73 74 74 71 71 72 74 82 88 86 83 81 75 44 46 46 39 33
66 70 64 66 61 59 62 63 60 60 67 65 65 65 64 66 67 67 71 72 71 68 69 73 76 76 76 78 76 79 74 75 79 83 80 85 87 87 84 52 45 44 42 38 30
69 68 68 66 64 65 60 72 72 65 56 58 65 66 61 61 66 62 68 72 72 72 75 76 76 77 78 81 83 81 83 84 85 85 85 90 91 78 58 44 44 44 40 36 29
72 76 71 68 65 69 68 61 69 74 70 68 66 70 72 74 73 66 69 72 73 73 76 77 81 81 78 81 83 86 88 85 84 89 92 88 73 51 45 43 41 43 36 33 31
74 76 77 69 72 69 72 68 62 64 62 62 69 71 74 74 72 69 69 75 74 73 77 81 82 85 84 87 91 89 89 87 89 91 85 67 48 44 41 41 41 41 36 29 32
78 81 84 76 74 65 70 76 76 70 67 68 70 70 71 70 69 74 74 77 75 79 81 80 83 84 80 81 90 92 92 88 86 80 59 51 41 39 42 40 41 38 32 29 31
86 89 92 83 74 73 70 75 77 71 77 77 77 75 81 73 77 77 77 77 78 78 83 83 86 88 86 83 88 90 87 91 88 72 56 40 40 42 43 40 42 38 29 30 29
95 95 91 88 69 73 76 84 79 79 78 70 68 74 81 81 82 81 79 79 79 80 82 86 91 87 92 94 92 92 86 73 64 60 51 36 46 46 48 43 40 34 29 30 29
98 94 95 79 70 74 76 78 80 76 78 80 78 77 79 81 80 82 80 78 82 77 74 81 80 78 85 88 82 82 71 59 51 55 49 42 52 53 40 40 39 33 31 32 29
98 100 88 74 73 73 77 80 78 80 79 75 73 77 77 77 77 79 78 72 74 77 75 71 72 76 75 77 68 63 57 49 45 50 38 43 53 43 41 38 34 30 28 31 29
100 100 80 70 73 75 74 78 78 77 79 82 86 81 81 79 85 82 80 72 70 68 69 71 70 75 74 73 63 52 49 47 45 44 40 44 51 45 43 38 32 30 28 32 29
104 88 77 75 78 76 74 75 77 79 76 85 82 85 87 82 80 79 79 74 71 69 69 70 76 76 71 61 53 48 49 48 42 42 41 47 51 42 43 33 33 31 30 30 32
95 80 73 77 75 76 78 78 81 81 79 81 85 85 84 80 81 79 75 72 70 72 72 74 74 71 63 51 42 46 50 40 41 44 45 50 48 44 43 30 32 30 27 27 32
81 78 77 75 77 78 79 79 79 80 76 79 75 81 84 82 79 77 76 77 78 79 78 78 75 65 47 44 39 41 37 35 43 45 51 50 45 43 44 24 35 35 30 29 33
75 77 78 78 84 80 81 81 80 78 75 77 79 80 81 79 78 80 82 81 79 80 78 76 67 44 38 37 29 29 29 39 43 45 49 47 42 44 42 34 35 39 32 29 31
75 75 77 81 86 87 90 88 84 81 85 88 84 85 88 88 85 85 83 85 83 82 79 62 48 36 34 32 31 34 37 45 49 49 51 53 44 41 38 40 37 39 38 31 32
74 73 75 76 78 80 89 93 90 92 98 100 93 91 92 94 93 89 89 88 83 75 61 54 35 36 32 31 34 34 42 47 51 52 52 53 40 30 44 41 36 37 42 40 31
75 72 79 72 72 73 78 79 82 89 95 105 99 94 92 96 92 86 82 75 67 61 54 50 36 38 34 39 43 46 44 46 51 57 49 53 42 38 46 42 37 35 42 41 35
76 75 78 76 74 72 69 66 69 80 93 93 90 86 85 88 85 74 69 62 60 57 55 47 40 40 38 46 50 50 51 49 52 57 50 49 49 46 45 43 45 34 29 36 33
72 74 73 73 71 70 68 67 71 77 83 83 84 78 84 81 80 77 69 64 63 56 50 45 40 41 44 51 53 50 56 52 51 59 50 44 48 43 44 46 45 35 29 30 38
66 71 70 71 68 66 64 62 66 72 79 72 73 72 75 73 75 72 69 67 67 64 56 48 44 46 50 54 54 56 56 53 56 59 53 46 47 41 42 42 43 37 29 31 34
62 68 67 68 64 63 62 61 62 68 73 63 66 64 67 69 67 69 61 59 58 57 57 55 46 50 55 61 57 62 60 56 53 54 55 48 42 42 40 40 43 44 40 38 37
62 66 67 60 59 57 56 56 58 63 66 57 57 60 65 67 61 64 59 55 55 54 49 51 50 56 58 67 60 65 65 59 61 53 50 53 48 35 43 39 39 42 44 42 42
60 61 60 52 51 47 46 46 52 57 59 55 55 57 63 63 59 57 51 51 48 49 48 49 54 61 60 71 67 59 67 66 55 61 52 53 59 41 47 47 45 42 45 49 44
52 52 49 50 46 43 41 42 51 51 52 51 50 55 59 55 50 50 43 44 44 45 49 54 59 65 63 74 73 66 63 68 60 60 59 60 56 55 51 49 48 43 44 50 49
46 45 46 46 42 36 40 40 48 43 44 43 46 51 53 52 46 46 44 43 47 52 53 57 61 64 65 76 79 73 72 69 67 67 60 58 59 62 59 53 51 51 56 47 48

GFSSW_250_spd_078.txt.gz
Wind_Speed
72 71 70 61 63 65 66 64 65 66 64 58 56 54 43 40 49 64 69 67 67 68 71 69 66 70 71 70 74 73 68 69 70 75 73 81 80 80 76 73 74 70 69 71 69
74 73 71 71 64 66 69 66 68 69 68 67 69 66 59 52 48 49 55 68 70 73 74 72 71 68 69 75 71 70 68 70 75 74 70 73 77 80 73 70 73 73 75 75 75
78 76 74 69 67 66 68 76 76 76 74 78 73 65 71 60 55 54 56 60 65 67 70 69 74 72 72 74 73 72 69 73 70 74 72 76 81 84 79 78 81 80 73 72 71
73 76 73 70 70 68 69 73 81 82 79 73 72 71 70 59 56 55 62 57 66 65 65 65 67 67 66 66 71 66 69 73 75 73 74 72 77 81 78 73 82 82 78 75 75
80 80 80 78 76 76 75 72 75 83 78 75 75 72 71 66 63 55 65 67 63 63 65 65 68 68 68 68 68 67 68 69 70 74 73 70 71 76 76 79 86 82 76 75 71
84 81 86 81 81 79 79 83 81 79 87 87 84 77 73 77 74 61 61 68 70 69 66 64 67 68 70 64 65 70 66 68 71 71 73 73 74 80 85 88 85 87 84 80 75
90 89 87 89 86 89 87 90 87 90 90 88 91 88 86 86 81 79 69 65 71 73 66 63 63 60 60 68 68 67 67 62 67 73 71 74 69 68 72 76 63 59 57 54 55
97 95 92 92 90 93 98 98 97 92 93 90 86 91 91 91 88 76 73 73 73 73 73 70 66 65 64 65 66 63 65 63 67 71 75 77 62 64 63 63 55 61 51 45 50
98 99 101 100 103 103 104 106 103 100 98 94 84 84 91 89 86 77 73 75 74 73 71 71 73 66 67 69 68 62 60 64 68 73 74 71 61 58 64 56 57 59 45 40 39
107 105 105 105 107 108 109 108 100 97 91 86 82 81 86 84 84 74 71 67 76 73 68 66 64 65 70 69 63 66 64 64 65 72 75 76 54 54 61 52 53 49 38 32 28
109 104 106 104 112 111 110 102 95 85 79 80 78 76 79 79 73 66 71 65 63 64 71 70 70 65 70 66 66 69 65 64 71 70 71 68 48 56 59 52 48 39 31 28 34
109 112 111 115 115 109 103 98 90 75 70 74 71 64 68 68 64 73 78 75 71 68 69 69 67 71 68 69 71 70 68 69 69 70 67 65 61 59 54 48 42 36 31 33 46
117 120 117 118 108 105 95 86 81 76 64 67 69 61 57 60 63 72 79 75 77 78 76 72 72 69 65 67 68 70 69 72 72 73 71 66 47 53 47 42 35 33 37 47 52
124 124 118 111 101 93 92 83 81 77 63 60 63 58 56 57 65 72 73 76 78 76 82 79 77 74 67 70 71 70 73 71 70 68 66 63 35 44 42 40 33 42 48 52 53
125 116 112 102 96 92 86 84 81 72 63 58 57 58 58 60 66 74 78 79 80 78 75 73 71 71 74 75 72 70 71 73 70 66 59 59 31 42 42 33 44 51 53 54 54
119 109 103 101 104 91 86 80 74 70 62 57 53 59 62 63 64 73 79 81 83 83 83 80 79 78 78 74 74 68 70 72 65 55 57 48 34 44 37 44 55 55 57 55 55
113 108 102 100 89 85 80 74 67 61 59 55 54 55 62 62 65 70 74 80 82 82 84 83 81 78 76 75 74 71 74 71 57 58 53 39 33 41 40 52 58 57 56 55 55
108 103 98 94 88 80 72 68 60 55 55 55 54 56 56 60 61 71 74 76 79 82 83 78 78 76 76 76 73 72 70 61 53 54 40 31 36 43 49 54 53 55 56 53 50
102 95 91 86 80 73 67 63 60 56 54 57 60 56 55 57 59 66 74 77 77 77 77 78 80 79 77 75 73 72 66 56 50 45 30 30 46 44 53 53 52 55 57 51 50
97 92 88 80 73 67 65 64 61 57 54 56 58 58 56 57 59 61 70 78 83 82 81 79 79 77 73 73 72 66 60 52 51 40 30 35 48 46 55 55 51 55 57 53 50
89 85 80 73 68 67 65 62 56 55 53 55 55 54 50 55 62 61 63 71 77 81 80 82 79 75 75 74 72 66 59 56 50 39 33 41 51 50 60 55 52 53 56 54 50
82 76 73 69 68 65 61 58 54 54 51 52 53 49 49 53 58 61 64 64 73 78 77 77 76 74 74 72 71 67 60 60 49 37 36 47 55 54 60 53 54 54 57 56 53
75 72 70 67 64 63 58 56 52 51 50 49 49 48 48 51 54 57 57 64 64 69 73 76 78 78 76 75 72 67 63 52 46 36 42 50 55 54 59 53 55 53 55 55 55
72 70 67 62 62 59 57 54 51 48 46 47 46 46 47 50 48 54 54 57 64 65 66 67 73 82 84 81 79 74 54 45 45 39 48 49 61 51 61 56 57 53 55 53 50
68 65 63 60 59 58 53 49 45 44 43 43 43 41 43 49 48 52 53 52 58 63 68 58 64 68 70 72 70 58 49 45 48 45 49 49 57 58 53 54 58 57 55 52 46
63 62 61 59 56 51 48 45 42 37 38 40 38 39 43 46 47 48 52 53 55 59 60 56 58 59 60 61 60 54 52 50 50 50 51 49 56 63 61 52 52 57 58 54 46
59 58 59 56 51 46 42 40 37 35 34 34 36 36 42 44 42 44 49 55 50 53 49 50 52 52 55 53 52 55 53 52 55 58 59 53 53 60 62 58 54 56 60 60 54

GFSSW_250_spd_081.txt.gz
Wind_Speed
61 61 66 65 65 67 64 61 62 60 62 56 57 61 65 66 65 64 67 71 64 58 70 72 71 71 73 68 66 64 62 61 63 69 72 76 71 73 70 69 71 70 69 68 68
66 70 70 70 70 68 69 66 65 65 64 60 62 66 64 62 70 73 73 69 69 69 68 65 79 78 73 73 68 64 63 63 68 72 71 75 73 71 69 73 74 72 69 70 72
69 71 73 75 75 74 72 71 70 68 68 65 67 66 65 68 66 69 72 72 71 72 66 65 67 70 75 72 72 70 62 68 67 72 76 72 71 74 77 75 75 74 71 70 68
78 77 71 79 81 81 79 78 76 71 71 71 70 69 73 71 70 70 73 71 73 71 69 68 66 67 64 64 65 71 66 66 70 69 68 70 71 71 72 69 75 74 72 69 71
85 85 82 79 84 84 80 79 78 75 78 79 77 78 74 77 83 75 77 73 81 76 72 67 69 64 58 64 62 62 62 61 63 67 69 66 65 72 66 71 74 69 69 73 77
85 86 85 82 86 84 84 87 84 80 81 82 77 77 82 88 83 85 80 79 78 78 75 75 72 68 63 64 61 63 60 62 62 67 64 59 59 58 63 70 73 72 70 75 73
87 89 87 86 84 90 86 84 83 84 82 81 80 82 83 92 90 88 78 78 84 84 84 82 78 72 68 69 65 64 63 64 64 66 63 58 53 57 61 70 74 74 74 73 64
89 90 92 94 95 83 86 87 90 89 91 85 89 90 95 94 88 81 80 78 77 77 80 80 79 75 74 68 69 68 66 64 65 60 62 60 51 57 61 63 68 71 71 66 54
88 88 93 86 83 89 96 93 90 89 89 98 99 98 93 88 80 75 77 76 75 80 79 78 79 73 75 71 67 71 66 64 64 64 65 62 52 58 64 68 68 70 66 57 53
88 88 86 84 88 93 93 94 96 96 102 103 98 92 89 82 78 72 67 66 72 74 76 73 73 71 80 69 68 69 68 68 66 69 69 59 54 61 63 66 63 61 59 55 47
92 89 94 92 98 98 99 99 106 105 113 107 94 84 82 73 68 67 66 66 66 70 74 74 68 73 81 75 73 65 61 58 64 66 64 59 58 63 67 68 68 68 64 61 48
94 97 101 101 102 101 106 109 110 112 109 97 86 79 70 61 64 65 63 64 68 70 72 67 68 67 66 76 77 63 62 64 67 66 65 60 60 67 69 69 66 69 66 58 46
101 101 104 110 104 107 109 115 114 118 100 90 82 69 62 61 59 62 58 62 67 70 72 69 64 67 67 61 65 72 66 67 66 62 62 63 60 66 68 70 71 71 63 52 43
106 108 110 111 113 114 113 116 119 111 85 79 74 71 64 57 55 58 57 60 64 71 74 70 63 67 67 63 63 65 69 67 67 62 62 64 63 68 73 76 68 65 52 44 40
112 113 116 113 118 119 118 115 109 99 84 75 71 68 65 60 50 52 55 56 63 68 71 72 69 69 73 73 67 69 63 64 65 67 64 67 70 69 73 72 62 52 44 44 39
113 114 114 116 120 117 114 114 102 90 77 74 67 62 61 57 53 51 54 54 58 64 69 71 71 70 70 72 74 71 73 74 70 66 66 70 74 72 73 64 48 41 38 40 42
113 115 116 117 114 114 111 98 91 80 73 66 62 57 55 56 53 51 53 55 58 62 66 72 73 70 72 72 69 67 66 67 67 68 72 73 70 70 65 54 35 35 38 40 47
112 113 117 113 109 105 98 93 82 73 69 62 57 56 51 51 53 51 52 56 58 64 67 68 76 75 74 75 72 72 71 71 72 72 71 70 68 61 51 34 31 37 40 43 49
115 110 106 108 107 100 94 85 76 70 59 57 58 56 56 51 56 53 54 56 58 61 68 65 67 69 71 72 76 75 74 75 75 73 69 66 56 44 40 31 29 37 42 51 54
109 105 107 106 101 95 87 79 70 62 58 56 57 54 53 52 52 56 55 56 56 58 65 69 68 67 67 68 69 71 72 73 68 67 65 57 43 32 38 28 36 44 51 54 57
105 103 101 97 91 85 79 69 64 59 58 55 52 50 52 50 48 53 55 57 59 58 60 67 71 71 69 66 66 69 72 71 66 61 56 45 36 28 41 28 45 53 56 57 59
98 96 97 89 84 77 69 63 62 59 54 51 51 49 50 48 49 50 52 54 59 60 60 64 72 74 74 69 65 64 65 65 62 57 49 42 39 30 39 37 55 58 58 59 59
96 89 83 78 74 67 65 60 57 55 50 50 49 47 45 47 46 48 51 53 56 61 61 60 67 75 76 74 73 70 66 61 58 56 52 45 33 31 40 48 60 58 58 60 58
86 79 74 68 64 63 61 57 54 52 51 51 47 44 44 45 45 47 49 54 52 56 61 60 64 70 74 74 74 73 71 68 62 55 45 42 37 37 45 58 63 59 57 58 59
75 70 65 61 61 59 57 55 53 51 48 48 45 42 41 43 44 47 50 51 51 54 55 60 63 66 69 72 70 67 66 63 58 49 45 38 37 42 49 61 62 56 52 54 58
65 63 61 60 58 57 55 53 49 48 41 43 41 38 39 40 40 44 48 50 52 56 55 58 64 63 60 60 63 67 65 64 60 55 54 36 45 44 53 59 61 56 51 50 52
60 59 59 58 55 54 53 50 45 42 38 37 36 33 33 35 40 41 48 52 51 51 58 58 56 53 49 49 53 56 56 60 66 64 60 45 50 48 54 60 62 56 51 48 51

GFSSW_250_spd_084.txt.gz
Wind_Speed
52 55 55 58 58 60 61 62 63 64 65 67 67 65 62 61 63 56 55 58 58 51 51 59 61 60 55 58 56 67 73 67 66 61 64 71 69 64 64 70 69 66 64 64 68
59 56 57 63 66 64 65 66 69 67 67 69 69 72 67 62 63 59 60 61 62 64 58 60 56 59 56 60 61 58 65 70 71 70 69 70 72 71 70 69 66 64 65 67 70
64 64 64 68 68 66 68 70 72 74 74 72 69 68 64 61 63 62 65 66 68 67 64 65 61 61 60 63 59 60 57 72 72 70 71 70 72 72 66 66 67 69 68 67 71
66 68 70 72 72 72 73 76 75 77 73 71 69 70 70 64 69 64 65 66 70 69 68 72 73 70 69 63 64 61 63 66 68 71 73 70 74 67 67 70 67 67 65 66 68
72 71 73 76 74 77 77 78 77 77 77 78 75 72 73 69 69 65 62 64 67 72 76 76 77 78 72 66 64 60 61 65 66 67 67 65 66 71 69 65 65 62 61 64 66
75 73 73 79 81 79 80 80 78 80 79 80 79 74 71 70 69 67 68 68 81 79 81 82 80 80 72 70 67 64 64 62 65 57 64 65 61 65 63 64 60 63 61 59 61
73 78 79 81 84 86 82 83 82 83 86 87 81 77 79 74 70 76 84 88 91 82 78 80 72 80 78 79 74 71 75 70 65 69 59 59 55 59 62 63 61 59 59 62 60
79 80 82 81 88 91 90 86 85 90 89 80 74 78 70 69 82 84 91 99 91 81 76 71 69 71 77 79 77 72 74 74 71 68 67 62 62 61 62 66 63 61 58 58 61
82 83 82 84 87 91 91 92 89 93 88 81 81 77 72 81 88 95 96 101 87 77 71 65 64 67 74 79 79 71 70 69 70 71 69 64 62 60 68 62 60 59 60 59 59
87 88 86 87 91 91 91 93 93 93 87 85 80 83 86 90 94 97 97 87 78 72 66 61 62 65 68 73 74 73 69 69 71 74 63 63 60 62 61 62 66 66 62 64 63
92 91 89 89 92 97 94 97 93 89 89 89 90 92 91 94 100 95 91 78 72 69 63 60 57 61 67 70 72 70 71 72 75 76 69 60 57 63 64 66 65 67 64 63 66
95 97 94 92 98 100 99 98 95 89 95 94 96 92 94 92 92 88 79 73 66 63 61 60 57 63 65 68 72 75 72 74 77 78 69 64 57 57 57 58 61 61 62 66 70
95 95 99 104 108 103 102 101 101 96 97 100 97 99 91 89 83 80 70 63 59 59 62 61 61 63 65 71 76 79 75 78 72 76 78 66 61 59 60 65 66 63 65 70 75
107 107 110 109 106 108 102 103 101 106 102 100 98 97 91 87 77 73 68 61 56 58 59 58 64 65 65 70 78 78 75 71 66 70 72 70 63 57 67 65 60 62 66 72 70
108 109 109 111 110 107 106 111 106 102 97 97 96 88 83 81 77 71 66 62 57 55 58 58 63 65 68 72 73 75 73 72 65 64 60 68 69 71 71 68 67 69 75 76 67
110 109 108 109 107 107 107 103 99 100 95 89 87 86 83 77 71 69 64 61 58 53 58 59 61 64 67 70 72 72 67 59 57 60 55 60 65 72 65 67 68 75 73 68 70
108 112 106 107 107 106 102 108 96 91 90 86 86 84 78 73 68 62 59 58 57 54 57 60 62 63 65 68 68 72 63 63 63 62 59 61 63 68 64 67 72 76 69 63 51
109 112 115 108 110 104 111 99 93 89 86 85 84 78 70 67 61 61 54 56 56 54 54 60 63 64 64 63 68 68 69 66 64 64 62 61 63 69 69 69 76 68 66 48 40
114 110 112 114 115 102 99 94 90 88 87 84 78 72 69 60 57 58 56 55 56 56 55 57 61 63 62 63 63 64 71 69 66 65 64 65 70 67 67 64 66 65 50 38 37
106 103 99 106 104 103 99 91 88 87 82 76 71 64 59 57 54 55 59 56 56 57 55 55 59 63 63 63 64 63 66 68 71 65 61 61 61 62 63 64 62 60 40 36 38
103 104 105 100 101 98 95 89 84 78 76 71 65 59 58 57 55 52 54 58 54 56 57 58 57 61 64 66 65 64 64 64 65 62 63 64 65 66 63 59 48 44 31 32 39
105 101 101 99 96 90 85 82 78 73 68 64 60 58 55 51 52 48 51 54 52 54 57 58 57 59 64 66 66 62 59 62 65 64 61 59 61 61 57 46 34 32 26 31 40
99 94 93 93 84 80 78 75 71 68 61 60 56 53 49 47 47 48 48 52 52 53 53 56 56 59 59 61 68 66 62 59 56 54 51 50 52 54 43 36 28 30 28 36 50
92 84 81 77 76 74 72 68 64 62 59 55 50 46 46 45 45 47 48 48 50 52 52 51 56 60 60 61 68 69 67 61 57 52 49 48 48 43 34 30 27 29 33 45 56
75 73 71 70 70 66 64 62 59 57 52 49 47 45 45 42 41 43 43 46 53 50 54 51 54 60 60 60 64 69 67 63 60 55 50 47 48 36 35 31 32 32 36 52 59
64 67 67 62 59 59 59 57 53 49 45 49 46 42 39 38 38 37 39 47 47 52 54 51 52 55 61 62 64 66 68 66 63 62 62 58 54 43 39 28 36 36 44 59 59
64 59 58 55 52 54 53 52 49 47 45 45 44 36 35 35 33 35 39 44 45 51 50 48 50 53 57 61 61 61 66 69 66 61 59 55 49 41 33 28 38 37 47 61 57

GFSSW_250_spd_087.txt.gz
Wind_Speed
46 50 53 56 59 59 60 58 57 61 60 58 57 59 61 62 64 63 61 65 57 54 50 52 53 51 55 54 49 49 45 45 50 55 55 61 69 72 64 61 62 57 60 65 62
51 54 59 60 65 66 64 65 64 63 61 58 66 64 62 66 66 64 61 63 61 59 56 56 59 57 55 57 59 55 50 45 56 57 56 58 63 75 72 71 64 57 60 64 68
57 59 61 63 65 66 66 67 66 70 69 70 70 71 70 69 69 66 65 63 64 68 67 62 51 56 51 54 60 62 56 59 58 60 61 59 58 71 73 70 70 69 69 70 69
66 70 68 67 67 68 70 71 69 71 72 78 79 77 75 72 74 73 72 69 71 65 60 55 52 48 56 58 60 63 60 64 64 61 59 63 62 62 68 71 68 67 66 65 62
73 73 72 70 71 72 73 76 75 71 75 79 81 79 79 77 78 74 78 81 76 71 59 58 58 59 67 72 75 66 66 68 66 67 62 64 62 61 55 62 71 73 71 66 64
76 76 77 73 73 77 77 78 76 75 76 82 83 86 86 82 79 80 78 78 68 62 61 71 70 69 80 80 73 72 78 71 73 72 67 65 63 59 58 60 61 65 61 56 58
78 78 75 74 77 79 80 80 78 80 82 82 84 83 85 87 81 83 86 66 59 61 66 74 79 82 85 83 73 71 78 81 75 74 71 70 61 61 63 58 57 61 63 61 54
77 76 75 76 78 82 82 84 84 83 85 84 81 85 84 83 84 82 73 68 71 64 73 81 88 88 86 82 74 72 73 75 78 75 72 74 64 67 69 64 62 58 56 56 57
79 80 76 76 80 82 87 87 90 91 90 87 82 84 84 89 90 88 78 78 73 74 78 83 90 85 80 80 69 68 67 74 76 73 72 71 67 67 63 63 64 60 60 60 60
87 86 84 86 83 86 88 89 92 94 93 91 87 86 85 92 93 88 83 82 83 86 89 86 81 79 76 75 66 69 67 70 74 76 74 75 69 67 66 68 62 57 63 64 66
92 92 90 90 90 93 93 94 93 93 94 89 85 83 95 94 91 90 89 93 92 85 83 81 81 76 72 68 64 64 66 69 73 74 72 74 67 64 68 68 61 64 63 65 64
95 96 98 99 96 97 98 97 98 94 92 89 89 98 91 97 94 93 88 84 80 80 78 78 77 73 67 63 62 61 65 66 70 74 69 68 63 63 70 70 69 65 63 63 66
97 98 98 100 100 103 103 98 97 96 96 96 97 100 95 96 95 88 85 77 75 74 79 76 73 65 66 59 59 59 62 61 63 68 63 64 62 69 68 70 73 64 65 62 59
104 102 106 106 110 111 103 102 99 99 100 98 100 99 94 97 90 87 80 75 78 78 76 69 67 61 63 58 59 57 61 58 61 63 62 61 59 68 71 72 73 68 64 59 61
107 108 110 112 114 113 106 103 101 103 106 100 101 97 96 92 88 81 78 75 74 75 72 66 61 61 59 61 59 58 59 59 60 60 62 61 59 67 75 69 67 68 65 63 66
108 106 110 114 113 112 108 106 107 105 104 104 102 100 95 91 92 83 77 78 76 72 66 65 61 58 58 59 59 58 57 59 59 60 56 61 60 65 69 65 68 72 67 65 68
116 108 110 112 110 114 112 110 107 106 102 98 98 94 91 93 90 80 79 75 75 67 63 61 58 53 55 57 58 57 57 58 56 57 56 60 58 61 59 62 53 60 72 76 76
111 108 109 106 105 109 108 105 104 96 94 96 94 92 97 90 85 76 76 71 69 64 58 55 53 51 49 56 58 57 57 56 56 55 54 61 51 52 51 55 61 64 64 67 72
108 105 107 105 104 102 102 101 99 98 97 97 96 92 94 85 74 74 69 66 67 59 53 52 53 47 46 55 57 58 55 55 52 53 55 56 55 58 57 58 61 61 64 65 68
103 104 102 102 100 99 98 98 98 97 97 99 95 88 86 78 68 67 62 61 62 55 53 51 50 44 46 52 57 58 57 56 56 54 55 59 58 59 61 62 60 61 62 64 69
99 101 100 98 98 98 98 96 98 98 100 94 90 82 76 73 64 63 56 58 57 55 54 52 49 47 46 51 55 59 61 59 57 59 58 61 58 57 68 65 62 62 65 69 68
97 95 96 96 97 97 97 96 96 91 87 84 77 74 71 66 60 56 56 58 53 55 54 50 48 49 50 50 53 59 63 61 58 56 58 62 65 62 61 62 59 61 65 62 51
88 91 91 91 92 91 91 89 83 80 75 72 71 70 65 60 56 57 55 53 51 54 53 50 47 47 50 50 52 56 63 62 58 61 62 64 59 60 67 66 68 66 61 57 50
85 85 87 87 85 83 81 78 75 70 68 69 65 62 59 57 53 53 51 48 52 51 51 49 45 47 47 52 54 56 63 65 63 60 64 61 60 64 61 61 58 50 44 40 40
78 78 76 77 75 72 72 68 66 65 64 62 59 59 56 52 49 47 46 46 49 51 48 45 45 47 48 52 56 59 63 68 68 65 60 60 57 60 57 51 45 39 31 40 37
68 69 67 67 67 66 67 64 62 61 59 58 56 52 49 46 43 40 41 43 45 46 45 43 45 46 52 50 53 60 61 62 66 64 60 55 57 44 39 38 34 29 27 37 37
65 62 63 64 63 64 60 59 58 56 55 52 49 48 41 42 36 36 36 38 37 39 43 45 50 51 48 47 51 57 59 59 65 66 59 54 51 42 39 39 37 31 27 35 34

GFSSW_250_spd_090.txt.gz
Wind_Speed
53 52 50 49 51 51 52 53 56 58 58 58 59 62 63 61 62 59 64 62 54 54 58 59 60 62 62 59 58 59 51 45 46 54 53 54 53 49 48 51 49 53 61 67 57
56 54 53 50 53 55 56 56 59 62 65 63 64 64 64 64 64 62 68 68 64 64 62 64 61 58 62 62 66 63 59 56 55 57 57 58 51 46 55 55 52 52 49 59 59
60 56 57 56 57 57 59 64 68 69 69 68 67 68 68 69 68 63 68 70 67 67 65 66 65 70 71 71 69 66 58 59 53 51 60 63 55 57 56 57 58 55 49 47 62
62 65 61 63 64 65 67 70 71 71 71 70 69 72 72 72 74 65 71 71 72 74 73 71 72 72 73 75 65 52 55 56 57 59 62 61 61 60 60 57 60 58 53 51 56
69 68 69 71 70 72 76 75 73 73 72 73 74 76 74 78 75 73 74 74 75 73 72 72 76 73 78 72 70 61 56 59 65 69 72 71 66 54 60 62 59 59 55 50 48
73 74 75 78 78 77 75 78 78 76 75 76 75 78 77 79 77 77 79 79 78 78 79 81 80 75 74 62 64 68 67 67 63 68 80 79 77 69 61 67 62 59 57 50 49
78 78 76 73 74 78 78 79 79 77 73 73 74 76 79 82 77 82 80 82 80 76 81 80 84 83 70 71 68 71 72 76 80 87 85 84 79 80 75 71 69 61 56 54 48
89 80 82 80 80 81 79 79 79 77 75 77 77 73 81 85 86 87 88 87 82 84 84 87 85 83 77 76 72 76 81 84 85 92 83 88 73 81 82 77 72 62 54 55 56
88 90 82 84 86 88 83 81 80 81 83 83 84 84 77 81 84 87 87 86 82 78 81 86 88 85 78 78 78 86 82 84 82 87 85 85 74 79 84 80 68 65 61 58 60
84 87 91 87 82 84 85 85 86 85 87 88 87 88 87 87 86 87 86 85 77 80 82 87 89 82 80 84 80 83 84 81 77 79 84 77 72 74 81 77 69 64 58 56 52
88 89 85 88 90 85 86 87 88 88 89 86 89 93 90 93 89 91 87 83 83 90 88 90 84 83 89 85 80 83 80 75 71 72 76 65 66 68 77 74 68 57 64 58 48
88 91 94 93 91 90 91 90 89 90 92 91 94 94 98 94 98 97 91 89 93 92 95 89 81 85 82 77 76 75 73 73 67 66 65 63 63 65 73 73 70 68 69 66 60
92 92 96 98 98 97 97 97 96 96 97 94 98 99 98 102 103 100 98 97 95 92 94 90 85 80 80 76 76 72 71 69 64 60 58 59 57 62 66 73 75 73 71 66 62
95 100 97 97 102 101 103 102 99 101 106 101 100 104 108 109 106 103 103 98 97 92 89 79 82 81 76 71 73 72 70 64 58 53 52 57 52 56 63 66 67 75 70 63 60
101 100 105 100 103 105 103 105 105 107 112 104 103 106 109 105 105 106 106 99 93 86 84 81 81 79 72 72 72 68 66 59 52 51 49 53 51 53 60 61 64 66 61 58 55
108 108 106 107 104 108 109 107 109 110 109 107 107 108 109 111 109 105 98 93 91 88 85 81 81 78 73 69 69 61 61 57 50 49 45 50 52 50 55 55 55 56 57 56 56
114 112 112 110 107 108 111 111 114 114 112 109 111 107 104 104 101 97 92 89 89 85 83 82 78 75 71 63 63 57 57 55 47 45 45 51 48 47 47 47 49 53 57 54 57
110 109 109 111 110 108 111 114 113 112 114 111 108 103 99 98 95 91 91 89 95 83 78 78 71 70 63 58 57 50 53 49 47 44 44 46 42 46 41 43 46 48 46 48 52
103 104 109 109 110 108 110 111 112 113 113 110 103 98 96 94 91 91 93 91 90 78 73 68 66 62 59 50 49 48 46 51 45 42 41 43 43 43 42 44 49 40 42 45 47
87 93 98 99 98 98 101 104 103 104 102 101 98 95 93 95 91 88 90 89 83 71 65 64 55 58 50 42 43 43 46 44 45 42 41 43 45 37 36 49 53 53 50 45 50
81 83 85 85 90 92 90 90 94 93 94 93 93 92 92 91 90 87 81 79 66 61 61 56 53 53 42 39 43 42 41 44 46 42 42 44 44 39 47 51 49 50 49 50 54
77 76 80 80 78 79 81 85 88 86 87 88 89 89 90 87 83 78 71 69 59 53 54 52 50 47 43 43 42 41 42 45 44 46 47 44 44 40 50 68 62 51 53 52 53
77 76 72 69 71 72 76 77 79 82 83 84 85 83 80 78 72 67 64 59 55 51 48 50 47 45 45 41 40 41 45 47 49 51 53 55 55 60 61 63 60 56 55 58 57
66 64 65 67 69 69 72 76 77 79 77 77 75 74 72 68 64 61 56 53 52 51 48 49 46 43 43 38 39 41 44 49 53 54 58 61 63 73 67 65 58 61 57 49 54
60 61 64 66 68 69 71 71 71 70 71 69 69 69 67 63 56 54 52 52 49 47 44 44 41 38 43 40 40 44 47 53 56 60 61 64 71 71 68 62 62 59 58 53 55
61 61 62 64 65 66 65 64 66 66 65 64 65 62 57 55 54 52 48 49 47 43 41 42 40 40 42 40 45 46 48 55 59 66 65 65 64 61 62 62 62 61 54 52 56
58 60 58 60 59 60 60 62 62 62 63 61 58 56 51 52 52 47 44 45 39 36 35 37 37 40 43 42 48 48 46 59 62 61 61 55 52 61 61 62 61 52 54 55 45

GFSSW_250_spd_093.txt.gz
Wind_Speed
56 55 52 55 60 61 57 55 52 51 54 57 58 55 54 57 59 58 60 60 60 60 60 60 58 56 53 58 59 58 51 45 48 52 57 61 60 58 57 56 56 55 52 49 46
64 61 57 56 59 62 61 60 57 56 56 58 58 61 60 62 64 64 60 61 61 63 63 64 62 59 59 60 60 65 66 65 67 66 67 67 66 63 62 56 54 59 56 56 51
65 65 61 57 61 61 63 62 62 60 60 61 62 62 63 67 67 67 61 59 58 62 67 68 66 66 64 62 65 65 62 68 68 67 64 64 67 64 61 62 60 61 60 59 53
68 67 64 58 62 62 65 63 65 64 65 69 68 72 71 72 71 61 63 60 61 66 71 71 71 69 68 70 72 72 73 71 66 72 72 68 66 65 62 62 62 67 65 64 60
70 70 65 64 63 67 70 68 71 69 71 71 75 73 70 71 75 66 69 61 62 70 75 75 76 76 75 74 76 74 75 75 73 70 66 67 65 68 66 68 69 65 69 68 65
72 73 72 69 66 70 72 69 72 74 77 75 72 72 70 74 70 72 66 64 64 68 74 76 77 77 73 70 71 77 81 79 79 80 71 65 64 71 70 77 77 78 71 67 67
76 75 75 77 74 73 77 76 80 78 77 79 79 77 78 76 70 67 74 71 71 69 71 74 75 79 78 76 79 82 77 79 80 78 73 77 72 70 77 84 82 77 81 78 68
78 78 81 80 75 78 79 81 82 82 82 82 82 80 79 76 76 71 74 74 73 75 71 77 77 74 78 78 77 78 79 80 84 80 71 79 71 74 76 82 88 92 84 82 82
83 82 81 82 82 80 78 80 85 84 85 86 81 79 77 78 75 75 73 76 76 78 79 83 81 82 82 81 78 83 83 83 79 82 78 85 79 75 88 93 95 97 93 81 81
83 83 85 84 83 83 82 79 82 83 85 86 85 87 83 81 80 82 84 86 85 83 85 86 87 84 90 90 80 87 90 88 81 81 83 79 81 77 82 80 82 84 85 80 78
89 86 87 86 86 88 88 86 83 85 87 89 85 82 81 83 83 82 83 84 86 86 88 91 85 92 94 92 86 86 89 86 80 80 81 75 72 71 72 72 71 74 77 75 70
95 95 90 90 88 87 86 83 84 82 84 84 86 87 84 84 85 88 87 89 88 92 93 89 91 96 97 91 90 91 90 83 76 79 80 77 70 68 68 67 67 69 65 66 64
97 95 90 89 87 88 85 87 88 88 87 90 89 90 93 92 93 92 93 94 95 100 100 97 101 93 95 100 102 93 85 80 76 78 79 76 66 65 63 61 60 60 57 58 58
100 99 101 92 92 91 91 90 92 90 91 92 96 97 96 98 98 97 97 100 100 100 102 99 93 99 105 93 92 84 88 83 78 76 73 73 60 60 58 55 54 55 50 51 52
107 105 106 106 99 102 99 94 97 97 100 94 98 104 106 104 102 100 100 103 104 104 105 104 103 98 96 92 88 78 81 82 79 73 66 62 59 51 54 49 47 44 46 48 53
113 113 117 115 112 108 110 106 104 105 106 101 99 103 105 110 109 103 103 107 110 107 105 97 93 91 90 85 81 80 82 76 69 64 54 62 49 46 49 41 36 38 39 46 50
114 118 116 116 115 111 109 112 112 111 109 108 105 109 109 109 111 112 109 108 108 111 96 91 86 87 87 81 79 81 75 69 58 59 49 50 40 42 38 31 32 33 37 41 49
109 109 108 102 105 101 107 108 109 109 105 106 110 110 108 111 110 111 111 112 110 97 88 81 75 86 80 79 77 73 71 62 56 51 46 42 35 38 31 31 32 33 34 33 44
85 89 94 97 99 98 97 96 97 99 102 106 109 108 109 108 110 110 109 109 101 88 80 78 69 77 80 74 66 62 55 55 46 44 37 36 34 33 27 26 27 33 41 41 39
73 81 87 86 86 89 89 89 90 90 92 94 97 97 99 100 99 94 93 93 88 80 77 77 67 71 71 63 59 55 52 47 41 36 32 33 34 24 19 28 39 42 40 40 37
61 63 64 65 69 71 68 70 71 72 73 75 76 78 78 77 79 82 82 80 78 77 72 67 62 51 64 55 57 51 44 41 36 33 33 33 32 43 42 36 40 40 45 45 45
57 60 59 64 65 65 68 65 64 64 69 71 70 70 69 71 73 75 76 75 72 68 63 59 48 45 53 55 52 47 39 36 33 33 35 35 34 48 55 54 50 54 46 45 47
58 60 62 63 66 65 65 65 69 68 66 67 66 67 69 71 72 72 72 65 66 61 60 52 44 40 49 51 45 40 37 37 37 35 38 39 43 47 56 60 54 57 45 47 50
63 60 62 63 65 66 69 70 71 65 63 64 66 68 70 71 69 66 64 62 61 56 53 46 42 38 47 44 41 39 37 38 40 37 42 45 51 57 61 64 67 62 53 47 49
59 59 63 65 65 66 70 72 64 64 65 64 64 65 66 65 63 60 58 57 53 50 45 42 41 35 39 37 39 38 37 37 39 44 46 52 60 62 62 64 68 63 58 52 47
64 64 67 65 66 69 66 66 64 63 63 61 61 62 62 59 56 55 52 46 48 44 41 39 35 35 34 34 36 34 39 43 46 48 53 62 68 67 64 63 61 59 50 44 49
57 66 63 59 63 62 60 59 59 57 57 59 59 58 56 53 49 49 46 47 44 39 37 33 32 35 32 31 34 37 46 45 43 50 57 66 66 65 70 65 60 57 53 49 46

GFSSW_250_spd_096.txt.gz
Wind_Speed
63 63 60 58 59 60 60 62 59 57 57 56 59 54 51 55 56 58 61 59 60 61 62 63 61 54 51 54 54 55 51 50 49 49 50 59 57 57 54 58 62 60 60 59 66
69 68 66 68 67 66 67 67 65 59 58 60 60 59 56 58 59 59 60 59 60 61 63 64 57 52 52 54 52 59 56 55 55 56 56 62 62 64 62 60 58 61 59 65 66
77 76 74 74 75 74 71 69 68 63 61 60 59 62 58 61 63 64 62 64 65 68 66 64 58 54 56 56 60 63 62 63 64 68 68 68 65 69 69 68 63 62 65 65 72
79 79 79 78 80 78 76 71 68 65 64 63 57 60 62 62 65 62 70 68 68 70 69 67 59 54 53 56 61 58 62 66 68 69 66 66 67 71 67 67 70 66 65 71 75
81 82 83 84 82 78 77 72 70 69 66 65 60 63 65 65 67 66 69 72 67 66 65 67 67 60 59 63 66 63 65 63 64 64 65 67 69 73 77 73 73 72 70 70 76
80 80 79 81 80 78 76 77 73 73 69 69 66 64 71 72 68 73 74 73 72 75 75 70 67 65 65 66 68 67 63 64 64 67 68 72 70 71 70 72 70 69 70 70 78
83 79 78 76 78 79 79 79 79 77 76 75 71 68 70 76 73 77 78 77 75 78 75 72 72 68 66 69 69 67 69 70 73 74 71 80 61 71 75 81 76 74 72 71 76
88 87 82 77 82 81 81 82 82 82 80 81 78 75 81 80 80 79 78 78 75 78 77 72 70 68 70 75 77 76 71 71 78 78 80 82 61 73 79 84 73 72 72 76 80
90 89 90 86 86 83 80 83 85 84 84 85 82 80 85 84 85 85 83 82 82 80 82 80 74 72 79 81 77 78 74 77 76 83 83 91 69 72 76 78 73 72 74 79 81
97 92 89 90 87 88 85 83 87 86 87 89 83 85 83 83 84 83 83 85 84 84 84 80 78 78 82 81 79 82 79 79 82 86 92 91 75 77 79 80 75 72 73 76 82
100 96 94 97 91 87 90 86 87 85 88 87 90 89 86 84 86 85 83 85 85 80 82 80 78 83 86 86 85 84 86 85 84 86 99 88 87 82 81 77 72 69 67 70 76
105 103 101 99 97 95 90 90 90 92 91 90 89 91 90 90 89 89 90 87 86 89 87 85 84 89 86 89 88 90 91 92 89 96 98 97 91 87 79 75 75 70 67 66 67
108 105 103 102 100 98 93 94 93 87 91 94 89 88 89 86 87 88 87 87 86 87 86 87 91 91 91 92 92 95 98 97 95 97 101 96 85 78 76 73 72 69 65 64 61
113 112 107 106 102 99 97 98 99 91 91 91 89 86 85 84 87 88 89 90 89 90 90 89 96 96 96 96 102 96 103 101 102 99 90 86 75 72 76 76 75 62 59 57 55
117 116 109 111 108 106 104 105 101 95 98 94 92 92 89 90 94 96 94 93 96 97 98 100 98 101 101 102 104 100 103 102 100 89 83 72 81 57 69 75 66 51 51 49 45
113 111 113 114 112 108 109 109 106 104 103 99 98 100 98 101 100 101 104 104 106 103 102 102 108 107 109 107 107 103 101 95 88 83 80 72 77 56 64 57 52 47 42 39 41
106 106 105 112 114 110 107 109 109 110 109 104 104 107 106 106 108 108 108 110 110 108 107 106 107 108 109 106 106 103 97 88 82 84 73 69 65 54 58 47 42 38 35 36 39
83 89 93 99 102 101 106 103 110 110 109 109 110 108 111 107 105 105 106 108 108 108 107 109 108 110 111 101 96 93 86 82 84 75 64 61 49 50 40 38 35 31 32 33 36
73 76 80 86 90 95 100 101 102 106 105 108 109 110 105 101 96 100 105 105 100 102 105 105 104 104 104 93 83 79 79 81 79 66 48 49 43 36 32 32 28 33 37 34 36
64 66 69 71 76 82 83 87 93 92 98 96 100 94 90 93 91 90 96 94 93 89 88 81 73 73 74 77 80 75 75 75 70 52 39 43 34 32 28 26 29 27 26 34 37
56 59 54 57 60 61 59 64 70 74 77 78 76 70 65 67 72 75 77 77 75 74 72 72 69 60 66 75 75 73 65 64 58 42 37 34 32 31 33 32 40 35 39 41 40
39 41 43 47 51 51 52 59 59 60 58 59 57 59 60 62 66 67 67 66 66 67 67 66 60 52 57 65 68 63 60 53 45 35 36 32 30 33 43 42 37 49 49 44 39
38 39 42 46 42 41 42 46 48 51 53 57 58 60 63 62 62 62 62 62 63 62 60 58 52 46 48 58 59 57 49 48 38 30 36 34 34 50 47 46 50 54 53 49 42
35 40 43 45 43 42 44 48 51 53 57 58 59 61 63 62 61 61 64 60 60 56 55 53 50 44 44 50 45 45 45 41 32 31 35 39 41 59 57 52 49 60 56 51 40
39 40 42 42 44 47 51 49 52 56 58 61 61 62 62 61 64 62 60 58 56 53 51 47 44 43 39 41 38 42 43 37 31 38 38 45 50 69 66 65 60 61 65 54 45
47 43 43 45 49 52 52 53 58 58 56 59 60 58 59 60 60 59 55 53 52 48 43 42 41 36 38 31 33 37 40 37 34 38 42 50 57 69 75 73 71 66 64 58 52
45 45 46 49 51 54 58 52 52 53 55 54 55 56 56 54 52 51 49 48 46 43 38 38 34 30 28 28 31 36 36 32 33 42 48 57 61 60 73 75 71 67 64 53 50

GFSSW_250_spd_099.txt.gz
Wind_Speed
72 71 69 67 70 68 69 66 67 64 61 60 59 60 59 62 59 62 62 61 58 61 61 62 63 62 61 59 60 60 52 47 48 50 51 60 56 53 52 56 60 60 59 57 53
73 74 71 72 71 71 69 72 71 70 67 69 65 65 65 64 64 62 62 63 63 63 64 64 63 63 62 63 61 61 57 54 49 52 52 56 57 61 60 62 64 63 62 60 58
82 85 84 85 82 80 80 80 79 76 73 71 71 70 68 67 67 64 62 63 67 66 65 66 65 67 65 65 67 63 55 53 51 53 54 54 55 56 58 59 60 66 69 66 63
90 87 87 85 87 83 83 82 82 77 75 75 73 73 71 71 68 66 66 62 67 70 66 66 67 70 70 67 63 59 60 60 58 58 58 56 54 58 61 60 62 66 68 69 69
88 89 85 85 84 83 84 85 85 83 80 80 76 74 73 73 73 66 70 66 64 66 69 68 67 68 70 67 69 68 63 64 65 65 63 62 60 60 59 59 64 66 69 69 71
85 87 84 84 83 84 82 84 85 86 83 80 75 72 73 76 72 71 72 73 70 70 72 72 71 72 71 71 74 73 67 65 66 67 67 64 64 63 61 68 65 67 62 66 68
88 91 88 85 87 86 84 82 81 79 80 76 74 72 73 79 75 76 77 77 77 76 75 76 76 75 75 73 76 74 72 66 69 72 70 69 63 66 70 70 69 66 68 70 65
97 96 97 92 88 90 87 87 87 85 83 78 77 77 77 77 79 81 82 84 80 80 81 81 82 81 82 79 77 78 76 74 78 80 78 73 60 72 74 70 66 71 74 76 66
100 101 98 100 92 92 90 89 91 88 86 81 81 81 82 81 80 81 81 86 85 83 86 87 89 89 88 87 86 86 85 87 84 88 87 81 69 73 78 76 69 72 77 80 77
106 108 103 101 99 97 92 92 92 89 89 88 87 84 83 81 84 83 83 86 87 87 87 89 88 89 92 88 83 88 87 85 84 91 88 83 72 73 78 77 76 79 81 83 82
111 110 110 107 107 99 96 95 96 92 90 89 86 89 88 87 86 87 86 85 87 89 90 88 88 92 91 89 88 89 91 90 88 93 93 90 75 78 80 83 85 87 88 88 81
119 116 116 115 114 109 104 99 100 101 93 93 89 87 90 89 91 88 85 85 87 87 89 88 89 96 91 92 93 94 93 91 91 95 93 92 78 82 88 88 91 92 92 89 77
122 122 124 120 116 113 112 109 106 107 100 98 99 92 94 88 91 92 93 90 88 89 88 89 94 96 93 90 90 91 92 92 91 96 94 95 86 88 91 94 92 97 90 77 71
124 122 118 125 116 114 110 113 111 106 106 98 102 104 99 94 91 92 93 87 84 85 85 84 88 87 87 89 93 90 97 95 95 98 97 101 101 93 97 92 95 89 77 70 68
117 123 121 117 112 112 107 107 109 107 108 105 103 100 103 101 96 95 93 93 88 88 88 90 92 93 93 97 98 98 103 106 108 109 110 102 104 82 97 86 83 79 74 67 63
116 113 121 113 107 105 102 110 105 105 102 102 101 100 101 103 103 98 96 95 95 94 94 95 98 100 101 103 107 109 110 110 111 111 108 104 98 87 96 83 71 72 70 65 62
95 92 100 103 97 101 105 104 106 103 103 103 102 102 103 104 105 101 99 100 101 101 101 100 103 106 106 110 112 110 110 111 112 111 109 107 95 91 81 70 68 66 64 56 52
76 78 79 82 84 87 92 100 99 92 98 95 99 104 104 107 106 103 103 100 103 104 104 106 106 109 110 111 109 112 111 112 110 104 103 99 79 70 66 63 63 58 48 44 45
62 64 68 71 73 73 73 75 81 84 89 90 93 102 106 103 103 99 97 96 98 103 104 106 108 111 111 108 105 105 108 109 103 92 81 67 67 61 59 56 50 41 40 39 38
54 59 58 59 61 61 61 65 69 73 78 81 86 87 90 92 92 94 97 93 90 91 93 94 97 98 98 102 104 100 94 92 86 75 67 56 57 56 50 46 40 37 35 36 36
46 48 51 52 50 52 53 57 58 61 65 67 69 72 77 77 75 79 76 76 73 73 77 82 87 86 86 90 89 86 82 80 78 74 64 51 41 43 41 38 35 35 37 40 41
39 38 42 43 43 45 44 43 45 47 48 51 53 53 55 57 59 60 61 63 65 70 73 75 76 74 76 79 77 78 78 74 65 62 55 39 35 35 36 34 38 41 45 45 46
32 34 35 34 33 32 33 34 36 36 39 44 46 47 46 49 52 55 60 65 67 70 70 71 71 68 68 70 71 71 70 69 62 50 45 35 39 34 36 42 45 47 46 44 45
32 30 28 31 32 33 32 32 33 34 37 39 40 43 47 51 57 60 64 62 62 64 65 63 62 59 54 60 58 57 53 55 52 42 41 36 39 36 42 50 52 55 52 47 43
37 35 36 34 33 32 34 34 30 35 37 38 43 49 53 55 58 60 60 59 60 59 57 53 51 52 53 50 45 42 47 48 39 39 33 41 37 42 51 56 57 61 58 53 45
37 32 29 28 30 32 33 33 33 36 39 45 49 52 56 58 54 56 56 58 56 51 50 48 49 48 47 42 35 44 46 41 38 33 41 39 41 52 63 65 63 62 65 61 58
33 29 29 31 31 32 34 36 39 41 47 52 54 56 54 52 54 53 53 53 50 49 46 42 40 41 44 36 42 44 38 38 36 40 42 40 44 58 66 67 66 67 62 61 54

GFSSW_250_spd_102.txt.gz
Wind_Speed
75 77 76 74 72 71 74 72 70 67 67 64 64 63 63 64 64 63 61 63 61 61 61 62 62 61 61 63 62 62 57 59 62 61 60 62 58 60 56 53 54 52 49 48 52
76 76 74 75 75 72 74 75 77 74 75 70 70 69 67 69 71 67 68 66 67 67 64 65 62 62 64 64 63 64 59 62 64 63 58 56 56 58 53 53 54 55 55 54 53
82 82 79 82 81 81 81 82 86 84 84 84 81 77 78 74 74 74 72 69 67 70 69 66 66 63 64 64 65 62 61 66 65 66 63 60 63 60 62 58 59 60 58 54 55
87 91 94 92 88 92 90 86 90 89 89 91 83 82 80 79 80 76 73 76 74 70 70 67 67 67 63 64 68 63 64 68 68 68 64 64 67 65 63 63 64 62 60 59 55
88 89 92 92 90 90 91 89 89 90 90 86 84 80 82 79 82 75 78 79 76 73 70 70 68 68 67 63 66 67 68 68 71 68 64 66 65 62 64 65 67 64 64 67 64
97 97 96 92 95 93 92 94 88 90 83 83 85 80 81 81 80 81 77 79 77 75 73 72 71 69 69 70 69 69 70 72 72 73 71 68 69 68 63 70 67 69 70 70 67
98 102 97 95 91 91 95 93 89 88 89 85 85 85 79 86 77 76 77 74 75 70 73 74 75 73 71 74 77 77 76 76 79 79 76 76 71 70 68 70 75 74 74 76 73
95 100 99 97 99 94 93 95 95 96 95 92 87 87 84 89 82 82 78 79 75 75 75 76 75 76 76 79 80 80 80 80 83 84 85 82 74 77 82 83 84 81 82 78 79
102 103 105 105 101 104 98 98 96 98 97 96 94 92 87 88 88 85 85 82 78 79 80 79 78 79 80 83 82 82 83 83 85 91 90 87 82 84 88 90 86 83 80 81 81
107 112 111 110 114 109 107 109 106 103 103 101 98 95 91 87 88 91 90 87 85 83 82 83 81 79 84 85 83 85 85 86 86 91 89 85 79 82 86 87 90 88 87 85 85
112 113 117 114 118 116 118 117 110 113 108 104 104 100 95 90 89 88 88 88 88 86 85 84 82 84 89 86 85 84 86 89 91 92 88 87 81 86 88 90 92 93 92 89 86
117 115 116 118 118 120 120 120 118 118 113 113 113 104 99 98 92 90 88 90 91 91 91 89 84 88 88 86 87 85 85 88 90 94 89 89 84 87 91 92 93 93 90 89 85
120 121 123 122 124 125 124 125 116 117 116 110 111 108 109 104 99 100 96 95 93 92 93 91 91 90 88 89 88 89 89 90 90 95 95 94 87 91 91 91 93 93 90 92 93
128 128 129 131 131 131 128 125 122 117 116 103 107 108 107 105 93 104 102 101 96 96 94 93 95 92 92 89 93 92 95 93 91 92 91 96 87 87 93 97 99 96 95 91 87
130 132 130 129 129 130 128 127 122 116 110 103 88 89 98 102 100 104 103 102 101 101 98 97 97 96 94 92 93 90 95 97 97 99 95 97 101 86 95 103 102 95 91 88 86
128 129 130 129 126 127 124 114 114 111 105 103 94 86 91 94 93 97 100 100 103 101 99 98 99 100 98 97 96 97 97 100 102 103 99 100 105 93 101 101 101 96 93 93 85
123 119 117 107 103 99 97 102 100 88 93 93 90 87 87 90 90 89 92 93 96 101 99 97 98 98 98 98 100 103 106 107 106 104 101 104 103 98 102 102 94 92 90 79 74
86 84 83 82 79 77 80 82 78 78 82 82 81 80 79 81 82 86 87 89 96 97 95 94 96 96 97 101 104 104 105 105 104 103 103 104 102 99 100 95 92 83 68 61 59
73 68 67 65 67 68 67 65 65 67 69 67 68 70 73 71 72 78 82 87 88 87 89 91 93 95 98 99 100 100 99 98 101 101 101 97 95 91 89 85 75 62 59 56 56
61 59 57 59 56 56 55 53 56 57 55 56 58 58 61 65 69 71 80 80 80 84 85 87 90 92 91 93 93 92 93 97 99 98 94 85 80 76 73 69 64 57 57 51 46
55 53 51 50 47 45 44 46 47 47 44 45 47 50 53 56 60 63 66 68 69 72 75 79 81 78 80 83 83 86 87 88 88 87 77 70 65 65 63 56 53 55 48 43 38
52 48 43 39 36 34 36 38 39 36 36 35 38 40 42 45 49 51 53 50 53 57 59 62 62 64 71 76 80 82 85 83 79 78 76 69 57 58 53 49 51 47 43 38 34
42 40 38 32 26 28 29 33 31 31 29 32 34 35 36 39 39 39 41 43 46 51 52 57 61 68 72 73 78 79 80 78 79 74 67 64 54 52 43 45 44 44 40 37 37
34 35 31 25 24 27 27 26 23 23 24 27 28 31 34 34 36 39 42 45 47 52 57 61 65 69 71 74 74 74 75 74 69 65 62 53 51 42 42 44 44 42 36 39 41
29 32 30 24 27 27 24 23 21 22 22 22 26 30 32 35 39 42 43 46 52 56 61 63 67 70 69 68 64 60 59 69 60 51 52 52 42 41 44 46 48 43 41 43 44
33 32 29 28 31 29 27 27 25 26 22 24 28 32 35 37 39 43 48 52 55 60 63 64 64 61 55 58 53 46 59 56 50 43 46 44 39 40 42 47 50 46 46 50 50
34 33 30 29 32 30 29 27 30 33 31 32 33 34 36 39 43 49 55 58 61 63 61 57 54 47 46 51 45 49 44 43 41 36 38 37 39 37 42 46 49 49 51 50 49

GFSSW_250_spd_105.txt.gz
Wind_Speed
74 74 74 77 76 71 73 75 74 75 75 70 70 68 69 65 65 62 62 62 64 62 61 62 58 58 60 59 57 60 55 54 60 63 65 65 63 61 59 58 54 52 52 52 51
79 82 83 84 80 78 75 75 75 73 72 72 73 71 71 75 74 72 71 69 69 69 65 66 66 64 62 60 60 58 58 58 62 63 63 65 65 65 60 60 60 58 57 56 53
79 84 86 84 85 81 79 80 80 81 78 78 82 80 79 80 84 80 80 78 80 80 77 71 70 70 66 61 62 59 58 63 61 66 63 62 67 64 63 64 65 61 60 57 53
78 83 86 80 79 83 84 85 83 79 82 83 84 78 78 83 87 87 82 81 82 76 76 75 71 70 69 65 64 59 60 64 61 64 64 65 65 66 65 65 68 62 62 64 56
85 86 92 94 90 90 92 92 90 90 90 91 88 91 89 86 88 85 79 81 79 79 76 77 73 70 69 68 66 62 63 63 64 64 65 65 66 69 65 72 72 70 64 63 62
85 92 94 98 97 93 95 97 96 93 90 90 89 88 88 88 88 83 82 78 76 78 74 75 74 77 70 69 66 65 64 66 64 65 66 67 67 65 69 73 71 69 64 65 70
91 96 99 99 100 98 99 94 95 92 92 91 90 88 86 93 87 87 85 84 85 79 77 77 75 75 72 69 68 65 66 67 70 71 69 70 70 73 72 76 74 72 72 77 79
97 101 102 104 100 95 100 100 97 96 93 92 93 88 85 89 88 90 90 89 90 85 81 81 78 79 76 73 73 71 68 72 72 74 74 73 70 72 74 75 78 81 81 78 79
104 104 106 106 105 100 99 103 101 104 98 95 97 98 92 95 96 94 95 93 92 91 88 87 82 81 81 81 80 76 75 73 74 78 81 79 75 77 78 79 80 80 82 82 83
105 101 105 106 108 109 106 109 109 110 108 98 100 102 101 99 100 100 99 101 92 93 91 91 88 84 84 87 84 81 79 80 78 82 80 78 78 78 80 83 84 84 83 84 85
103 105 106 107 107 107 110 109 113 117 110 109 107 109 106 105 109 107 105 100 101 97 95 92 88 85 87 88 87 85 83 82 82 82 77 80 80 82 83 83 86 87 87 85 86
108 109 107 109 111 112 112 114 118 120 121 119 121 111 109 110 108 108 107 106 103 105 102 97 92 90 91 88 87 88 86 84 83 85 81 82 80 83 86 85 83 83 86 86 85
118 115 113 113 113 115 118 123 124 127 129 123 125 117 117 115 107 104 106 105 106 106 106 102 96 94 94 94 91 88 87 86 86 88 87 84 79 85 90 91 91 91 90 90 91
130 124 119 120 118 119 123 129 131 132 137 126 123 119 118 114 104 104 102 103 103 102 102 101 98 99 98 96 98 95 93 90 91 90 89 87 80 82 90 95 97 95 92 90 91
126 124 124 124 126 128 126 131 132 132 138 129 125 121 115 113 110 105 103 98 97 103 99 98 99 100 100 100 101 100 99 98 94 92 91 87 87 79 88 94 97 96 94 93 92
128 129 132 130 132 132 130 131 127 135 131 122 119 115 105 101 99 96 92 88 89 88 85 86 92 96 102 102 101 101 101 101 100 95 90 91 93 82 89 91 96 99 101 99 97
131 130 130 134 129 129 125 125 128 122 119 113 99 90 83 84 81 79 79 80 81 80 80 84 87 87 91 95 102 104 101 99 99 97 93 93 92 89 93 97 97 96 97 95 92
126 128 130 124 119 118 117 115 106 96 91 83 78 74 74 72 68 68 67 68 72 74 76 79 81 84 86 90 91 93 95 96 94 97 98 98 92 92 95 96 94 94 92 89 87
122 119 116 112 103 94 87 78 78 79 76 70 66 62 60 56 60 59 60 61 63 67 71 75 79 80 80 83 85 86 87 90 94 93 93 93 93 94 93 92 89 87 85 82 75
95 90 88 81 75 73 70 66 69 65 63 60 56 53 52 50 48 51 54 55 56 58 62 68 72 74 77 80 80 82 85 86 89 90 90 88 90 88 84 82 79 79 75 66 58
74 71 68 65 62 62 60 56 54 50 49 49 49 47 44 41 42 42 44 47 49 53 58 61 63 65 69 71 73 76 80 82 85 86 86 83 80 76 73 70 70 65 59 57 56
62 63 61 52 51 48 46 43 37 37 39 41 40 39 37 33 32 33 34 37 41 46 49 50 52 56 59 63 69 71 73 75 77 77 78 77 66 64 62 62 58 54 51 50 49
53 58 47 46 45 41 36 33 30 31 33 33 35 37 34 31 29 28 30 34 37 41 42 44 45 51 54 57 60 63 68 71 71 68 68 68 59 58 60 56 52 45 46 48 45
47 47 39 43 41 36 35 30 24 23 27 26 28 29 29 27 28 29 32 32 33 35 38 42 44 49 51 54 58 61 64 68 66 63 64 57 59 57 48 45 46 39 43 41 39
42 39 44 38 39 37 33 28 22 23 25 25 21 23 22 24 26 26 26 29 31 33 38 41 45 49 52 56 58 61 64 68 64 61 48 53 52 56 39 41 38 38 38 37 37
42 44 36 33 34 34 30 25 25 23 22 20 18 19 21 21 21 23 26 31 36 40 44 46 50 54 58 61 60 59 63 63 58 55 46 42 47 40 36 38 36 36 36 37 37
46 39 32 30 34 30 30 26 26 23 20 20 20 20 19 20 24 28 32 34 38 43 47 50 54 56 57 59 55 56 60 53 50 49 41 39 42 33 35 32 35 32 36 40 40

GFSSW_250_spd_108.txt.gz
Wind_Speed
78 76 75 77 72 69 70 68 71 68 73 72 74 73 73 71 72 69 65 67 63 66 64 59 56 61 61 62 61 59 53 51 59 62 62 64 61 61 59 60 60 60 56 55 49
81 82 80 81 77 76 77 73 74 67 72 76 78 74 75 75 72 72 68 67 69 69 67 68 70 69 64 64 64 63 61 61 61 62 63 64 62 60 60 59 60 61 58 55 54
83 86 84 84 79 79 79 71 73 72 76 80 81 76 75 77 80 77 75 74 75 80 78 80 79 71 74 67 64 67 64 65 66 64 60 64 65 61 60 58 63 60 58 56 59
80 82 82 86 84 87 87 86 76 75 80 78 74 78 80 78 80 80 83 83 84 83 84 84 81 77 75 69 71 63 65 64 65 65 62 64 66 63 59 57 60 59 59 58 61
81 85 85 89 90 90 89 85 80 76 81 86 88 88 88 83 86 85 83 85 86 83 82 80 81 78 74 73 69 66 65 65 63 64 63 60 63 65 60 62 61 57 59 62 63
92 89 91 92 92 93 87 81 80 83 83 85 86 91 90 86 91 93 89 87 83 82 79 79 81 82 80 79 75 72 71 67 64 63 62 62 60 60 65 64 61 62 63 64 65
100 97 94 91 92 91 88 85 82 84 91 91 89 90 84 86 90 89 89 88 90 88 82 79 83 85 84 83 80 77 75 71 71 68 64 62 59 59 64 67 65 64 66 68 69
105 102 97 97 95 92 90 90 92 87 92 89 94 91 86 88 88 86 88 92 91 90 89 85 83 84 85 86 86 82 79 78 73 72 70 66 66 65 66 67 69 71 72 71 71
107 102 98 101 99 98 96 95 98 97 100 96 90 90 89 92 94 93 92 94 94 94 89 90 88 89 87 90 90 85 84 82 79 77 77 75 72 70 73 72 74 77 78 79 78
107 105 105 101 100 102 103 104 105 103 100 99 98 97 96 93 92 94 96 98 100 99 98 98 100 96 93 89 91 93 85 86 83 82 81 77 77 75 77 78 79 79 80 79 79
104 106 103 102 105 108 113 114 107 105 105 106 104 102 100 107 104 102 103 102 103 106 105 103 104 101 100 99 99 94 91 84 82 85 84 82 80 81 82 80 81 81 79 80 82
103 103 105 106 105 106 104 106 106 112 114 114 117 111 113 111 106 109 110 111 114 114 114 112 108 105 100 98 99 98 93 88 85 86 84 84 83 85 85 85 82 82 82 82 83
105 103 105 107 108 107 114 116 114 115 125 118 121 117 121 120 116 106 112 114 117 121 118 120 114 109 104 100 98 98 94 94 92 89 86 86 84 85 86 86 86 84 83 83 83
110 109 113 112 116 116 118 124 122 124 133 126 124 126 128 123 120 119 118 117 118 118 120 118 115 108 107 99 97 96 100 99 97 97 91 86 86 85 88 89 89 88 87 86 85
116 117 119 123 124 126 127 131 131 134 139 135 134 133 128 125 119 113 118 118 112 113 113 112 111 108 100 96 94 91 91 96 96 97 93 89 89 91 90 93 94 93 93 90 89
123 125 127 132 132 132 137 136 139 141 141 138 131 126 125 123 115 106 107 111 110 105 101 101 95 91 87 90 93 94 93 92 92 93 91 94 93 92 92 94 96 95 97 95 93
132 130 134 136 141 141 136 139 140 138 133 126 125 128 122 115 102 103 98 94 88 85 81 82 82 82 82 85 90 92 90 90 90 92 91 90 95 99 93 94 95 93 95 96 97
140 131 133 137 134 131 132 135 133 125 126 124 120 116 109 101 92 84 78 75 77 75 72 69 68 68 69 74 79 82 83 86 87 88 86 83 86 92 94 96 96 98 94 94 97
127 127 132 132 129 125 125 129 123 118 113 107 98 90 86 78 71 69 67 69 68 64 62 58 59 58 61 67 69 73 78 79 80 80 82 82 85 87 88 90 91 94 95 96 96
123 120 115 113 106 100 101 105 98 91 84 81 78 72 67 64 64 61 61 59 58 55 53 51 49 51 55 59 63 66 69 72 77 79 80 79 82 86 84 88 90 92 93 92 91
105 100 94 94 100 92 87 81 72 69 67 65 62 59 59 58 57 56 54 50 48 49 47 45 45 47 50 51 55 59 62 65 71 73 76 78 79 78 82 85 88 89 87 85 82
90 88 85 82 83 75 68 62 60 58 56 52 52 53 53 53 51 49 48 46 44 43 38 38 39 41 42 43 45 48 52 59 63 66 71 73 74 74 77 81 81 78 74 71 70
75 72 69 64 62 59 56 54 48 46 46 46 46 43 40 38 36 36 38 37 37 35 32 34 34 36 37 39 44 47 50 54 58 63 65 69 70 69 71 72 66 65 66 64 61
67 65 61 55 54 51 46 43 40 42 40 38 35 31 29 29 29 32 34 33 33 31 29 31 33 35 36 38 43 47 50 55 58 59 61 59 62 63 63 64 57 62 56 54 49
63 58 53 48 49 47 44 41 39 36 34 31 26 26 23 21 28 32 30 31 30 29 30 33 35 35 36 40 44 46 49 53 55 58 54 57 52 65 56 48 46 40 42 41 37
57 52 49 47 46 42 37 36 37 35 32 27 24 21 20 22 23 24 24 27 31 33 34 33 34 35 39 43 46 47 51 53 54 55 51 53 54 47 49 46 32 35 36 35 34
51 47 43 42 42 39 37 36 35 33 33 26 22 22 21 20 21 23 26 27 28 28 28 31 35 40 43 49 49 49 56 55 52 53 50 46 41 39 43 35 35 31 32 31 32

GFSSW_250_spd_111.txt.gz
Wind_Speed
76 77 72 73 75 71 74 73 73 76 74 71 74 73 73 73 69 64 66 71 71 72 69 69 60 56 57 54 57 64 60 59 61 62 65 64 60 58 55 57 54 52 56 56 54
81 77 78 72 77 77 74 74 73 74 80 77 76 72 74 73 71 67 71 76 78 74 72 74 72 69 70 68 64 68 70 76 73 64 63 64 61 64 58 60 59 59 55 54 56
82 78 82 75 76 81 76 76 74 73 74 77 78 77 79 73 75 73 73 71 66 71 72 74 75 76 77 75 75 78 76 70 65 65 62 60 62 64 64 61 60 59 59 55 54
90 85 82 85 77 82 75 73 74 81 77 77 78 79 81 83 79 74 77 80 84 86 85 79 80 80 77 77 77 82 80 69 67 65 63 63 61 61 65 63 62 63 59 59 55
92 92 86 88 82 81 82 78 78 83 81 80 80 81 80 79 80 77 79 80 84 85 87 85 84 79 79 80 79 79 80 70 68 66 66 68 61 61 58 60 65 62 60 61 61
86 83 85 84 86 81 79 80 80 84 84 83 82 79 78 76 81 81 84 83 82 83 81 83 85 85 86 84 82 79 72 70 69 70 71 71 69 66 64 63 59 63 63 63 63
90 90 88 91 89 90 87 85 83 90 89 87 84 81 78 79 85 85 86 87 86 87 87 84 86 88 84 80 80 77 80 75 74 77 72 73 69 71 69 67 66 64 66 65 65
95 96 94 93 91 91 95 95 92 90 90 89 88 85 81 84 90 90 88 88 91 92 95 90 86 86 86 89 91 82 81 80 80 76 76 78 74 78 74 69 71 69 69 66 65
99 97 94 95 98 95 94 97 92 91 90 90 90 91 87 88 94 95 97 97 97 96 96 93 88 91 89 89 90 91 87 88 86 79 73 76 80 80 77 75 75 77 74 72 71
95 97 97 100 100 97 94 95 93 92 90 92 94 96 92 91 96 102 103 102 100 98 96 96 100 97 92 97 95 94 99 94 91 94 83 82 81 82 82 80 80 80 78 78 77
98 101 99 101 100 98 101 94 89 92 92 97 98 96 97 99 99 99 96 97 98 101 100 105 108 104 108 106 103 104 103 98 97 99 97 90 86 82 85 85 84 84 81 81 78
101 101 100 95 94 98 95 97 97 99 100 99 99 96 97 104 94 98 107 107 110 108 109 113 113 110 113 115 115 111 109 105 106 106 110 98 91 92 89 86 86 85 85 82 82
101 101 101 100 100 99 104 100 102 106 110 100 97 96 102 107 106 104 122 111 118 119 117 124 122 121 121 117 115 107 110 109 114 112 112 102 92 90 94 91 85 86 90 83 84
103 105 104 104 102 106 108 110 108 115 123 103 105 104 107 116 111 115 123 126 124 128 129 128 123 123 124 109 109 111 109 113 112 108 101 100 92 92 93 92 91 88 88 86 89
109 108 107 113 108 109 113 116 117 121 130 115 114 112 115 119 126 126 126 136 134 133 125 118 118 118 113 109 100 103 102 102 100 103 100 95 97 84 95 98 90 89 86 91 92
115 115 115 117 118 118 121 122 129 129 129 126 118 121 125 127 131 135 137 132 127 120 111 107 113 106 106 102 99 99 100 99 99 99 96 87 92 84 93 97 96 84 92 96 95
122 124 124 123 125 126 127 130 134 134 129 131 126 130 135 138 142 141 139 135 122 108 106 104 100 96 95 90 83 82 81 83 88 90 87 87 90 82 93 98 87 83 92 95 95
127 131 128 128 131 133 137 142 144 136 139 141 136 139 141 136 127 126 122 107 100 96 91 85 82 80 74 71 70 68 68 68 73 75 79 82 82 89 88 87 93 89 88 93 93
138 136 138 139 140 142 145 139 137 132 129 126 127 126 122 124 120 105 94 87 81 78 77 72 73 70 62 64 63 59 59 64 65 67 70 73 75 79 83 87 89 89 91 92 94
141 145 145 141 137 136 134 135 124 121 123 122 124 121 111 104 95 91 82 70 66 66 68 67 64 58 56 54 55 55 52 53 57 58 60 65 70 79 77 79 82 88 90 90 89
145 141 137 137 135 136 123 116 114 112 106 107 97 95 89 87 73 71 67 60 58 59 61 60 59 55 50 48 49 48 48 49 50 49 53 58 66 71 70 73 79 82 85 85 86
128 129 129 126 123 115 110 105 100 99 94 85 82 77 69 63 64 62 58 53 50 49 48 50 49 48 45 40 44 42 40 40 40 44 46 50 55 57 64 67 72 76 79 83 86
111 108 107 106 108 103 96 90 85 82 78 68 60 58 55 56 55 52 48 47 44 40 39 40 38 40 36 37 40 40 39 39 40 42 41 44 51 53 58 64 68 71 73 78 80
100 100 91 87 80 74 72 71 72 65 55 51 49 50 50 49 46 46 41 37 34 32 33 34 37 34 32 30 34 38 39 40 38 39 44 46 52 54 58 63 65 64 70 74 73
80 77 74 69 62 61 55 57 55 49 45 47 44 45 43 42 40 33 28 29 29 30 31 32 31 30 30 31 36 38 38 39 39 44 46 51 52 58 61 61 60 64 64 67 65
75 71 69 64 60 55 52 51 46 44 42 40 42 36 38 34 29 26 24 27 29 31 31 32 30 33 35 37 40 41 43 45 45 47 48 52 55 62 58 57 54 55 55 54 52
67 66 65 59 57 54 48 46 44 43 37 36 36 35 33 29 25 24 22 27 30 31 34 35 35 37 38 39 40 40 42 46 47 49 50 53 57 55 54 51 50 47 45 41 40

GFSSW_250_spd_114.txt.gz
Wind_Speed
71 73 71 72 72 70 69 73 74 70 73 71 70 71 71 65 64 69 73 73 75 76 70 63 61 58 57 64 66 67 57 58 63 62 60 62 63 67 59 56 56 53 53 56 48
78 78 74 72 73 74 74 79 77 75 72 73 69 67 75 70 69 71 71 72 68 69 68 70 65 61 59 63 63 69 69 72 72 67 66 66 67 74 62 50 55 55 52 57 53
83 83 81 83 82 80 74 76 79 78 75 71 75 70 69 66 70 70 76 74 70 72 69 69 68 69 71 69 77 77 69 73 73 73 72 69 76 80 61 56 53 53 57 57 54
84 86 85 87 84 80 77 78 81 79 81 72 76 75 71 74 76 71 78 77 75 73 74 75 74 72 71 71 71 71 77 77 76 75 74 79 79 68 58 59 57 54 55 55 55
90 90 88 86 88 82 75 76 80 78 77 75 75 77 74 73 79 73 74 74 73 74 74 73 76 74 75 75 77 75 77 77 76 79 81 78 76 76 63 61 64 59 57 58 53
94 95 89 85 86 85 83 79 78 78 77 73 75 75 74 72 78 76 75 75 74 72 75 78 78 80 81 83 82 78 77 79 78 80 77 75 74 69 68 67 64 64 65 65 61
95 92 93 89 90 93 87 84 84 82 83 81 76 76 74 75 80 77 76 77 76 78 76 77 78 82 82 80 81 86 83 84 81 78 77 80 70 71 70 73 71 65 69 70 66
92 94 93 90 89 90 88 87 84 84 78 79 79 81 79 82 80 82 83 81 83 85 82 85 84 84 87 87 86 88 86 83 81 87 87 86 76 78 78 76 71 73 76 72 70
95 92 93 94 94 92 88 83 81 81 80 82 85 82 81 82 86 87 86 86 85 85 86 87 88 90 91 92 91 88 87 91 86 90 95 95 87 89 87 86 84 77 78 73 73
101 97 95 94 92 89 91 88 86 86 87 85 89 85 85 86 87 85 86 86 89 91 93 95 95 93 92 95 94 92 93 90 87 91 103 103 96 96 93 96 95 94 89 85 79
104 103 104 103 95 93 95 96 92 97 91 91 92 86 88 90 86 83 85 89 92 95 96 99 97 93 97 97 97 100 101 97 92 97 110 110 109 103 101 102 101 99 95 91 90
105 101 100 100 97 98 98 99 101 101 95 94 90 86 85 88 87 90 93 92 94 95 99 102 95 96 101 103 109 107 108 108 111 111 117 119 121 106 104 101 96 102 103 97 97
101 100 101 101 96 95 100 103 100 104 102 87 88 90 92 94 92 94 103 102 100 103 104 109 101 108 109 111 118 115 117 118 123 118 116 112 116 112 95 91 96 98 100 103 99
98 99 102 101 100 100 100 103 104 107 103 87 93 89 90 98 98 102 105 105 106 109 115 113 113 118 118 120 125 128 129 130 125 120 108 107 109 107 92 96 97 99 109 98 95
104 102 105 105 102 102 103 109 109 112 109 93 95 94 94 100 107 110 110 113 114 120 122 117 125 129 133 129 128 133 127 111 111 107 104 93 99 99 95 94 95 102 94 93 91
112 115 112 110 107 104 107 109 113 117 107 98 101 100 105 107 112 116 117 119 121 126 132 134 135 131 131 129 129 122 114 101 91 92 98 83 93 86 87 92 95 97 87 86 90
121 122 119 115 111 110 114 118 120 113 108 109 108 108 111 114 118 118 120 124 128 137 136 134 128 127 119 118 116 97 91 86 81 76 76 75 82 78 83 87 94 91 91 78 91
126 128 123 118 117 116 121 123 126 112 113 119 118 116 115 120 125 127 126 134 136 135 127 114 112 105 97 92 89 81 81 77 73 64 60 61 65 69 68 73 83 88 85 91 85
130 127 126 126 125 125 128 130 120 113 119 120 127 124 123 127 132 133 133 129 129 113 104 102 88 82 84 82 75 71 67 65 63 58 53 53 54 60 64 67 74 78 80 86 85
132 133 131 129 129 132 136 131 124 123 126 129 129 134 134 135 134 132 126 115 109 102 95 86 79 75 71 66 66 61 57 56 56 49 47 47 51 59 58 65 62 67 70 77 80
136 134 128 129 134 137 139 130 128 130 130 131 133 135 135 133 134 128 121 108 92 89 84 76 65 65 65 58 56 46 47 49 50 46 41 43 49 51 54 57 59 60 62 65 68
138 137 135 135 136 133 130 129 127 125 128 132 133 129 128 119 117 107 100 89 83 75 63 60 60 56 55 48 43 44 36 42 43 41 39 38 39 43 48 49 49 49 52 57 63
134 134 136 138 136 132 132 128 129 127 127 118 112 114 105 100 96 88 79 72 66 58 53 53 50 47 46 43 38 33 33 35 37 35 33 35 35 39 42 42 44 44 42 46 58
114 118 122 124 121 120 117 114 111 103 98 94 86 87 89 82 71 66 64 56 54 51 47 45 44 38 35 32 27 28 29 30 30 31 36 36 40 41 43 43 43 42 43 52 58
107 108 103 102 99 102 100 99 94 91 87 83 82 74 69 60 54 52 52 47 46 44 39 36 31 27 27 25 24 24 25 28 30 33 35 43 43 46 46 44 45 48 54 54 57
95 96 95 94 97 98 94 92 86 81 77 66 63 61 49 45 46 45 44 43 40 33 31 28 28 27 29 29 27 28 31 34 36 38 39 42 44 48 49 48 51 52 56 56 59
83 82 78 75 76 76 69 66 63 61 58 54 49 42 39 41 39 42 39 34 33 27 24 28 31 32 30 32 33 33 36 38 41 43 46 49 51 51 53 53 52 53 51 51 52

GFSSW_250_spd_117.txt.gz
Wind_Speed
75 75 76 76 73 75 65 63 64 64 66 64 67 70 70 69 69 68 67 62 62 62 62 63 63 64 63 63 62 55 53 54 55 53 60 69 68 62 54 56 55 51 55 58 50
77 79 76 77 77 76 71 72 69 70 71 73 69 69 69 67 67 68 70 67 65 62 61 61 63 63 64 63 64 60 59 59 59 61 60 65 64 64 58 60 59 60 59 53 56
85 81 78 74 80 75 78 75 73 76 74 75 73 71 69 64 65 68 73 67 65 63 65 66 64 63 64 60 63 59 59 62 63 63 62 63 65 70 63 64 66 66 65 64 49
82 81 84 79 80 81 73 72 68 71 79 80 75 69 65 65 66 64 67 64 65 64 66 67 67 64 61 63 65 66 63 62 66 67 67 71 70 70 71 68 67 71 69 59 47
84 84 84 82 80 80 74 75 76 75 77 79 74 69 71 67 72 63 69 68 65 65 67 68 68 69 70 63 64 65 65 70 72 74 76 73 71 69 72 69 72 73 59 56 52
87 88 87 83 82 82 80 79 82 81 79 78 77 74 72 74 73 67 68 70 67 66 69 69 67 65 62 65 68 67 68 67 69 73 76 76 75 77 74 81 78 76 70 64 63
92 90 91 90 85 86 86 83 83 85 87 81 76 75 75 79 75 72 68 68 70 70 68 68 67 64 68 71 73 77 74 74 75 78 81 89 75 79 79 75 72 71 70 70 73
92 93 91 91 90 90 91 90 91 88 88 83 81 80 76 77 77 74 72 69 71 74 75 79 82 82 82 82 78 76 78 76 79 83 85 95 76 80 80 76 74 73 72 75 79
94 96 97 97 96 95 96 96 92 89 84 85 85 81 78 76 76 77 78 79 80 80 82 83 81 81 80 81 80 85 82 81 77 86 88 94 86 84 83 85 81 79 77 82 89
95 97 100 101 98 100 98 95 88 85 81 83 83 82 84 81 77 79 78 77 80 82 83 83 83 78 80 83 82 86 86 84 78 80 89 88 88 89 89 89 89 89 88 93 101
104 103 105 105 102 100 98 93 94 92 87 89 88 83 82 86 82 82 81 83 85 85 84 83 83 81 87 91 92 93 93 92 90 88 98 93 94 96 96 100 97 96 99 103 112
110 109 106 103 101 100 99 99 101 98 90 88 88 82 85 90 83 84 87 86 86 86 89 90 86 92 92 92 94 97 97 97 97 99 106 104 105 101 111 110 108 106 106 108 119
110 107 108 108 104 104 101 104 104 103 94 85 87 84 83 84 84 84 87 87 87 87 91 90 89 94 96 96 101 103 107 107 108 110 110 118 117 111 109 110 117 118 114 114 119
107 109 105 102 98 97 99 102 104 101 90 79 83 78 82 87 88 89 91 93 93 93 99 91 96 100 101 102 111 110 112 117 119 122 123 123 112 109 105 106 107 111 120 114 98
107 105 105 100 98 95 97 100 100 98 90 80 82 83 87 90 93 92 92 95 98 100 104 91 101 104 105 107 111 113 118 122 127 132 127 108 115 93 91 97 100 103 102 98 94
109 107 103 102 100 100 104 106 104 99 85 85 89 95 96 94 96 99 100 98 99 100 104 101 106 109 110 113 113 117 121 123 124 113 100 90 98 75 82 77 78 85 86 84 81
112 109 105 103 103 105 109 109 110 98 91 91 99 101 101 101 100 102 108 105 104 106 108 110 107 111 115 116 118 123 122 115 107 101 88 81 75 74 65 61 66 68 69 69 73
117 116 114 111 111 112 114 116 115 95 99 103 109 109 105 106 104 105 107 108 112 115 112 114 113 119 122 122 124 122 110 99 88 80 72 68 60 54 52 50 59 58 62 59 64
128 126 123 120 119 121 125 127 110 103 106 113 117 115 113 111 113 112 114 111 114 117 118 119 120 122 125 126 118 102 94 87 78 70 60 56 52 44 49 39 46 42 49 52 56
131 130 131 130 129 133 132 127 111 111 116 118 113 116 114 116 117 116 115 115 119 116 118 119 118 118 113 104 96 83 78 72 66 57 53 50 47 39 49 53 48 44 49 38 50
135 134 130 132 133 135 135 120 116 119 121 120 122 120 120 112 115 116 112 113 114 112 116 119 110 96 91 87 77 72 68 62 59 52 52 46 42 42 45 49 54 51 55 52 51
138 137 133 136 139 139 133 128 125 122 124 124 124 122 122 120 116 117 117 115 120 119 118 98 89 84 74 67 61 61 55 55 51 49 48 43 36 41 43 44 44 43 40 33 33
132 131 134 138 140 132 126 124 125 124 125 127 126 123 124 121 119 120 119 114 107 96 88 87 77 65 62 57 55 52 51 49 45 40 39 38 31 39 36 35 29 29 27 25 32
121 120 116 117 118 116 114 111 112 115 120 118 117 117 118 121 118 113 101 95 91 84 80 70 61 57 53 50 47 45 39 34 28 28 32 28 30 36 33 28 28 25 22 29 39
113 112 109 110 106 106 104 101 98 96 95 101 99 100 102 103 97 93 86 77 77 73 66 56 50 47 47 44 39 30 26 26 26 27 25 29 29 36 30 30 32 33 38 40 41
100 99 95 91 96 99 100 96 91 88 86 84 85 86 85 76 74 78 77 66 66 60 52 45 41 42 39 34 29 25 24 27 28 30 29 30 35 35 35 35 39 43 44 45 46
86 88 87 86 84 82 78 81 87 90 84 78 78 77 76 75 70 57 53 53 50 47 43 38 40 34 30 30 31 28 27 28 34 37 35 35 39 44 45 45 45 45 47 48 47

GFSSW_250_spd_120.txt.gz
Wind_Speed
72 74 68 71 73 71 68 67 67 63 64 62 64 62 60 62 60 60 61 61 59 63 60 59 59 58 58 53 50 54 55 51 53 52 55 58 55 46 46 52 53 56 53 49 50
75 75 78 76 74 75 71 72 72 69 66 64 64 66 67 65 63 63 65 65 64 60 62 63 58 61 58 56 52 51 51 52 55 56 55 61 55 54 51 51 58 62 60 60 53
80 81 81 80 82 77 76 76 71 71 70 69 69 66 61 65 66 62 65 63 61 61 60 59 53 51 54 53 52 50 57 56 58 60 60 58 57 55 55 59 61 60 62 61 59
88 85 81 82 80 78 80 78 74 71 69 70 70 67 64 68 71 65 66 61 63 63 63 61 57 54 56 56 56 53 57 57 62 64 58 57 57 64 63 65 65 64 64 62 65
87 86 86 84 81 80 79 79 76 73 73 72 71 71 68 70 74 66 69 71 68 65 65 66 65 59 56 60 59 58 60 59 57 59 62 62 63 60 65 75 72 71 69 70 68
91 90 87 87 87 84 83 85 82 80 77 74 72 73 73 76 71 70 70 73 72 70 69 68 68 66 59 64 65 65 59 55 61 69 69 66 67 73 76 74 71 71 71 73 72
94 94 91 93 88 88 86 86 86 84 81 77 78 74 76 81 79 77 79 79 77 74 71 71 70 71 67 68 67 63 58 63 69 75 81 74 68 73 74 73 73 77 77 76 75
96 96 94 93 92 91 92 93 89 87 81 80 77 76 78 80 80 82 80 80 78 77 76 74 68 66 67 69 65 67 70 72 77 81 81 76 63 75 78 78 76 74 71 71 74
95 95 93 93 91 87 87 87 86 85 85 82 81 82 82 83 83 82 81 76 73 73 73 71 71 73 73 74 76 79 76 76 78 80 83 82 66 71 76 78 78 78 79 79 80
101 98 97 92 94 92 90 89 88 86 86 85 82 86 84 81 83 79 76 77 78 78 75 76 75 72 75 78 78 78 76 75 77 81 83 86 75 77 82 84 83 86 87 91 93
105 101 100 97 98 98 93 95 95 88 87 85 84 85 90 88 81 79 79 81 83 81 81 81 79 80 84 81 81 83 83 79 80 87 88 92 86 82 85 94 96 95 98 104 104
105 100 101 100 101 102 99 99 97 94 88 91 92 90 88 89 83 87 86 84 83 82 83 83 79 76 77 81 81 82 84 84 82 90 96 94 90 92 92 97 101 108 111 114 115
106 104 102 99 100 101 102 105 102 99 94 91 97 92 90 89 88 87 86 84 84 81 80 78 77 80 81 83 85 86 92 91 92 94 97 100 97 99 95 104 110 116 120 125 127
109 108 106 101 95 95 99 100 100 98 94 83 86 84 85 85 86 87 88 85 81 79 78 76 81 84 83 85 91 85 97 97 98 100 100 100 107 99 102 110 116 114 119 128 125
113 110 107 102 97 93 100 100 99 97 92 86 84 83 80 84 85 84 82 81 83 82 81 83 89 88 87 93 100 93 102 103 103 105 110 97 118 104 108 108 111 113 111 102 99
113 109 103 103 99 98 102 101 100 96 86 86 85 85 86 86 85 86 84 83 85 86 85 86 92 95 96 97 101 100 104 106 107 111 113 114 122 114 112 105 100 92 88 82 79
114 110 108 110 107 103 104 103 103 92 84 84 90 91 88 86 87 88 90 88 91 91 92 92 96 102 101 100 106 107 108 111 114 116 117 118 118 118 108 90 86 81 74 71 67
119 118 114 112 113 113 111 111 105 88 88 92 93 96 90 89 89 92 94 93 97 98 98 97 99 105 105 105 107 108 109 111 113 113 114 112 106 92 82 74 71 66 63 64 61
127 124 122 123 121 120 122 121 103 97 94 98 105 103 96 94 97 96 96 98 101 106 106 105 104 102 107 109 106 105 104 110 115 109 100 86 84 70 62 66 63 59 55 55 49
134 131 126 130 128 126 128 121 104 104 108 108 107 109 105 106 107 107 103 102 105 107 108 108 104 107 108 109 110 106 106 111 101 90 80 66 64 56 53 59 59 54 51 43 34
141 137 134 134 135 136 134 122 114 112 114 115 114 113 111 113 115 116 113 112 108 108 109 111 110 107 111 111 109 107 100 93 90 72 65 56 52 53 51 53 52 51 52 49 52
136 131 135 137 140 141 134 122 124 117 118 117 114 112 111 115 115 112 110 111 112 114 113 113 110 107 108 103 101 95 89 83 70 62 56 49 45 52 48 44 48 49 47 46 46
120 117 121 127 132 124 122 120 121 121 116 118 117 118 118 114 114 111 111 114 115 115 112 112 107 102 97 92 85 78 75 67 63 58 50 47 41 47 41 38 34 39 45 44 37
116 115 111 113 112 109 109 108 112 114 118 118 116 117 117 116 114 109 109 109 105 103 99 98 93 87 78 71 74 68 60 57 55 49 46 41 40 37 33 28 27 29 31 44 46
105 103 100 106 105 104 107 104 101 100 100 103 102 101 105 103 104 96 92 85 82 82 79 78 75 69 71 70 62 51 50 49 47 45 38 36 31 27 28 25 28 31 33 34 36
91 91 90 89 92 93 99 98 97 96 95 92 93 94 91 87 85 83 79 72 72 70 65 63 67 68 60 57 48 43 45 45 39 37 39 34 31 30 27 27 26 29 31 31 34
78 80 86 78 82 87 83 80 83 88 86 87 91 93 89 87 85 80 78 67 66 62 62 62 60 53 48 46 43 41 43 42 39 38 36 35 33 31 33 34 35 37 39 40 40

GFSSW_250_spd_123.txt.gz
Wind_Speed
72 71 69 69 71 68 65 64 68 67 66 65 67 65 64 66 64 60 61 60 61 62 62 59 57 59 59 57 54 57 62 54 52 55 55 51 48 48 46 48 53 55 53 45 40
73 73 74 70 72 74 72 71 71 70 74 70 69 69 67 69 68 65 66 63 63 64 61 62 61 56 53 49 53 53 56 54 50 53 55 53 50 51 49 52 57 55 52 47 42
77 77 75 75 75 76 78 80 76 76 74 74 72 71 72 74 71 70 66 68 65 64 66 63 62 58 60 57 54 51 54 52 52 54 55 57 55 54 53 58 58 51 48 51 53
84 77 77 77 75 78 78 78 79 79 76 74 73 74 71 71 71 70 66 66 64 64 68 62 57 57 58 58 56 58 58 58 59 55 55 57 60 59 59 60 55 52 54 58 55
84 80 77 76 76 75 79 79 81 78 78 78 75 74 75 76 74 69 71 71 68 69 67 68 66 62 63 65 62 62 61 59 58 58 58 57 60 59 60 65 61 63 63 64 69
83 81 77 77 82 81 82 82 80 80 80 78 76 77 78 82 76 75 72 72 73 72 71 71 70 68 69 70 64 61 61 61 58 60 61 60 59 57 68 69 68 68 76 74 69
81 80 77 82 83 82 81 81 83 81 80 82 81 81 84 84 82 82 78 75 73 72 75 73 72 69 67 68 65 63 61 61 62 63 62 61 52 61 68 72 75 80 77 77 77
91 88 85 85 82 84 82 83 82 84 84 84 83 79 82 84 83 79 76 78 76 76 77 74 74 71 69 68 65 62 61 61 63 65 63 60 57 66 75 77 74 77 82 83 81
95 89 94 95 87 87 88 86 84 86 83 86 84 84 84 83 80 81 82 80 80 79 79 78 75 72 69 67 63 65 66 68 68 68 71 71 64 69 73 75 77 80 82 84 82
97 97 96 97 93 94 97 92 94 90 89 86 85 84 83 82 82 80 80 79 79 80 81 81 79 74 74 75 70 73 72 71 71 73 73 71 65 71 77 78 79 83 86 89 87
102 101 99 99 96 97 99 99 96 94 92 88 82 82 86 83 81 83 85 84 85 84 86 83 79 78 81 81 80 76 75 74 78 76 72 70 68 73 77 80 86 88 90 92 94
103 100 97 99 102 101 100 99 92 91 90 86 85 80 87 83 82 88 84 84 87 88 89 86 84 83 84 84 82 80 77 73 70 72 73 70 67 71 80 87 92 92 96 97 100
105 107 108 101 100 100 102 100 96 93 91 85 84 83 86 88 86 92 89 88 89 87 85 82 81 82 83 82 82 81 79 74 76 76 76 78 74 75 85 93 99 100 102 105 107
116 112 108 104 100 104 105 102 100 98 93 88 88 86 87 86 86 87 86 84 84 81 81 77 84 83 81 79 80 78 80 79 80 85 82 87 88 85 91 96 102 105 109 112 112
117 110 107 106 104 108 106 106 104 101 97 90 85 82 84 86 85 84 84 82 81 81 83 81 82 82 81 82 81 80 83 84 84 88 91 92 105 90 98 103 106 108 111 113 117
117 113 111 109 110 111 109 109 109 106 93 93 88 90 88 84 81 83 85 85 83 82 81 83 87 84 84 85 86 88 89 90 93 96 97 95 109 102 105 109 106 108 109 110 111
123 120 117 113 115 115 114 113 112 103 97 96 94 92 87 85 84 83 85 84 85 86 86 85 84 87 86 87 91 92 97 98 99 102 103 106 108 110 109 111 108 105 105 99 93
128 124 123 120 123 120 118 115 113 99 98 99 100 98 94 93 87 89 86 84 87 87 88 88 87 91 92 92 95 96 99 102 107 108 110 111 113 114 115 111 103 96 92 86 79
133 129 125 124 127 123 122 121 109 101 102 101 105 103 102 97 95 96 97 88 89 90 91 93 93 98 99 101 102 102 104 107 113 114 114 112 114 112 109 101 90 85 75 73 70
137 135 129 134 131 129 131 121 109 107 107 107 109 111 106 108 107 105 101 100 98 97 98 96 97 98 101 105 106 109 110 112 113 114 113 111 108 102 95 84 75 68 69 68 63
142 138 137 135 135 136 133 121 115 115 115 115 112 115 115 112 111 112 109 101 101 99 101 103 104 104 104 106 109 108 110 114 114 112 110 101 90 83 80 71 60 59 60 58 56
127 123 126 127 130 128 126 120 124 121 120 120 118 116 116 118 118 116 112 111 107 107 108 107 105 103 103 106 107 108 109 111 109 100 91 84 69 73 66 56 50 50 50 51 51
119 118 116 119 118 113 110 113 116 115 116 118 120 121 122 121 121 119 118 116 114 112 113 110 105 103 102 103 102 104 103 96 90 81 70 73 63 59 50 48 45 45 47 49 49
114 114 117 116 113 107 102 100 102 104 106 105 109 110 117 122 120 113 114 113 113 111 110 108 103 100 99 97 92 87 84 79 75 68 66 58 52 51 48 43 39 40 41 42 46
105 100 105 106 106 108 107 102 101 99 94 95 95 95 99 101 101 98 98 100 97 97 95 96 93 91 82 76 74 74 70 67 69 61 52 48 47 46 44 39 35 35 36 38 41
91 88 93 93 96 96 94 91 90 91 92 94 94 100 99 92 90 90 88 83 80 80 81 82 77 73 69 67 69 65 64 66 57 50 45 44 46 46 39 36 37 36 36 34 33
82 80 83 81 84 88 80 78 77 83 84 83 83 86 87 88 92 86 82 77 75 75 74 74 71 70 67 68 68 62 57 51 48 45 43 42 42 43 40 37 36 37 38 38 39

GFSSW_250_spd_126.txt.gz
Wind_Speed
68 72 70 66 68 68 67 66 67 67 67 68 67 66 64 65 65 64 64 64 63 65 62 61 59 56 58 59 54 57 57 57 52 53 54 53 50 52 52 53 55 49 49 47 47
75 73 73 71 70 69 70 67 68 69 68 69 68 71 71 72 70 68 66 67 66 65 64 64 64 62 57 56 58 59 56 54 53 54 53 53 53 48 48 54 55 50 48 49 49
74 74 75 73 72 71 73 74 71 71 72 71 72 71 74 78 75 71 69 69 65 67 62 61 61 61 59 58 58 58 57 58 52 50 52 54 53 52 51 58 52 48 49 49 53
71 75 75 74 76 70 72 75 77 75 72 69 68 69 71 75 74 68 73 71 68 67 66 65 63 60 59 61 61 60 62 61 60 57 54 55 53 51 53 60 53 52 53 54 49
73 73 74 74 77 76 75 75 78 74 70 69 68 72 74 74 72 72 70 71 74 69 69 69 66 66 66 65 66 65 64 60 58 58 53 51 53 53 59 59 57 57 57 53 52
75 77 76 77 76 76 71 75 76 72 73 71 70 73 73 75 70 71 73 73 73 73 72 71 72 70 68 69 65 62 63 63 57 56 54 49 49 52 58 62 61 60 57 56 58
78 80 84 84 78 75 82 81 77 73 68 68 72 76 77 74 75 75 74 73 73 74 74 70 71 66 67 71 68 67 60 62 60 58 55 51 48 55 57 63 67 67 62 63 63
85 87 88 83 82 83 87 86 82 81 79 73 76 79 79 77 76 76 76 78 78 78 77 72 72 73 71 71 68 66 65 63 61 57 56 54 53 59 61 63 68 68 69 73 71
87 88 84 86 86 86 88 89 86 85 85 78 79 81 83 83 84 83 85 82 82 81 81 80 76 74 74 74 71 72 69 68 61 59 59 61 61 65 68 67 69 74 76 74 74
95 94 94 93 93 91 89 86 86 84 81 84 88 85 84 84 87 87 85 81 81 79 78 78 75 73 79 78 75 74 72 71 69 68 67 66 69 70 73 71 73 74 75 72 73
86 97 92 85 89 94 91 87 86 83 84 86 89 84 82 88 92 86 80 79 80 82 83 80 77 76 81 78 77 77 76 74 72 72 69 70 71 72 74 74 73 73 73 73 77
88 93 92 95 101 90 94 94 94 92 89 93 92 87 92 91 84 87 85 84 83 81 83 82 79 81 83 84 82 80 77 74 74 75 73 72 72 74 77 76 74 75 75 76 79
101 98 100 102 99 98 98 97 100 99 96 93 91 92 94 90 85 89 85 85 85 85 84 82 80 82 82 83 80 74 74 76 75 77 77 74 71 74 76 80 83 84 86 88 91
108 107 104 103 105 107 105 102 104 106 99 97 98 96 96 91 88 90 89 89 88 86 84 81 83 81 78 76 78 75 79 78 79 81 79 79 73 74 77 81 86 89 92 95 98
113 107 111 113 113 113 114 115 114 113 110 104 100 94 91 92 92 91 91 91 90 87 85 84 83 77 76 78 77 78 81 83 84 83 81 81 82 73 81 87 93 95 97 101 106
122 121 122 120 121 120 120 120 116 111 102 98 90 89 91 94 93 94 93 93 93 90 87 86 85 81 80 81 82 83 84 86 88 88 83 88 89 77 86 92 97 101 103 108 112
127 128 126 125 122 120 118 115 114 105 98 98 95 95 97 97 97 98 98 95 94 93 89 88 85 84 83 82 84 85 86 87 88 90 88 91 92 88 92 96 102 107 111 112 114
125 124 122 122 123 122 119 115 114 102 102 105 104 103 103 103 102 101 99 98 95 97 95 91 89 90 89 88 89 89 91 92 92 92 92 94 95 97 99 103 107 111 116 115 110
129 126 124 130 128 127 128 125 114 109 108 111 113 112 110 107 105 103 99 98 97 100 99 95 92 96 96 94 94 96 98 98 100 100 98 96 99 98 103 108 114 117 110 105 101
136 132 130 135 133 134 133 125 119 116 115 114 116 118 112 112 111 108 105 101 102 102 104 99 96 99 101 103 104 104 99 102 103 102 103 101 102 103 104 110 112 112 108 96 86
141 138 135 138 137 138 132 124 121 120 124 124 121 121 121 121 120 116 113 107 105 104 107 106 104 100 104 105 106 106 107 106 107 106 106 105 99 101 104 107 103 95 87 81 76
141 139 138 140 141 139 131 127 128 128 132 130 125 124 122 121 118 111 112 111 110 111 107 108 109 106 108 108 108 109 109 110 111 110 111 105 91 97 98 93 89 78 76 69 63
138 141 140 141 138 134 131 125 122 120 118 117 111 106 103 108 106 108 108 111 112 114 112 111 111 110 109 108 108 110 111 114 109 109 103 99 87 85 81 79 74 69 60 54 51
127 126 127 126 124 122 116 108 110 106 104 101 100 100 101 100 97 94 99 101 103 105 105 104 107 106 103 105 107 103 99 96 94 87 84 76 76 71 73 72 62 54 49 46 44
118 113 113 114 113 112 111 106 105 102 101 98 98 100 105 100 96 92 93 92 92 92 91 93 88 89 90 89 86 80 77 73 69 70 74 67 68 69 70 60 50 45 44 44 42
101 97 99 102 101 99 97 91 90 92 91 91 92 94 93 89 100 99 97 89 85 84 82 82 80 79 76 78 76 68 62 62 63 67 66 66 64 67 56 49 46 43 42 42 43
88 88 89 88 90 89 85 83 82 85 85 84 83 85 80 84 92 87 87 83 79 80 81 82 81 79 76 72 68 59 63 65 68 69 66 62 61 54 49 44 43 46 43 39 42